GFSMW_925_spd_000.txt.gz
Wind_Speed
1 12 17 18 19 19 14 11 14 5 22 26 27 28 30 32 32 33 31 31 31 31 32 34 36 37 38 40 37 36 33 35 31 28 28 31 39 43 45 39 42 47 48
6 10 17 20 24 24 23 19 14 17 7 18 24 19 18 22 30 29 28 28 29 30 31 33 36 37 38 37 36 34 30 28 25 17 14 7 18 28 34 37 40 42 38
7 8 12 19 22 25 25 24 22 20 18 8 9 13 11 9 11 13 17 19 21 24 27 31 35 36 35 35 34 33 30 27 27 29 15 3 6 2 13 20 24 30 33
6 6 9 17 20 22 24 26 27 27 25 22 19 16 12 9 10 12 12 13 13 15 16 19 25 32 35 35 38 35 34 28 24 24 30 35 27 7 10 21 19 23 30
7 6 7 13 17 20 23 24 26 28 27 27 25 23 21 18 17 18 19 20 19 19 20 21 21 19 25 32 34 34 30 29 28 27 25 23 26 30 12 12 13 25 30
6 5 8 13 16 18 20 21 24 25 25 25 25 25 23 22 22 22 22 22 23 23 25 26 26 24 22 23 26 30 30 31 30 30 28 26 12 10 10 11 13 15 30
7 6 6 8 11 15 16 17 20 23 23 24 26 24 23 22 22 21 22 23 25 25 27 27 28 28 28 28 26 25 26 30 31 31 30 30 29 29 29 21 14 13 25
6 6 6 7 9 11 14 17 21 23 23 22 22 21 20 21 21 22 23 23 24 25 27 27 28 28 29 30 31 31 29 27 27 29 29 28 29 31 32 27 15 16 14
6 7 6 8 9 14 16 18 19 21 23 23 22 23 22 23 23 23 23 25 26 28 30 31 31 31 31 31 32 30 31 31 29 31 30 29 28 28 28 29 28 15 18
6 5 4 6 11 17 17 19 19 20 20 20 20 20 21 22 23 24 26 28 30 31 31 31 31 31 32 33 34 31 31 31 30 29 30 31 28 28 27 27 28 28 18
7 5 4 11 17 16 18 17 18 19 19 19 19 19 20 22 24 27 28 29 29 29 28 28 28 28 29 30 31 31 30 29 29 29 29 30 29 28 28 27 27 27 27
7 5 9 17 16 15 15 16 16 17 16 17 18 20 21 24 27 30 30 31 30 31 30 28 28 28 30 29 29 31 30 26 31 28 28 27 27 28 28 27 28 29 30
7 7 8 10 12 12 12 13 14 15 16 17 20 20 22 26 27 28 29 30 31 31 31 30 30 31 30 30 30 29 29 30 30 30 28 27 25 27 28 29 28 30 31
8 7 6 8 10 10 10 12 12 14 16 17 18 19 23 26 27 29 30 31 31 30 31 31 33 32 30 34 29 31 33 29 31 25 23 24 25 27 29 30 28 29 31
7 7 6 5 7 9 9 9 12 15 16 16 15 20 23 25 27 30 30 31 30 30 30 32 33 34 31 30 34 37 38 36 31 26 25 24 28 27 25 30 33 32 29
7 7 6 7 7 6 6 8 9 11 12 13 17 22 26 29 30 31 31 32 32 33 33 32 32 33 33 35 37 40 40 31 25 27 30 29 29 25 34 32 31 32 33
8 7 6 7 6 4 5 7 9 10 13 14 19 24 27 28 28 29 30 29 30 31 31 31 31 33 34 34 38 37 29 28 27 28 31 34 29 30 38 35 34 36 33
6 5 6 5 4 3 4 6 9 12 16 18 23 26 27 27 28 27 27 30 28 29 30 30 31 31 33 35 37 29 32 30 29 27 30 31 28 31 34 36 38 39 39
7 7 6 3 3 3 5 9 12 17 22 22 23 25 26 28 28 28 30 30 29 29 29 29 31 33 34 33 28 37 34 31 31 31 32 30 32 31 35 36 36 40 42
10 6 4 3 3 7 10 13 16 18 20 21 22 24 25 27 29 28 29 28 28 29 30 31 30 31 34 32 34 34 30 29 29 29 29 29 33 37 39 38 37 33 34
10 7 4 4 7 8 11 13 15 17 18 19 22 24 25 27 25 27 28 29 30 28 28 29 30 31 28 32 32 33 32 28 28 27 28 30 37 41 43 39 33 29 41
7 5 3 5 5 7 10 12 14 18 19 21 24 26 27 27 26 28 30 27 27 26 27 27 27 25 28 29 31 32 31 33 31 28 30 33 40 44 39 32 31 35 36
6 4 3 2 5 7 9 13 18 19 21 23 26 27 28 27 25 25 26 25 23 23 24 24 25 27 29 31 30 31 33 33 33 29 34 38 38 32 30 31 35 33 27
5 3 1 4 7 9 12 15 18 20 22 24 27 27 24 23 23 23 22 23 23 23 23 24 24 26 28 27 28 29 31 31 30 30 32 32 31 30 31 31 28 26 27
4 2 3 6 9 12 16 18 20 21 23 25 24 22 21 22 23 24 25 25 25 23 27 27 28 26 26 28 35 36 34 32 31 37 27 26 27 27 27 28 28 28 28
2 3 6 8 12 14 18 21 21 21 23 23 21 22 22 22 24 25 29 27 26 28 28 29 28 29 29 32 35 34 33 30 34 29 22 22 25 24 26 27 28 30 29

GFSMW_925_spd_003.txt.gz
Wind_Speed
4 14 21 24 25 25 20 18 17 12 8 17 19 20 24 26 27 27 28 28 28 28 29 31 33 35 37 39 35 33 31 30 30 21 22 27 32 38 40 39 40 41 44
6 10 19 24 26 25 24 23 23 22 14 4 10 7 5 6 8 11 13 15 18 20 23 26 30 31 32 34 34 30 26 24 26 14 9 5 12 24 31 34 37 38 38
6 6 11 20 23 25 25 26 26 27 24 16 4 4 6 10 15 17 16 16 15 15 15 16 17 21 24 29 30 30 27 24 23 25 12 4 5 2 19 26 29 32 34
4 5 8 15 20 22 24 27 29 30 29 27 26 25 22 17 16 17 18 19 19 19 20 20 20 21 20 20 25 27 24 23 21 21 25 32 26 7 10 19 23 27 33
6 6 7 14 16 19 23 25 28 29 27 27 25 24 23 20 20 20 19 19 18 20 23 24 25 25 25 25 24 24 23 23 24 23 22 22 23 27 10 12 9 24 29
6 6 9 13 16 19 22 24 27 27 26 26 26 25 23 22 22 22 23 23 23 23 24 26 26 27 27 27 27 26 26 25 24 24 24 22 15 14 11 10 12 11 23
6 6 6 10 16 19 20 22 24 25 23 23 23 22 21 21 21 21 22 23 25 27 27 28 29 29 28 28 29 29 27 27 26 26 24 23 23 24 24 19 13 12 25
5 6 6 11 14 16 19 20 21 21 20 20 20 19 19 20 20 21 22 22 24 25 27 30 30 30 30 30 31 32 31 29 30 29 30 28 24 24 23 21 13 15 13
6 7 7 12 15 18 17 17 18 19 19 18 17 18 19 20 20 21 22 24 25 25 28 29 29 30 29 29 30 27 29 30 28 28 28 28 26 26 25 25 24 14 15
7 6 7 13 15 16 16 16 16 16 16 15 16 18 19 20 21 23 25 27 27 28 29 29 28 28 27 28 29 28 29 29 26 25 29 29 26 26 24 23 24 24 15
7 6 8 14 16 14 13 14 14 14 15 16 16 17 20 22 24 26 27 28 29 30 29 29 28 28 29 29 27 29 28 26 29 28 29 29 27 24 25 25 25 25 24
7 7 10 14 13 12 11 12 12 14 14 14 15 17 21 24 26 27 28 29 29 30 29 30 29 29 29 30 28 31 27 29 29 29 30 28 24 26 25 25 26 24 25
7 7 8 9 11 9 8 10 12 12 12 13 15 19 23 24 25 27 27 28 29 29 31 30 29 29 29 28 30 27 30 31 30 30 31 26 27 25 26 28 23 24 28
9 6 6 7 9 8 8 9 10 11 14 15 17 19 21 23 23 25 26 27 28 29 31 30 29 29 29 29 27 31 31 32 30 28 24 25 24 27 31 28 24 26 27
7 7 6 5 7 6 6 9 12 13 13 13 16 19 20 22 23 25 27 28 29 30 32 34 35 33 32 27 34 33 31 27 27 28 27 27 28 30 28 25 30 29 25
7 7 6 7 6 6 7 7 9 10 13 15 17 19 22 23 25 27 29 30 31 32 33 32 32 31 30 31 32 33 34 28 29 30 30 27 31 30 29 31 31 29 28
8 8 6 7 6 6 6 8 8 10 13 13 16 20 22 25 26 28 28 30 30 30 29 30 30 31 32 31 33 32 31 30 28 28 30 31 28 31 30 35 34 32 33
8 7 9 9 6 4 6 5 7 10 12 14 17 20 22 24 26 27 28 29 28 27 29 29 29 31 31 32 33 33 32 31 30 30 31 31 31 30 35 38 36 35 36
8 10 10 8 6 3 3 3 6 10 13 16 18 20 22 25 27 27 29 29 28 28 28 27 30 30 32 32 32 34 31 30 31 31 29 29 32 32 38 39 36 37 39
16 14 9 7 3 2 2 4 7 11 15 17 18 20 21 23 25 25 27 28 27 27 27 29 27 29 31 31 32 33 30 29 29 26 25 30 33 39 39 41 37 30 30
12 10 7 6 4 2 2 4 8 13 15 17 18 20 21 23 23 25 27 29 28 26 26 27 28 28 27 30 33 33 32 29 28 24 29 30 35 38 44 40 33 31 38
9 6 5 5 3 0 4 8 12 14 16 18 20 22 23 23 24 24 28 27 26 24 25 26 28 27 28 30 33 33 34 34 31 30 30 31 37 42 39 37 36 37 35
9 5 4 4 2 3 7 11 14 15 17 19 22 25 25 25 22 26 27 25 22 22 23 24 25 28 30 30 31 33 32 34 34 31 31 35 37 36 34 34 36 32 29
7 5 3 0 3 6 9 10 13 16 18 21 24 26 25 24 26 25 21 21 21 22 24 24 25 27 28 27 29 29 30 32 31 24 25 34 32 29 32 31 29 26 30
5 3 1 3 5 9 11 13 16 17 20 23 25 26 26 24 26 23 23 23 23 22 27 27 28 27 26 28 36 36 36 35 32 31 27 28 25 28 28 28 28 29 30
5 3 3 5 8 11 15 16 17 17 19 23 21 23 22 23 23 24 28 23 22 26 29 29 29 29 31 34 35 35 35 35 31 27 24 23 24 25 27 27 29 29 31

GFSMW_925_spd_006.txt.gz
Wind_Speed
3 14 20 22 23 22 23 24 25 20 9 3 4 6 8 10 9 9 9 10 10 11 13 15 17 19 22 25 26 28 29 28 27 20 22 25 28 31 33 35 37 37 38
6 9 18 23 24 25 28 29 28 25 20 13 9 6 9 15 17 16 16 17 17 16 17 16 17 17 17 19 21 23 21 18 21 11 15 5 9 21 28 32 36 36 37
7 5 11 19 23 27 28 29 29 28 26 20 14 16 16 20 22 23 22 20 19 19 18 18 19 20 20 21 21 19 18 19 22 19 12 5 8 9 21 25 27 33 35
3 5 7 15 21 22 25 27 27 28 26 25 27 27 24 22 17 17 17 18 18 20 21 22 23 23 24 24 23 23 22 20 17 20 18 22 23 10 12 14 21 30 36
6 6 8 16 17 20 23 26 28 28 27 27 26 25 23 18 18 19 20 21 21 22 24 26 26 26 26 26 25 26 27 24 20 18 20 21 20 20 9 15 10 24 22
6 5 12 17 18 20 22 24 26 26 24 24 24 24 23 22 23 24 26 25 26 26 27 29 28 27 28 28 28 28 29 27 26 26 22 17 11 12 10 11 13 14 23
7 6 7 11 17 18 19 21 23 23 22 23 23 22 22 22 23 24 25 27 28 29 29 29 30 29 28 27 28 28 27 28 27 28 26 23 20 21 20 16 12 12 24
6 7 7 12 18 18 18 19 20 21 19 20 20 20 20 20 20 20 20 21 21 22 24 27 27 28 27 28 28 27 27 26 28 28 24 26 24 23 22 20 10 13 12
7 7 8 14 16 17 16 16 18 18 18 17 17 18 19 19 18 19 20 22 23 23 25 25 26 27 27 28 28 26 27 29 27 24 27 28 26 26 24 23 20 9 12
7 7 8 14 16 15 15 16 16 17 16 15 16 16 17 18 20 21 22 23 23 24 25 26 27 28 29 30 30 26 29 28 23 26 29 27 28 28 24 24 22 21 14
7 7 8 14 15 14 13 15 15 15 15 14 15 18 20 19 20 21 21 22 22 24 26 27 29 30 31 31 31 28 25 27 25 27 28 29 29 25 25 24 24 24 22
7 7 11 15 13 13 13 14 14 14 14 13 14 16 18 20 21 21 22 23 25 26 27 28 29 30 30 29 27 27 26 25 27 28 27 25 24 26 23 24 29 26 20
7 6 8 9 11 11 12 12 12 12 11 11 14 16 18 20 21 22 22 23 25 26 28 30 30 30 30 29 27 24 27 27 28 23 24 28 26 27 27 28 28 26 20
8 6 6 8 11 10 10 10 10 10 10 13 14 16 18 18 19 20 23 24 25 26 30 31 31 31 32 30 26 30 29 28 25 24 26 27 27 28 32 30 29 26 26
7 8 7 6 10 10 8 7 8 8 10 11 13 15 17 18 20 22 24 25 27 28 29 32 33 33 30 24 31 31 31 30 29 29 28 26 29 32 29 32 32 31 29
7 7 7 9 10 9 7 4 5 6 8 9 12 16 18 20 21 24 26 28 28 30 32 33 33 34 30 29 30 31 31 31 29 30 30 31 31 28 33 33 36 35 34
7 8 7 10 11 9 5 3 3 4 6 10 14 16 18 21 23 25 26 28 30 32 33 34 33 33 31 28 31 32 32 30 30 30 32 32 30 31 30 34 36 34 35
6 7 11 13 11 7 4 2 1 4 10 12 13 14 18 21 23 25 26 28 30 30 32 31 31 30 30 28 31 32 30 30 30 30 31 30 29 31 35 37 35 31 36
8 14 17 14 10 6 3 1 3 8 9 11 14 16 18 21 23 26 28 28 30 31 31 28 30 29 31 30 29 32 31 30 31 32 30 30 32 33 40 36 35 38 33
15 17 14 12 9 5 2 1 5 7 10 13 15 17 18 21 25 24 25 28 30 28 29 31 27 27 29 29 30 33 31 30 31 31 26 29 32 38 36 40 36 28 35
13 13 11 9 6 3 1 4 6 8 11 13 16 18 21 23 22 24 25 29 30 27 28 28 29 27 25 28 32 34 33 29 30 27 31 32 37 31 39 40 30 34 41
11 9 9 6 4 2 2 3 7 9 12 15 18 20 22 23 24 23 27 29 27 26 27 27 28 25 25 27 31 33 32 34 32 32 34 34 29 37 39 33 36 38 35
8 6 6 6 3 1 2 6 9 12 14 17 20 23 25 24 22 23 26 24 23 23 24 24 25 26 27 28 29 32 32 34 35 33 36 25 32 37 30 33 36 34 28
8 6 6 5 3 2 4 7 11 14 16 19 22 25 24 25 25 24 24 23 22 22 23 23 25 27 27 26 29 29 31 31 31 32 24 28 31 31 31 31 31 29 28
9 7 5 3 3 5 8 10 12 14 17 20 23 24 25 25 27 24 22 23 22 22 26 26 26 26 26 28 36 36 36 35 34 38 28 26 27 27 29 30 30 31 30
9 7 4 2 5 9 11 12 14 15 17 21 20 23 21 24 24 24 24 19 21 24 27 28 27 28 29 33 35 36 36 35 40 34 23 20 24 25 27 28 30 31 32

GFSMW_925_spd_009.txt.gz
Wind_Speed
3 7 14 17 20 23 24 25 24 19 16 16 15 18 18 18 20 20 19 19 18 17 16 15 16 16 15 15 15 14 16 18 17 18 17 18 24 24 22 25 24 25 30
5 8 12 19 23 23 26 29 28 23 23 22 18 18 19 24 24 23 22 21 20 19 19 19 19 19 18 18 17 16 16 16 18 14 20 6 13 21 16 21 27 27 28
9 6 12 15 19 22 26 28 30 30 26 24 23 25 24 21 20 21 21 20 19 19 19 19 19 19 18 17 17 15 15 15 17 15 10 7 7 12 22 23 27 25 21
7 6 11 13 15 21 26 29 30 31 29 26 26 26 21 16 14 16 17 18 19 20 21 21 22 21 20 19 19 18 18 18 17 19 12 19 21 8 12 15 24 29 23
9 8 9 12 16 20 24 27 28 28 26 25 24 24 21 17 16 17 18 19 20 20 22 22 22 21 19 19 19 20 20 16 17 16 19 19 18 18 10 16 10 27 26
9 7 10 13 16 19 22 24 26 25 24 23 22 22 20 17 17 19 19 18 18 18 22 23 22 20 19 19 19 19 18 18 18 18 18 17 16 14 13 12 16 19 27
11 9 9 11 14 17 18 20 22 22 21 22 22 20 19 19 19 18 18 19 19 19 23 23 23 20 20 19 19 20 18 20 20 19 18 18 20 22 22 19 13 13 27
10 10 10 12 14 16 17 19 19 19 19 20 19 18 18 18 17 16 16 15 16 16 19 20 20 21 22 22 20 19 17 18 18 17 19 21 23 22 23 21 15 13 13
10 10 11 13 13 14 15 17 17 18 17 17 16 17 16 17 16 16 16 16 16 16 19 20 21 22 22 21 20 18 18 19 20 20 19 22 23 22 23 23 22 12 13
10 9 11 13 13 14 16 15 15 17 16 15 14 15 15 15 15 15 17 18 18 18 19 20 20 19 20 20 20 20 19 19 22 20 24 21 22 22 22 22 23 21 15
11 10 12 13 14 15 14 14 14 14 14 13 13 13 14 14 15 16 17 16 16 17 18 19 20 20 21 23 22 21 20 23 23 23 25 22 21 26 26 24 23 23 23
9 10 14 14 13 13 12 13 12 12 11 10 10 12 13 15 16 15 15 16 17 18 19 21 22 21 21 22 22 21 23 24 26 26 23 24 26 27 25 25 25 27 25
10 10 12 13 12 12 12 11 10 9 8 8 9 12 13 14 14 14 15 17 19 20 23 23 22 22 24 23 21 23 25 25 26 25 25 28 28 28 27 28 27 23 26
10 10 10 12 11 12 11 10 9 6 6 7 9 10 11 11 12 14 17 18 20 21 24 24 23 23 23 22 22 26 27 27 27 28 27 28 28 29 30 28 26 28 28
10 11 11 10 12 12 11 9 7 5 5 7 8 10 10 11 13 16 18 20 22 22 23 24 24 23 22 21 27 27 28 29 30 29 30 29 30 31 29 30 31 31 31
9 11 11 14 13 12 11 8 5 5 6 6 8 8 11 13 15 18 21 22 23 25 26 24 24 25 23 25 26 28 29 29 29 30 31 31 31 29 32 34 33 35 36
9 11 12 13 14 14 10 7 4 4 4 6 7 10 12 15 18 21 23 24 24 26 24 25 26 25 25 26 28 29 29 29 29 30 31 32 29 31 30 33 34 32 31
6 8 12 15 15 12 9 6 3 2 3 5 9 11 13 17 20 23 24 25 23 22 24 24 24 26 26 26 28 29 29 29 30 30 31 31 31 30 35 35 27 29 35
4 11 19 19 15 11 8 5 1 1 5 8 10 12 15 19 22 23 24 24 23 25 24 23 24 26 26 27 27 29 30 30 30 30 30 29 32 34 38 31 31 35 35
11 17 17 16 13 9 6 3 1 3 6 9 11 14 16 19 21 22 24 25 27 24 26 26 22 22 26 25 28 31 29 29 29 30 29 29 34 37 26 32 34 31 34
13 15 15 13 10 8 5 2 1 4 7 10 13 15 17 20 21 24 25 28 27 23 25 25 23 22 22 25 29 31 31 28 30 28 30 31 36 25 33 37 32 31 40
12 13 13 11 8 6 3 1 3 6 9 12 13 16 20 22 23 24 27 25 23 23 24 25 24 23 24 26 28 30 31 33 31 31 32 35 29 39 37 36 34 38 35
12 11 11 10 7 5 2 2 5 8 10 13 16 19 22 23 23 25 22 22 21 21 23 23 23 24 26 26 27 29 30 33 34 32 33 38 42 36 31 33 37 34 28
13 12 12 9 6 4 1 4 6 8 11 15 18 22 23 23 24 25 22 20 21 21 21 22 23 24 25 25 27 28 31 31 29 28 35 39 34 27 32 32 30 28 27
13 12 9 7 5 3 3 4 6 10 13 16 20 22 25 25 24 21 19 19 19 20 25 25 25 24 23 26 34 36 35 33 32 41 31 28 25 26 28 29 29 29 29
11 10 8 6 4 3 3 5 7 10 13 17 16 21 18 20 19 19 21 17 19 22 24 25 25 26 28 31 34 35 34 32 38 30 25 25 24 25 28 29 30 30 31

GFSMW_925_spd_012.txt.gz
Wind_Speed
7 8 9 10 12 14 16 16 16 14 13 14 15 14 15 15 16 16 16 16 15 15 14 12 12 13 12 13 14 15 17 18 18 22 24 23 26 17 25 17 20 28 29
9 10 11 13 15 16 18 18 18 18 15 14 14 14 15 16 15 15 15 15 15 15 14 13 12 13 12 13 15 16 18 17 19 20 23 9 19 18 25 33 29 26 31
12 11 12 13 14 16 16 20 20 19 18 17 16 15 15 14 12 12 12 14 13 14 13 13 12 13 13 13 14 15 15 18 18 17 13 10 10 13 26 27 30 24 28
12 11 13 14 15 15 16 19 19 19 18 16 16 15 14 13 11 11 10 10 12 13 14 13 13 12 12 13 15 15 15 16 17 18 17 20 23 13 14 15 28 27 27
13 12 12 14 14 13 15 17 19 20 18 17 15 15 14 11 9 8 9 9 10 11 14 13 13 13 13 13 13 15 15 14 16 17 19 20 20 23 13 17 11 29 29
13 12 14 15 14 13 14 15 17 17 16 17 16 16 13 11 8 9 9 10 10 11 13 13 13 12 13 13 14 14 14 15 16 17 18 18 16 15 14 15 17 19 28
14 13 13 14 14 13 13 14 15 16 14 15 14 13 12 10 9 9 10 11 12 12 14 15 14 13 14 14 14 15 15 15 16 17 19 19 21 22 24 23 14 15 29
14 14 14 15 13 12 12 13 13 14 12 12 12 11 10 9 9 9 10 10 10 11 12 12 12 13 14 15 15 15 16 16 17 19 20 20 22 22 23 24 16 15 15
15 14 15 15 14 13 12 12 13 12 10 10 9 10 9 9 8 8 8 8 9 10 11 12 14 15 16 16 17 17 18 19 18 21 20 22 24 24 24 24 25 15 15
15 13 13 15 13 13 12 11 11 11 9 8 8 8 8 8 7 7 8 8 9 10 12 13 14 16 16 17 18 18 19 19 21 22 24 24 26 25 25 27 28 27 20
15 13 14 14 13 13 11 11 10 10 8 7 6 6 6 6 6 7 8 9 10 11 12 14 15 16 17 18 19 20 19 22 23 23 25 26 26 26 27 28 28 27 27
14 13 15 16 14 13 12 10 10 9 7 6 5 6 5 5 6 7 9 10 11 12 13 14 15 17 18 19 20 20 22 24 25 26 26 27 27 28 29 28 29 29 30
15 13 14 15 15 14 12 10 9 8 6 5 4 4 5 6 7 8 9 10 12 12 13 14 16 18 20 20 20 21 25 25 26 27 28 29 28 30 29 30 31 29 30
15 14 13 15 15 14 13 11 9 6 5 4 3 3 5 6 7 8 10 10 11 13 15 16 17 19 20 20 20 25 26 27 27 28 28 29 29 29 31 32 31 30 32
14 14 14 12 16 15 12 10 8 6 4 2 2 3 5 6 8 9 11 12 13 14 15 17 18 20 20 19 24 25 28 29 30 28 28 28 28 30 30 30 32 33 33
14 14 14 16 17 15 13 10 8 5 3 2 2 4 6 7 9 10 12 13 14 15 16 18 20 21 21 22 24 26 28 28 28 29 30 29 30 29 32 33 35 36 35
11 14 14 15 16 15 13 11 8 5 3 1 3 4 6 8 10 12 13 14 16 17 19 21 22 23 23 23 25 27 27 28 27 28 30 31 30 31 33 35 36 36 32
8 10 13 15 15 14 12 10 7 4 2 1 2 5 7 9 11 13 14 16 17 19 21 22 23 24 24 23 25 26 27 28 27 28 29 31 33 32 35 37 37 29 31
4 10 14 16 16 14 11 8 5 3 1 1 4 5 8 11 13 15 17 19 19 20 22 23 23 24 24 23 24 26 29 28 29 29 30 32 33 35 39 39 29 33 35
9 13 15 16 14 12 9 7 4 2 1 3 5 7 9 12 15 16 19 19 20 22 22 23 22 22 24 22 23 27 27 29 29 31 32 31 33 37 39 37 37 29 33
13 14 14 14 12 10 7 5 3 1 2 4 6 9 10 13 15 17 19 20 22 23 23 23 21 20 20 22 25 26 28 28 30 29 31 31 35 39 45 44 34 31 41
13 13 13 12 10 8 6 4 1 1 4 5 8 10 13 14 16 17 19 20 21 22 24 23 21 20 21 23 25 27 29 31 31 32 32 34 39 44 41 35 32 39 36
11 10 10 10 8 6 4 2 1 3 5 7 10 12 14 15 16 17 19 20 20 20 22 22 23 24 25 25 25 28 31 34 34 32 34 39 41 38 32 29 35 32 28
9 10 10 8 7 6 4 3 3 4 6 9 12 14 15 17 16 17 17 18 19 20 20 23 24 26 27 26 27 30 31 32 31 30 31 36 33 30 30 30 30 27 27
9 9 8 8 7 7 5 3 2 5 8 11 13 14 15 17 18 18 18 18 18 18 23 25 26 26 25 27 33 35 35 35 33 38 32 27 27 26 28 28 28 29 29
11 10 8 7 8 6 4 2 4 6 8 12 12 14 16 17 18 20 22 17 18 20 23 25 24 27 28 31 34 36 35 35 36 30 25 25 25 25 27 28 29 30 31

GFSMW_925_spd_015.txt.gz
Wind_Speed
7 7 8 10 12 13 15 15 15 14 15 15 15 14 15 14 15 15 13 13 12 12 12 10 11 12 11 12 14 15 17 17 18 19 20 20 27 21 22 23 28 30 27
10 10 11 12 14 16 16 17 16 15 15 14 15 16 15 15 14 13 12 12 12 13 12 13 12 13 13 13 15 16 16 15 18 17 20 6 14 13 29 30 24 29 25
13 12 13 14 15 16 16 17 17 18 18 18 19 18 16 14 12 10 10 12 12 13 13 13 12 12 13 13 15 15 16 15 16 16 11 6 6 12 20 23 23 24 31
14 12 13 15 15 15 16 17 17 17 15 14 15 14 13 13 10 8 8 8 11 11 13 13 13 12 12 12 13 13 14 15 14 16 15 18 21 11 11 10 26 23 25
14 14 12 16 15 14 15 16 17 17 15 15 15 15 14 11 9 7 7 8 8 10 13 12 12 11 11 11 13 14 15 15 16 16 17 18 19 21 12 15 10 23 23
15 13 15 16 15 13 14 14 16 16 15 16 15 15 13 11 9 9 8 7 8 9 11 11 11 11 12 13 14 15 15 16 16 17 18 18 17 14 13 13 14 17 24
15 14 14 14 15 14 14 14 14 15 14 14 14 13 12 10 10 8 7 8 9 9 11 12 12 12 13 14 15 16 17 17 18 19 19 20 22 22 23 22 14 14 25
15 14 14 15 15 14 13 14 14 14 12 12 12 11 9 8 8 8 8 8 8 9 11 12 13 14 14 15 16 17 17 18 19 21 20 23 22 23 23 24 17 16 14
16 16 14 16 15 14 13 13 13 12 11 10 9 9 9 9 7 7 7 7 8 9 10 12 13 14 15 16 17 18 20 20 21 21 23 23 24 25 24 27 24 16 16
16 15 13 16 15 14 13 12 11 11 10 9 8 7 7 7 6 6 7 7 8 9 11 12 13 15 16 18 19 20 21 22 21 24 24 26 25 27 26 27 25 24 19
16 15 13 16 15 14 13 12 11 10 8 7 7 6 6 6 6 6 7 7 8 9 10 12 14 16 18 20 20 22 23 22 25 25 26 27 28 27 26 27 27 27 25
16 15 14 17 16 15 13 12 10 9 7 6 5 5 5 5 6 6 7 8 9 10 11 13 16 18 19 20 21 23 22 25 26 27 27 27 27 28 25 26 27 27 29
16 15 14 14 16 15 13 12 10 9 7 6 4 4 4 5 5 6 7 9 10 11 13 15 17 19 21 22 22 23 24 27 27 28 27 28 27 27 26 26 27 29 30
16 15 13 12 16 15 13 12 11 9 7 5 3 3 4 5 6 6 8 9 11 13 15 17 19 21 22 23 23 21 26 27 28 28 28 28 26 26 27 30 29 28 30
16 15 14 12 15 15 14 12 11 9 6 4 3 3 3 4 5 7 9 11 12 14 17 19 21 22 22 22 22 25 27 28 30 29 28 26 27 29 30 29 28 31 30
15 14 13 13 15 16 14 13 11 9 6 4 2 1 3 5 6 8 10 13 15 17 19 21 23 23 23 24 25 25 27 28 29 29 28 27 28 27 30 32 35 36 35
13 13 13 12 15 15 14 13 11 8 6 3 1 2 4 6 7 10 12 14 17 19 21 23 23 24 25 25 26 26 27 28 27 29 28 28 27 29 31 34 35 34 39
8 9 10 13 14 14 14 12 10 8 5 2 1 3 5 7 9 11 14 16 19 20 22 23 24 25 25 25 26 26 27 27 28 28 28 29 30 32 35 34 33 31 33
8 10 12 14 15 15 14 12 9 7 4 1 2 4 5 8 10 13 16 18 20 22 23 24 25 26 26 25 24 25 26 27 28 28 28 32 33 34 36 35 35 37 36
11 13 15 16 16 15 13 11 8 5 2 0 3 4 6 9 12 15 17 19 20 22 24 26 25 26 25 23 23 25 26 27 28 28 29 31 34 36 37 40 36 32 33
15 15 15 15 14 13 11 8 6 4 2 2 3 6 8 11 13 16 18 20 22 23 24 25 24 23 22 23 25 26 26 27 29 29 31 30 35 37 41 41 33 32 39
14 14 14 13 12 10 9 7 5 3 1 2 5 8 10 12 15 17 19 20 22 23 23 23 23 20 22 23 26 28 29 32 32 31 32 34 35 40 40 33 35 38 35
12 12 13 13 10 8 7 6 4 2 2 5 7 10 12 14 15 18 19 21 21 21 21 21 21 21 22 25 26 29 32 35 35 33 37 32 38 36 30 34 35 33 28
11 11 12 11 10 8 6 4 3 1 3 6 9 11 13 15 17 18 19 19 20 20 20 21 22 23 25 25 27 31 32 33 32 33 28 34 32 30 33 30 29 27 28
10 11 10 10 9 8 5 3 1 2 5 8 10 12 14 16 19 19 19 20 20 20 22 23 24 25 25 27 35 37 37 36 36 38 29 25 26 27 27 28 28 28 28
10 9 9 9 8 6 4 2 2 3 6 8 10 13 15 17 18 19 21 19 21 22 23 24 25 26 28 32 34 36 38 37 36 28 23 24 24 24 27 27 29 28 29

GFSMW_925_spd_018.txt.gz
Wind_Speed
10 8 10 10 11 13 15 17 19 19 20 21 23 22 22 20 19 17 14 13 13 13 12 11 11 12 13 14 14 16 18 18 21 17 21 20 12 21 20 36 30 30 30
9 7 11 14 15 14 16 17 19 21 22 23 23 23 22 18 17 16 15 12 14 13 14 13 13 13 13 13 15 16 17 14 20 14 16 4 13 7 35 23 26 26 23
11 8 9 15 16 16 18 18 20 21 22 24 24 23 22 18 15 13 13 12 13 14 14 14 13 13 12 13 13 15 16 16 19 17 8 4 3 14 8 26 20 28 34
12 8 9 15 17 17 18 19 19 20 20 19 21 18 18 17 14 13 11 11 12 13 14 12 12 11 11 12 13 14 15 15 18 19 11 18 21 6 9 5 31 24 28
13 10 9 18 17 16 18 18 20 21 20 20 20 20 19 15 13 11 11 9 8 9 13 11 11 10 12 12 13 15 15 15 16 17 19 23 22 22 7 14 8 26 24
12 11 20 20 17 17 18 19 20 20 20 20 20 19 17 14 13 11 9 9 8 8 12 11 10 10 12 13 14 15 17 18 17 20 20 21 13 14 14 12 15 18 25
12 12 10 13 17 17 18 18 20 20 20 20 18 17 15 13 12 10 9 8 7 8 11 11 11 11 12 14 16 17 19 19 21 21 25 24 24 24 23 20 14 13 27
12 12 9 16 19 19 16 18 19 20 18 18 16 15 13 12 11 10 8 8 8 9 10 11 12 13 14 16 17 20 20 22 22 24 25 26 28 25 25 23 17 15 16
13 12 11 19 20 19 18 19 19 18 17 16 15 13 12 11 10 8 8 8 8 8 10 11 13 15 16 18 19 21 22 23 26 26 24 28 27 28 27 26 25 16 16
14 11 10 18 21 20 20 18 17 18 16 15 13 12 11 9 8 7 8 7 8 9 11 13 15 17 18 19 20 22 24 26 26 24 28 30 27 27 27 27 24 23 20
14 12 9 21 22 21 19 19 18 17 15 14 12 10 10 8 6 6 6 8 8 10 11 14 16 18 20 21 22 24 24 26 25 27 28 29 30 28 26 27 25 24 24
12 11 11 19 22 20 19 19 17 16 14 13 11 10 8 5 5 5 7 7 9 10 12 15 17 19 21 23 25 26 27 23 25 27 29 29 28 30 29 25 26 23 26
11 10 11 11 18 21 20 19 17 16 14 12 11 9 6 5 4 5 6 8 10 13 14 16 19 22 23 24 24 28 22 26 27 28 29 31 31 31 27 27 27 30 29
13 10 11 8 18 21 21 19 18 16 13 12 10 8 4 3 3 5 7 10 12 14 17 19 20 23 24 24 28 22 28 27 25 27 30 31 32 28 30 31 30 26 27
13 12 11 9 16 21 20 19 18 15 13 11 9 6 3 3 4 6 8 11 13 16 19 21 22 24 25 22 25 28 26 27 26 30 30 30 30 32 34 32 30 32 32
13 11 11 9 15 21 22 21 19 15 12 10 7 4 2 2 4 7 10 13 15 18 21 23 24 25 25 24 27 27 27 25 26 30 29 32 30 29 33 35 39 37 33
11 10 9 9 18 23 24 22 18 15 12 10 6 3 1 3 5 9 11 14 17 20 22 23 25 25 26 25 27 27 27 25 27 28 30 31 28 32 34 37 36 30 31
11 9 8 16 22 24 23 20 18 14 11 8 5 2 1 4 7 10 13 16 19 21 24 25 26 26 27 26 27 27 26 27 26 28 30 30 32 34 37 37 33 29 32
7 10 19 25 26 24 24 22 17 13 10 7 4 1 3 5 8 12 15 18 21 23 25 25 27 28 29 26 27 26 27 26 28 28 27 29 35 35 39 38 33 35 31
17 18 25 25 25 23 21 19 15 11 9 5 2 1 4 7 10 13 17 20 22 23 24 27 26 27 27 27 25 26 27 27 28 28 26 30 33 39 39 38 37 28 32
19 24 23 21 22 20 19 18 13 10 7 3 1 2 5 8 11 15 19 21 21 23 25 26 27 26 25 26 26 29 30 27 29 28 29 30 36 39 39 40 29 34 40
16 20 20 21 18 16 17 14 12 8 5 2 1 4 7 11 14 15 19 19 21 23 25 25 24 23 24 25 28 29 30 32 30 30 31 36 38 40 37 33 37 36 36
15 19 19 20 15 13 12 13 10 6 3 1 3 7 10 14 14 17 18 21 21 22 22 20 21 23 24 26 27 29 31 34 34 32 38 35 35 33 32 32 34 33 29
13 20 20 17 15 12 11 12 8 5 2 3 6 10 12 13 16 19 19 21 23 22 20 19 21 22 24 25 27 28 30 30 32 33 28 30 30 30 30 30 29 28 28
13 17 16 17 15 12 10 8 6 3 4 6 8 10 11 15 18 20 20 22 23 21 24 23 24 23 24 26 33 34 34 36 35 37 25 27 27 27 28 28 29 29 29
14 12 15 19 16 13 10 6 4 3 5 6 8 11 13 18 20 21 25 20 19 22 23 24 24 26 27 30 32 34 36 37 34 27 25 24 25 25 27 28 29 29 29

GFSMW_925_spd_021.txt.gz
Wind_Speed
8 15 13 10 12 11 13 17 26 30 30 31 29 27 25 22 19 17 13 12 12 11 9 9 10 10 10 12 13 14 17 16 23 11 21 10 6 15 19 36 17 30 20
8 9 15 14 15 14 15 19 22 24 26 27 24 26 25 20 19 17 15 13 12 11 12 10 11 10 10 11 12 15 15 9 19 12 8 4 7 9 39 18 28 20 26
14 9 11 18 19 20 22 24 25 28 27 26 26 26 25 22 19 15 14 12 12 12 11 11 10 10 10 12 12 13 15 13 16 19 5 4 3 14 6 29 15 29 31
11 10 12 16 20 19 21 23 26 29 28 26 29 29 26 21 16 14 12 10 10 12 11 10 10 10 10 11 12 13 14 15 17 19 11 13 14 4 6 7 33 22 28
18 15 14 21 20 20 22 23 23 24 26 26 25 25 22 19 18 15 13 9 8 10 10 10 9 10 11 11 12 14 15 16 15 16 20 21 21 16 5 11 8 26 25
14 14 20 27 23 23 24 26 28 26 26 26 25 24 23 21 18 14 12 8 6 8 10 10 9 9 10 11 13 14 15 16 16 17 17 18 13 12 12 12 13 16 24
17 17 16 16 22 24 25 26 27 26 26 25 24 21 19 17 15 11 9 6 5 8 10 10 10 10 11 12 13 15 16 18 18 20 23 23 21 22 22 20 17 12 26
16 16 15 18 22 25 24 26 26 25 23 22 21 19 17 16 13 10 8 7 7 7 8 9 9 11 12 13 15 17 18 20 21 23 22 20 25 26 25 23 19 15 15
16 16 15 21 25 25 27 27 26 24 22 20 19 18 15 13 12 9 7 7 6 6 8 9 11 13 14 16 17 19 21 22 22 24 19 24 25 25 27 27 24 17 15
16 15 14 20 25 27 27 26 24 24 21 19 18 17 15 12 10 7 7 6 5 7 9 11 13 15 17 18 19 22 23 22 26 17 24 25 25 26 25 25 24 24 21
16 15 14 21 26 29 29 27 25 24 21 19 17 16 14 10 7 6 5 5 5 8 10 12 15 17 19 21 22 22 21 25 18 24 24 25 26 25 26 26 25 24 21
14 14 14 20 23 26 28 28 25 22 21 18 16 15 12 8 6 4 4 5 7 9 12 14 17 19 22 23 23 23 27 19 24 25 25 26 26 27 27 26 25 24 27
15 15 13 13 20 23 28 27 25 22 21 18 16 13 10 7 4 3 4 6 9 11 14 16 19 21 24 24 25 24 21 25 24 22 24 27 27 27 28 27 28 27 26
17 15 13 12 19 23 26 26 25 22 20 18 15 12 8 5 3 3 5 7 10 13 16 19 21 22 24 25 23 25 27 25 22 23 27 27 27 27 30 29 27 26 29
16 17 16 13 17 22 26 27 25 22 20 17 13 9 6 3 2 3 6 9 11 14 17 20 21 23 25 21 25 27 26 25 25 26 27 25 26 28 29 30 32 33 31
15 14 15 14 17 22 24 28 26 21 18 15 12 8 5 2 2 5 7 10 14 16 19 21 22 25 25 24 25 25 27 27 25 26 27 27 27 28 31 34 36 35 34
14 16 16 15 20 24 30 29 26 22 17 14 10 7 4 2 3 6 9 12 15 18 20 23 24 25 27 25 26 26 28 27 29 29 29 28 27 29 30 36 35 34 35
15 14 12 17 23 28 30 30 25 21 17 13 9 5 2 1 4 8 10 13 17 19 21 24 25 26 27 24 25 27 27 26 25 26 27 27 28 29 35 37 35 32 26
9 11 19 25 28 30 32 28 23 19 15 11 8 4 0 3 6 9 12 15 18 21 23 25 26 26 25 25 25 27 25 26 27 25 23 28 30 33 39 38 30 28 23
17 21 25 28 32 29 31 27 22 17 14 10 6 2 1 4 8 11 14 16 19 22 24 25 23 23 24 23 25 25 26 25 26 26 25 26 32 38 38 36 31 25 32
21 25 24 24 28 29 27 23 19 15 11 7 4 1 2 6 9 13 14 19 21 23 24 24 25 24 21 24 24 25 26 24 26 25 27 29 37 34 38 36 30 32 36
18 23 23 23 25 23 23 20 16 13 9 6 3 1 4 7 9 12 18 21 21 21 25 27 26 22 22 22 25 27 27 28 27 25 30 34 31 37 35 32 31 33 32
17 20 22 22 19 21 19 19 14 11 7 5 2 2 5 8 10 16 18 19 20 23 25 24 21 20 22 24 25 28 27 29 31 28 33 27 33 32 28 30 31 30 28
15 21 23 20 19 17 15 15 12 9 6 4 1 3 7 10 14 16 17 18 22 24 22 19 20 22 22 23 27 27 29 29 27 28 23 29 29 27 28 29 28 26 26
17 21 19 19 19 18 16 12 10 7 5 2 2 6 10 12 15 16 17 19 18 19 22 22 22 23 24 26 32 32 33 33 32 33 26 26 26 26 26 26 27 28 28
19 19 19 20 18 16 13 10 8 5 3 3 6 9 11 14 14 19 23 20 16 19 19 20 22 25 25 29 31 32 32 33 31 25 23 23 23 24 26 26 28 28 29

GFSMW_925_spd_024.txt.gz
Wind_Speed
5 12 13 12 12 12 12 15 20 25 32 33 30 29 26 23 20 18 14 12 10 9 7 7 7 7 10 11 11 11 13 10 21 10 19 9 5 10 13 20 18 23 18
7 7 12 13 14 14 15 21 27 30 32 32 28 29 28 22 21 19 16 13 11 10 9 8 8 9 9 10 11 13 12 8 16 9 5 4 7 6 33 8 26 13 30
13 8 8 15 17 18 21 25 28 29 31 30 31 29 26 25 23 19 17 13 11 10 9 8 8 9 9 10 11 12 13 11 10 11 8 4 3 9 3 23 9 29 17
8 6 7 12 22 22 23 26 29 29 29 30 31 31 28 25 20 18 16 13 10 9 8 7 8 8 9 9 10 10 12 13 12 9 11 6 10 3 5 7 28 14 28
17 15 12 18 24 26 27 29 31 31 29 27 28 28 26 24 21 18 15 11 9 8 8 7 7 8 8 9 10 12 13 13 13 14 13 12 16 12 5 10 9 25 25
13 10 14 20 24 27 29 29 30 27 27 27 27 28 28 26 23 18 14 9 7 6 7 7 7 7 8 10 11 12 13 14 14 14 16 16 7 9 8 9 12 14 21
17 15 15 14 20 27 31 29 31 28 28 28 27 26 25 23 20 16 12 8 5 5 6 6 7 8 9 10 11 13 14 15 16 16 17 15 13 18 18 18 16 9 24
17 17 15 18 20 27 31 31 32 30 30 29 26 24 22 20 17 13 10 7 5 4 5 5 6 8 9 11 12 14 16 16 16 18 15 14 20 21 22 19 17 14 11
19 17 14 20 22 26 31 34 33 31 30 29 26 23 20 18 16 12 9 6 4 3 4 5 8 10 11 13 15 16 17 17 19 17 14 21 25 24 23 22 21 14 13
16 15 14 18 20 27 31 31 31 30 28 27 24 22 19 16 13 10 7 5 3 3 5 7 10 12 13 15 17 17 18 18 19 14 21 22 25 25 22 22 22 21 19
17 15 12 18 22 29 31 30 29 29 26 25 23 21 18 15 11 8 6 4 2 4 7 9 11 14 16 17 18 19 20 19 16 21 18 22 25 23 24 24 23 23 22
16 14 14 19 21 25 29 30 29 28 25 23 22 19 16 13 9 7 4 3 3 5 8 10 13 16 18 20 21 21 18 19 22 22 19 23 24 26 25 24 25 26 27
15 13 13 13 19 21 26 29 28 27 25 23 21 18 14 11 8 5 3 3 5 7 9 12 16 18 19 21 21 18 21 23 23 22 21 23 27 25 25 28 27 25 24
16 14 13 12 18 21 25 29 27 27 25 22 19 16 12 9 6 3 2 3 6 9 12 15 17 18 20 21 18 22 24 25 25 23 22 24 26 27 27 26 27 25 29
15 15 14 12 16 20 25 28 28 27 24 21 17 14 10 7 4 2 2 4 7 10 13 16 18 20 21 18 22 24 25 26 27 25 26 26 25 28 29 30 30 32 30
16 15 14 14 16 22 24 28 29 26 23 20 16 12 9 6 3 1 3 7 10 13 15 17 19 20 22 21 21 23 26 27 27 27 26 29 25 27 30 33 34 34 35
17 16 16 15 20 22 30 30 30 26 22 18 14 11 7 4 1 2 5 8 12 15 17 18 20 21 23 20 22 23 26 25 24 26 28 28 24 28 30 33 35 35 35
15 14 12 16 21 26 28 32 29 25 21 17 13 9 6 3 2 4 7 10 14 16 18 19 20 20 22 21 22 25 24 27 27 27 25 25 27 29 34 36 33 25 31
10 13 20 23 27 30 33 32 27 23 20 16 12 8 4 1 2 6 9 12 15 17 18 20 20 21 22 21 23 24 26 24 26 25 23 26 28 33 36 35 30 28 27
16 20 24 27 29 28 34 31 26 22 18 14 10 6 3 1 4 8 11 13 15 17 18 21 21 21 23 22 22 23 25 24 26 25 23 23 30 35 32 37 30 27 32
20 24 24 24 27 33 32 26 23 19 15 12 8 5 2 3 6 9 11 14 16 18 20 22 22 22 21 21 21 22 24 24 25 24 25 27 31 32 36 34 27 29 34
19 22 24 23 28 29 27 25 20 16 13 10 7 4 2 4 6 9 12 14 15 19 22 23 24 21 21 21 21 23 25 26 26 24 28 28 32 35 32 27 28 31 30
18 21 26 26 24 23 24 23 18 15 11 9 6 3 3 4 7 10 13 16 19 20 21 21 19 19 21 21 22 23 25 26 27 26 30 28 31 28 26 26 28 28 26
17 22 24 20 20 19 19 19 16 12 10 7 4 3 4 6 9 10 13 15 17 18 20 17 17 19 19 21 24 24 26 23 23 27 22 26 26 25 26 26 26 25 26
18 22 21 21 20 20 19 15 12 10 9 6 3 3 5 8 10 12 14 15 15 16 19 20 20 20 20 21 27 29 29 29 30 31 22 23 24 25 25 26 26 26 26
20 20 22 23 21 19 16 13 10 7 6 4 3 4 7 9 11 14 18 18 13 16 16 17 18 21 21 25 27 28 29 31 28 22 20 22 22 22 24 25 26 26 27

GFSMW_925_spd_027.txt.gz
Wind_Speed
7 10 13 13 12 13 16 17 20 27 32 32 31 31 30 25 21 18 16 13 11 10 8 7 7 8 10 11 12 12 13 12 21 11 21 9 5 9 8 24 15 20 16
6 7 12 13 14 16 16 18 22 29 33 34 31 32 33 25 22 20 17 15 13 10 9 8 9 9 9 10 12 13 12 11 17 10 4 4 7 4 13 21 19 13 25
11 8 9 17 16 18 18 22 26 30 31 34 32 32 27 27 24 20 19 16 12 10 8 8 8 9 9 10 10 12 13 11 10 9 7 4 3 7 4 13 10 21 15
9 9 7 11 20 19 20 24 27 30 32 33 36 36 31 24 20 21 19 16 11 10 8 8 7 7 8 8 9 10 11 10 9 8 7 5 9 3 5 4 22 11 28
13 12 13 17 24 24 25 27 29 31 32 33 34 31 30 27 26 22 19 15 12 9 8 7 6 7 7 7 8 9 10 10 9 9 8 9 13 10 4 9 9 26 25
13 9 11 18 22 24 28 29 32 31 30 29 28 29 31 32 28 22 18 14 11 8 7 6 6 6 6 7 8 9 9 10 11 11 10 11 4 6 6 6 12 15 23
13 15 15 12 20 27 30 31 32 28 26 26 26 29 30 29 26 21 17 14 10 7 6 5 5 5 6 7 9 10 11 11 12 12 14 9 10 15 19 16 16 8 24
14 17 18 16 20 26 31 30 32 30 28 27 27 26 26 24 21 17 14 11 9 6 5 4 4 5 6 8 10 11 13 13 13 15 11 11 15 18 19 17 17 12 7
15 17 16 17 21 25 29 33 33 31 30 29 28 26 24 22 20 16 13 10 8 6 4 3 4 6 8 10 12 13 14 15 15 16 12 17 18 19 21 20 19 12 10
15 14 13 18 20 26 30 30 32 33 31 30 28 26 23 19 17 14 12 9 7 4 3 4 5 8 9 11 14 15 16 16 16 15 17 19 19 20 21 22 21 19 18
17 15 13 17 22 28 30 31 32 33 31 29 27 25 22 18 15 12 10 7 5 3 4 5 8 11 13 14 16 17 16 16 19 20 20 20 20 21 24 25 23 21 20
13 14 14 18 21 23 27 30 32 32 30 28 26 24 20 16 13 10 8 6 4 4 5 7 10 13 14 16 17 15 16 19 22 22 22 21 23 24 27 27 24 24 26
14 13 13 12 17 21 25 29 30 30 28 27 25 21 18 14 11 9 7 5 4 4 6 9 12 14 15 17 16 16 19 21 21 22 23 24 25 27 28 28 27 26 24
15 14 12 11 16 20 24 28 29 29 28 25 22 19 16 12 10 8 5 4 4 6 9 10 12 13 15 16 16 18 20 21 22 22 22 23 23 26 28 25 26 23 28
14 13 13 11 15 19 23 27 29 29 27 24 21 17 14 11 9 6 4 4 5 8 9 11 12 14 16 18 18 19 21 22 21 21 23 25 22 24 25 28 30 32 28
14 13 13 13 14 21 23 27 30 29 26 23 19 16 13 10 7 5 3 4 6 8 10 11 14 17 18 18 18 19 22 21 23 26 27 26 23 23 28 30 31 32 34
15 15 15 14 19 22 28 29 32 29 25 22 18 15 12 10 6 4 3 4 6 10 12 14 16 17 18 17 18 19 21 22 24 26 28 28 24 28 31 32 34 35 24
13 12 11 16 21 26 28 32 31 28 24 20 17 14 11 8 5 3 3 5 8 12 13 15 16 18 19 18 19 20 22 24 25 27 27 27 29 29 32 35 25 31 28
11 12 20 22 27 29 32 33 29 26 23 19 16 12 9 7 4 2 4 7 10 12 13 15 18 18 19 19 19 21 24 26 26 25 23 22 25 30 34 32 30 28 29
16 20 24 26 28 28 34 32 28 25 21 18 14 10 7 6 3 4 5 8 10 13 14 17 16 18 18 19 19 20 24 23 24 21 22 20 29 33 31 34 29 24 31
19 25 23 23 26 31 33 28 26 21 18 16 12 10 7 4 4 4 6 9 11 14 16 17 18 17 19 21 19 20 23 25 24 24 23 26 29 32 34 32 25 28 33
17 21 23 22 26 31 32 26 23 19 17 15 12 9 6 4 3 6 8 10 13 15 16 18 21 20 22 20 19 21 23 26 27 23 27 28 32 33 31 27 26 30 29
18 20 25 25 26 27 28 26 21 19 16 13 11 8 5 3 5 8 11 14 14 15 17 19 18 21 22 20 21 21 23 26 25 25 30 30 30 28 26 25 27 26 24
18 23 25 22 22 21 22 24 20 16 14 12 9 6 4 4 6 7 10 12 14 16 19 17 17 22 21 21 23 21 26 21 23 25 23 26 24 23 24 25 24 23 23
18 21 22 21 22 23 22 19 16 14 13 10 7 4 4 6 8 9 10 12 13 14 17 19 20 20 18 20 25 26 26 27 27 29 22 22 22 23 23 24 24 25 25
20 21 23 26 24 23 20 16 13 11 10 8 5 5 6 8 9 11 14 13 10 14 14 16 17 20 20 23 25 26 27 28 25 21 19 20 21 21 23 24 26 26 27

GFSMW_925_spd_030.txt.gz
Wind_Speed
12 18 18 13 13 15 13 13 19 25 32 33 33 29 31 28 26 23 19 16 15 13 11 10 7 6 8 11 11 10 12 15 21 12 19 7 6 5 9 11 19 11 16
7 7 11 13 17 17 17 16 21 28 32 34 32 33 34 27 27 22 19 16 16 15 13 10 9 8 8 10 12 14 11 11 18 11 3 4 6 6 18 24 10 19 18
12 8 8 19 18 19 20 21 23 30 32 33 33 34 28 28 26 23 21 18 16 15 12 10 9 9 9 12 13 13 13 11 12 11 8 3 2 6 6 11 18 12 26
9 8 8 11 22 22 19 21 25 29 30 34 38 43 31 26 21 27 24 20 15 14 11 9 9 9 10 11 11 11 11 10 11 6 9 3 7 3 5 4 18 10 28
15 13 12 21 26 22 22 22 25 28 31 35 39 37 30 21 31 28 24 20 17 13 11 9 9 9 9 9 9 9 10 10 8 7 5 5 11 7 4 7 8 27 25
10 12 12 18 22 21 23 25 28 28 31 33 35 35 35 35 33 28 24 20 16 13 11 9 9 9 8 8 8 8 9 9 8 7 7 7 2 5 4 4 13 15 19
8 9 11 11 20 25 28 28 30 30 30 31 31 29 31 34 33 28 24 20 16 13 10 8 8 7 7 7 7 8 9 8 9 9 10 6 6 10 14 12 15 10 23
7 10 12 12 22 25 31 28 31 32 29 28 27 28 30 31 28 24 20 16 14 12 9 7 7 7 6 6 7 8 9 9 10 10 10 8 11 12 13 14 15 12 6
9 11 11 16 21 25 29 34 33 31 29 27 28 29 30 28 26 21 18 16 13 11 8 6 6 5 5 6 9 10 10 12 10 11 11 12 15 15 16 17 17 11 9
8 9 10 12 18 21 28 32 34 33 31 30 31 30 29 26 23 20 18 15 13 10 7 6 5 4 5 7 9 11 11 10 12 14 15 16 18 18 19 19 20 20 19
14 12 10 15 22 23 27 32 33 35 33 32 32 30 27 25 22 19 16 13 11 8 6 5 4 5 7 8 11 11 11 13 16 16 18 19 20 21 22 22 24 25 23
9 11 11 15 20 23 25 29 32 36 34 33 31 29 27 24 21 18 15 12 10 7 5 3 4 7 8 10 12 12 14 15 17 18 19 21 22 23 24 25 27 26 27
9 11 13 13 15 19 24 27 31 35 34 33 31 28 25 22 19 17 14 11 8 6 4 4 6 8 11 12 12 13 15 16 17 18 19 21 22 24 25 25 26 27 24
11 9 11 12 16 20 24 27 30 34 34 31 29 26 22 20 17 15 12 9 7 4 4 5 7 10 12 13 14 14 16 16 17 18 21 23 23 23 25 23 23 22 27
11 10 11 12 15 20 23 27 32 33 32 30 27 24 21 18 16 13 11 8 5 4 5 6 8 11 13 15 15 16 17 18 20 22 23 23 22 21 22 25 27 28 28
11 11 12 12 13 20 22 27 31 32 30 28 25 23 20 17 14 12 9 7 5 4 6 8 11 13 14 15 14 16 18 20 21 24 25 25 23 22 25 27 29 30 32
15 13 13 13 18 22 28 28 33 31 28 26 24 21 19 16 13 10 8 5 4 5 8 10 12 14 16 15 16 17 19 20 22 24 26 27 24 26 29 31 31 32 26
13 12 11 15 20 26 28 33 32 29 27 25 22 19 17 14 11 8 6 4 4 8 9 11 13 16 17 15 16 18 19 21 22 25 25 25 27 26 30 34 25 28 27
11 11 19 22 26 29 33 33 30 28 25 23 20 17 15 13 10 7 4 4 6 8 10 13 15 16 17 17 18 20 21 22 25 26 20 22 26 29 33 30 28 28 27
16 19 23 25 27 28 33 32 28 26 24 21 19 15 13 11 8 5 4 5 7 9 12 14 14 16 17 19 18 19 21 22 24 21 22 19 27 31 29 32 28 24 31
18 23 22 21 25 31 32 27 28 24 22 20 18 15 12 9 7 5 4 6 8 11 12 14 17 18 18 19 18 19 21 24 23 23 22 23 29 31 32 30 25 26 31
15 20 22 21 25 30 33 27 25 23 22 20 17 14 10 8 5 4 5 7 10 12 14 17 20 19 21 20 19 20 21 24 26 24 23 27 30 32 29 26 24 27 27
16 20 24 25 25 27 32 29 25 24 22 19 15 12 10 6 4 5 7 9 11 13 15 18 20 21 22 21 21 20 22 26 26 24 29 29 29 27 24 23 24 24 23
16 22 24 22 21 25 27 29 26 22 20 17 14 11 7 5 4 5 8 10 13 15 17 18 17 21 22 19 22 22 25 22 23 25 24 26 25 21 22 23 22 22 22
18 21 23 23 24 29 28 24 22 19 18 15 12 8 5 4 5 7 9 12 13 12 17 18 19 20 17 19 23 25 25 25 27 28 24 23 21 21 22 22 23 24 24
21 23 24 28 28 29 25 20 17 14 15 13 9 6 4 5 8 11 13 11 11 14 13 15 16 18 18 21 23 23 25 26 25 21 19 19 20 20 22 23 25 25 25

GFSMW_925_spd_033.txt.gz
Wind_Speed
15 20 24 22 18 19 18 18 20 25 28 31 32 27 28 26 26 27 27 24 21 18 17 15 12 9 6 8 7 6 8 13 17 9 9 4 4 2 6 8 14 6 13
14 12 18 19 20 21 19 18 20 25 28 30 25 23 31 26 28 28 25 23 20 16 16 14 12 9 8 9 9 9 6 9 15 7 2 4 2 4 8 11 5 13 11
17 16 13 18 21 21 24 21 22 26 29 32 32 30 28 29 25 25 24 21 20 18 15 14 12 10 9 9 9 10 9 6 9 13 5 2 2 7 6 7 9 9 15
18 19 14 15 22 28 25 22 23 28 30 33 36 43 30 26 21 30 27 24 20 18 15 13 11 10 9 9 9 9 9 7 6 4 6 2 2 3 5 4 10 7 21
17 19 16 22 27 27 27 25 25 28 31 34 37 33 28 23 32 31 28 25 22 18 15 13 11 10 9 9 8 7 7 7 5 4 3 2 4 3 5 8 11 22 20
14 14 13 17 16 25 25 25 28 28 31 34 35 36 39 37 36 33 30 26 23 19 15 13 11 10 8 7 6 6 6 6 5 4 3 2 3 4 6 6 15 18 17
9 9 10 11 16 23 27 27 28 28 30 32 33 34 35 39 41 36 34 30 24 20 16 13 11 9 7 6 5 5 6 6 5 5 5 5 5 7 10 14 17 11 24
7 9 12 11 19 23 27 26 29 29 29 30 31 31 34 35 35 34 32 26 23 20 16 13 10 8 6 4 4 5 6 6 7 6 8 8 8 9 11 13 17 14 12
10 11 11 14 19 22 27 31 32 30 31 31 32 31 32 33 35 32 27 25 22 19 15 11 9 6 4 3 5 6 6 7 6 7 9 10 11 13 13 14 14 15 12
9 9 11 14 19 20 21 25 30 33 32 32 32 33 35 35 33 30 27 24 21 17 14 10 7 5 3 4 5 7 7 7 9 9 11 12 13 14 15 15 16 17 21
10 9 10 13 17 20 23 24 30 34 32 34 35 38 37 33 30 28 24 22 19 15 12 9 6 3 3 4 6 7 7 9 10 11 11 13 14 14 15 16 17 19 21
3 7 10 14 20 21 22 24 27 30 33 37 40 38 36 32 29 26 22 19 17 14 10 7 4 3 3 5 7 7 8 10 11 12 13 14 14 16 17 18 19 20 22
6 9 12 12 16 21 23 25 28 31 36 38 39 36 34 31 27 24 21 17 15 12 9 5 3 3 5 5 6 7 9 11 12 13 14 15 16 17 17 18 20 22 24
7 9 10 12 17 22 24 25 28 33 37 38 37 35 31 29 26 22 19 16 13 10 7 4 3 4 6 7 8 9 12 12 13 15 17 17 16 18 19 20 21 21 25
8 9 11 12 16 21 23 26 30 35 37 36 34 31 29 26 24 21 18 15 11 8 5 3 4 6 7 9 10 11 14 15 15 17 19 16 18 20 21 23 24 26 26
9 11 12 14 15 22 24 27 29 32 36 34 33 30 28 25 22 19 16 12 9 6 4 3 5 7 10 11 10 12 13 15 14 17 18 19 22 21 21 24 25 26 29
12 13 14 13 17 22 27 27 30 35 34 33 30 28 26 23 19 16 13 10 7 4 3 5 7 10 11 11 12 13 14 14 16 18 20 21 19 22 22 25 27 29 22
12 13 12 16 20 24 25 32 33 32 32 30 28 26 23 21 17 14 11 8 5 3 4 6 9 11 12 12 13 15 14 15 17 20 22 20 21 21 25 30 25 24 27
11 12 18 21 24 26 30 32 29 30 30 28 26 23 21 19 16 12 9 6 4 4 6 8 10 12 14 14 14 15 15 16 18 21 20 19 21 25 29 27 27 29 28
17 20 23 23 24 24 31 30 25 26 25 26 24 21 18 16 13 10 7 4 4 5 8 9 10 13 14 15 15 15 16 17 19 20 18 19 23 28 27 29 27 24 29
20 23 23 22 23 28 31 25 24 21 26 26 23 20 16 14 11 8 5 3 4 7 9 12 14 14 13 16 15 16 17 18 21 21 23 22 26 28 30 29 25 24 29
17 21 22 21 22 28 31 24 24 27 27 25 22 18 15 12 9 6 4 4 7 9 11 13 17 17 18 17 16 17 17 20 22 22 23 25 28 30 29 25 23 25 25
16 19 24 24 22 24 31 29 28 29 27 23 20 17 13 9 6 4 4 6 8 10 11 12 13 16 17 20 19 17 19 22 22 21 25 27 27 27 22 20 23 21 19
16 22 25 22 21 26 29 33 30 27 24 22 18 14 10 7 5 4 5 7 9 10 11 13 15 17 18 17 17 18 21 22 19 22 19 23 24 20 20 20 18 19 19
19 21 23 23 23 31 32 29 26 23 22 19 15 11 8 5 4 5 6 8 10 10 14 14 15 17 18 18 22 23 24 23 24 26 21 20 19 20 20 20 21 21 21
22 24 24 27 26 31 28 23 20 19 20 17 12 8 6 4 5 7 9 9 9 11 11 13 14 17 18 20 22 22 22 25 23 22 17 18 18 19 21 22 24 24 23

GFSMW_925_spd_036.txt.gz
Wind_Speed
20 24 23 21 19 20 20 19 16 15 18 21 24 25 24 18 18 18 22 27 26 23 18 16 10 11 8 7 5 4 5 6 10 6 4 3 1 4 6 5 6 3 6
24 23 26 27 23 21 20 19 18 18 21 20 22 21 19 14 22 23 23 25 25 22 19 15 12 12 10 8 7 5 2 4 9 6 4 3 3 0 5 9 3 8 6
24 23 24 28 26 23 21 19 18 19 21 21 20 18 17 19 16 20 24 22 24 22 18 17 13 12 10 9 7 6 4 4 5 6 4 2 2 9 5 4 9 5 12
20 22 22 25 29 26 21 19 19 21 22 25 23 25 22 22 19 21 23 25 22 20 18 17 13 11 10 9 7 6 5 3 3 1 3 2 3 3 5 4 9 9 15
16 19 20 26 26 25 22 21 21 22 23 25 23 24 21 20 23 20 25 26 24 21 15 14 13 11 10 9 7 6 4 3 1 2 3 3 5 5 5 9 9 19 18
12 15 19 20 23 23 20 22 24 24 23 25 24 27 28 29 28 25 30 29 23 18 13 14 12 10 10 8 6 5 3 2 0 1 3 4 5 7 8 8 14 18 21
13 13 13 14 19 21 21 23 24 24 25 25 26 26 27 28 31 32 35 24 25 17 15 14 12 10 9 7 5 4 2 1 2 3 4 5 7 9 12 15 16 14 23
12 13 13 12 18 23 25 25 26 24 25 25 26 24 27 27 31 30 31 23 19 17 16 13 11 10 9 6 4 2 1 1 3 4 5 7 9 10 12 15 17 14 13
13 11 13 11 16 20 25 27 27 25 26 26 26 25 29 31 27 33 29 23 17 17 15 13 11 9 7 5 3 1 1 3 4 5 6 8 9 11 13 15 16 17 14
14 12 10 10 15 19 23 23 23 24 26 27 26 25 28 30 34 33 28 21 18 17 15 12 10 8 6 4 2 1 2 3 5 6 8 10 11 13 14 15 17 19 22
14 13 9 9 13 17 21 23 24 26 26 25 25 27 32 34 32 26 21 20 18 16 14 12 9 7 4 2 1 2 3 5 6 8 10 11 12 14 15 17 18 20 22
11 10 5 7 13 18 21 24 25 25 25 26 28 29 34 32 26 23 20 19 18 15 13 10 8 5 3 0 1 3 5 7 8 10 10 12 13 15 16 17 19 21 23
7 3 3 8 11 18 22 24 24 25 26 29 32 35 30 26 23 22 20 18 16 14 11 8 6 4 1 1 3 5 7 9 10 11 12 14 15 17 17 19 20 22 24
4 2 5 9 13 19 23 25 25 25 29 31 33 31 28 25 23 20 18 17 14 13 10 7 5 2 0 2 4 7 9 11 12 13 14 15 16 17 19 21 23 24 25
3 5 7 10 13 20 22 25 26 27 30 31 29 26 26 23 21 19 17 15 12 10 8 6 3 0 2 3 6 8 11 13 14 15 16 17 17 19 20 22 23 25 26
5 7 9 12 13 20 22 26 27 28 30 30 27 26 24 22 20 18 15 13 11 9 6 4 1 2 3 7 7 9 12 14 15 17 17 18 19 19 20 23 24 26 27
8 10 12 12 16 20 26 27 28 29 29 27 24 23 23 21 18 16 14 11 9 7 5 2 1 3 5 8 8 11 13 15 16 17 18 20 19 20 22 23 26 27 27
10 12 12 13 19 24 26 30 29 27 26 24 23 21 21 19 17 14 12 9 7 5 3 1 3 4 6 9 10 12 14 15 16 17 19 20 21 21 23 28 27 25 28
12 13 18 20 23 25 28 29 26 25 24 23 21 20 19 18 15 12 10 7 5 3 1 2 4 6 8 10 11 13 14 15 17 17 19 19 22 21 26 28 26 30 29
16 19 21 23 25 24 27 27 25 24 22 21 20 18 16 15 13 11 8 6 4 1 1 3 5 7 9 9 11 12 14 16 17 19 21 21 20 24 26 28 30 28 29
20 21 21 22 23 24 25 24 23 21 21 21 19 16 14 13 11 9 6 5 2 1 3 5 7 8 8 10 12 13 15 16 20 22 22 22 23 26 29 28 28 26 29
18 20 21 21 21 23 26 24 22 21 22 21 18 16 13 11 9 7 5 3 2 3 5 7 9 8 10 11 12 14 14 17 21 23 22 25 27 29 29 27 22 24 26
16 18 23 23 20 19 22 25 21 24 22 20 17 14 12 9 7 5 3 1 3 5 6 9 11 13 13 13 13 15 17 19 22 21 23 27 26 27 23 20 22 20 18
17 21 23 23 21 20 24 28 25 25 22 18 15 12 10 8 5 4 2 2 4 6 8 10 12 14 15 15 15 19 21 21 21 22 25 25 24 20 20 19 17 17 18
19 20 22 23 23 23 25 24 23 19 18 15 13 10 7 5 4 2 1 3 4 5 10 11 13 15 16 16 19 21 23 22 23 27 24 20 19 19 18 18 19 19 20
21 23 23 25 23 23 21 18 16 16 16 14 10 7 5 3 2 3 4 5 4 6 7 9 10 15 16 17 20 20 21 22 23 21 17 16 17 18 19 20 21 22 22

GFSMW_925_spd_039.txt.gz
Wind_Speed
20 25 25 26 30 33 32 30 26 24 22 22 22 22 23 22 22 21 19 19 18 23 20 17 14 8 8 8 6 5 3 4 8 5 4 5 4 5 6 6 6 7 6
23 23 29 30 31 32 33 31 29 25 23 22 22 20 20 24 21 16 17 19 20 22 22 18 14 11 10 9 7 4 4 4 8 4 4 2 4 3 3 6 8 6 8
24 23 24 30 30 33 31 30 30 26 25 23 21 18 20 21 18 19 19 19 24 24 23 19 16 12 10 10 8 6 5 4 3 5 4 2 2 7 5 6 7 7 8
20 21 22 22 30 31 31 29 28 26 26 26 25 27 21 20 16 26 22 22 21 23 19 18 17 13 10 10 8 6 5 3 2 1 3 2 3 2 4 2 7 9 9
13 15 17 21 27 26 29 27 25 25 25 28 26 26 21 19 24 26 24 22 23 22 20 17 15 13 10 9 8 6 5 4 2 1 2 3 4 7 5 6 7 16 15
9 10 14 19 21 25 21 25 24 26 25 27 26 27 25 26 28 29 26 28 23 22 19 16 14 12 11 10 8 6 5 3 2 1 2 4 4 6 7 7 12 15 18
7 13 14 13 17 19 24 21 24 25 26 26 26 26 26 27 29 32 30 30 25 23 21 18 16 12 11 9 7 5 3 2 0 2 4 5 7 9 11 13 13 11 19
12 6 13 13 16 20 23 24 26 26 26 26 25 25 25 25 25 27 28 25 26 24 23 17 14 13 11 9 7 4 3 1 1 3 4 6 8 9 11 12 13 10 11
9 10 10 12 19 19 23 26 27 27 26 26 25 24 24 25 27 26 26 25 24 24 20 18 15 13 10 8 6 3 2 2 3 4 6 8 9 10 12 13 15 14 9
9 9 9 12 17 19 22 26 27 26 26 26 23 23 23 23 29 29 30 27 24 21 20 16 14 12 9 6 4 2 2 2 4 6 8 10 10 12 13 15 16 17 18
10 12 12 14 12 16 20 23 24 25 26 26 24 24 24 27 31 32 30 27 22 20 17 14 12 10 8 5 3 1 2 4 6 8 10 11 12 14 15 16 17 19 19
12 10 12 9 7 12 18 22 23 25 26 27 26 25 27 30 31 30 27 24 22 16 15 13 11 8 6 4 2 2 4 6 8 10 11 13 13 15 16 17 18 19 22
12 9 8 6 5 11 16 21 24 25 25 27 27 28 29 30 31 30 26 22 20 16 14 12 9 7 4 2 1 3 6 8 10 11 13 14 15 16 17 18 19 21 22
8 8 5 6 9 13 17 21 23 24 26 28 30 30 29 30 29 27 24 22 19 16 13 10 8 5 3 1 2 5 8 10 12 13 14 15 16 18 18 19 21 22 23
6 5 4 7 10 15 19 21 21 25 27 29 30 30 30 30 27 23 21 20 18 15 12 9 6 3 1 1 4 6 9 12 14 15 16 16 17 18 20 21 20 23 23
3 4 6 9 11 15 17 20 23 25 29 31 31 31 29 27 24 23 21 17 17 13 10 7 4 1 1 6 7 8 10 13 15 16 16 18 19 18 19 21 22 23 26
6 7 9 11 13 16 19 21 26 28 30 32 30 29 27 24 22 21 20 16 13 10 7 5 2 1 3 9 8 9 11 14 15 16 17 18 18 20 20 21 23 24 29
9 9 10 13 17 21 22 25 27 30 31 30 28 26 25 23 20 19 16 13 10 8 5 2 1 3 5 11 10 11 13 14 16 17 18 19 20 19 22 22 24 25 27
10 12 15 19 22 24 24 27 28 29 28 26 26 23 22 21 17 16 13 10 8 6 3 0 3 5 6 10 10 11 13 15 17 17 17 19 21 21 22 26 26 27 27
17 18 21 24 25 22 24 26 26 25 23 22 21 20 19 18 16 14 12 8 6 4 0 3 5 7 8 8 9 12 14 16 17 18 20 20 21 21 24 27 26 27 27
18 21 22 23 24 25 24 24 24 23 22 22 22 20 19 18 15 12 9 7 4 1 3 5 7 8 8 9 10 12 14 15 18 19 20 20 22 25 29 28 27 27 29
18 20 20 21 22 22 24 24 24 23 24 24 22 20 16 13 12 11 8 5 2 2 5 6 8 8 8 10 11 13 14 16 20 21 21 22 25 30 28 27 24 24 26
16 19 22 23 21 21 23 27 22 23 25 24 20 16 15 12 10 8 5 1 2 4 6 7 9 10 11 12 12 14 17 20 22 22 23 27 29 27 23 21 23 20 18
16 20 21 21 21 20 22 26 26 25 24 20 17 14 13 10 7 5 3 2 3 5 6 9 11 12 13 13 13 17 20 21 21 23 25 26 24 19 19 19 18 18 18
16 17 19 20 21 22 23 23 25 22 19 17 15 12 9 6 4 3 1 2 2 4 7 8 10 13 14 15 18 20 22 22 22 27 23 20 17 17 18 17 18 19 20
18 19 20 23 22 23 23 19 17 17 17 15 11 8 6 4 2 1 2 5 6 9 8 7 8 12 14 16 18 20 22 22 24 19 16 16 17 17 18 19 21 22 23

GFSMW_925_spd_042.txt.gz
Wind_Speed
11 21 24 24 24 28 29 34 31 31 31 28 30 30 31 25 28 28 29 31 28 25 26 24 22 17 15 12 10 9 5 3 4 1 1 4 3 3 5 7 6 6 7
12 14 21 24 30 28 27 27 27 29 38 34 30 27 27 25 30 31 29 31 28 27 26 25 23 20 19 15 11 8 6 3 6 3 1 2 1 4 6 8 8 8 6
14 15 15 22 26 29 31 28 28 29 31 34 30 25 27 26 28 30 29 27 26 27 26 25 24 20 19 17 12 10 7 6 4 5 3 2 1 4 1 8 6 6 7
13 14 14 14 21 28 32 35 32 32 31 35 31 35 29 24 27 36 32 28 26 25 26 26 22 21 19 17 13 10 9 7 6 4 3 2 1 1 3 2 2 9 6
9 10 11 18 28 26 20 35 37 32 32 37 32 35 30 23 31 32 32 28 26 25 25 24 23 20 18 17 13 11 9 9 7 5 3 2 3 5 4 4 4 16 20
4 4 4 7 11 20 27 24 29 36 29 33 31 35 34 32 32 32 32 30 29 27 26 24 22 20 18 16 14 11 9 8 7 5 3 2 1 1 2 2 4 11 16
2 3 6 6 13 18 18 23 20 29 28 30 27 32 29 33 34 35 34 32 30 29 26 24 23 20 18 15 12 10 8 7 5 4 4 3 4 5 8 10 10 5 14
2 3 3 6 14 16 21 21 18 22 27 30 29 28 30 31 31 32 34 32 31 32 27 23 21 19 16 15 11 9 7 4 3 3 4 5 5 6 8 9 9 5 5
5 3 4 7 16 22 19 21 23 21 26 29 27 27 33 32 31 30 33 34 30 30 27 24 21 19 17 13 10 7 4 3 3 3 4 6 6 8 10 11 12 10 5
5 3 6 8 19 26 22 23 23 26 26 28 25 32 32 31 30 33 31 28 30 29 28 24 21 19 17 13 11 7 5 4 3 4 6 8 9 11 13 14 14 15 17
5 4 4 8 20 28 14 22 22 21 26 25 31 34 34 34 32 31 32 33 31 29 26 22 19 15 13 11 9 6 4 2 3 5 8 10 11 13 13 14 17 19 20
3 4 4 6 17 18 9 18 22 24 28 31 33 33 34 31 32 31 32 33 30 27 24 20 17 14 11 8 7 5 2 3 5 7 10 12 13 14 16 16 18 18 20
6 4 6 4 10 8 5 15 23 27 33 32 33 31 32 29 30 33 32 30 29 25 24 22 17 14 9 7 5 2 2 4 7 10 12 14 15 17 17 17 17 17 21
12 5 2 4 9 7 13 20 27 29 30 30 30 28 28 29 31 31 29 30 28 25 20 18 15 11 9 5 2 1 4 6 9 12 14 15 16 18 17 17 22 20 21
14 5 5 3 1 11 16 23 27 30 30 29 27 27 30 31 32 30 28 26 25 23 20 17 12 9 6 4 0 4 5 8 11 13 15 15 14 16 19 20 19 21 23
4 7 6 2 5 15 16 22 27 27 29 26 27 29 32 32 32 32 31 27 23 20 16 12 9 6 4 0 4 6 9 10 12 16 16 17 17 16 17 19 21 21 24
4 7 6 11 14 16 19 21 25 28 26 26 28 29 31 30 28 27 26 24 19 19 15 11 7 4 0 3 6 7 10 13 14 16 18 19 18 18 21 21 22 23 22
7 7 10 14 18 19 21 23 23 26 24 25 28 28 29 27 26 25 20 18 17 16 12 8 4 2 3 5 8 9 12 13 14 16 18 18 19 19 21 24 23 23 26
11 11 18 20 21 22 23 24 25 25 25 25 28 27 26 24 22 25 20 16 15 12 9 5 3 2 2 6 9 10 13 14 15 16 17 18 22 22 22 24 26 25 27
17 18 21 23 24 22 25 25 25 26 23 23 26 29 28 25 19 19 18 14 10 9 6 4 3 3 6 4 7 9 13 16 17 18 21 19 19 22 23 26 26 23 23
19 21 23 23 24 26 29 26 24 23 26 28 25 22 23 24 20 17 14 11 9 7 4 4 5 5 5 6 8 11 13 15 19 20 22 21 22 24 25 27 25 25 28
18 19 22 20 22 25 27 25 21 24 26 27 27 24 22 20 17 15 12 9 7 6 5 5 4 6 7 9 11 12 13 16 21 22 22 24 24 27 27 25 23 23 24
17 19 20 21 20 23 23 24 22 28 28 27 24 22 21 18 14 12 10 8 7 6 5 6 8 9 11 11 10 11 15 19 21 22 23 25 25 26 22 21 21 21 22
15 19 20 20 20 20 20 23 27 26 26 24 23 20 19 16 13 11 9 7 5 6 8 9 10 11 12 12 14 18 20 20 22 22 23 22 22 18 19 20 21 22 21
17 17 18 19 20 23 24 23 24 25 26 23 20 17 15 13 10 8 7 6 6 8 8 7 9 10 14 15 16 19 20 22 20 24 22 22 19 20 19 19 20 21 22
19 20 20 22 21 22 23 21 21 22 23 21 17 14 13 10 9 8 8 7 6 8 8 7 8 11 11 13 17 19 20 20 20 17 17 17 18 17 19 20 23 23 24

GFSMW_925_spd_045.txt.gz
Wind_Speed
12 20 21 22 32 38 33 37 30 40 38 32 31 31 32 33 35 36 34 33 35 33 29 27 25 24 22 19 17 14 10 5 1 2 1 4 3 3 6 7 7 6 5
9 10 21 25 21 25 24 24 27 34 44 40 37 30 33 35 36 35 33 36 39 37 31 29 28 26 23 21 19 17 12 5 3 4 3 2 1 4 7 10 8 6 5
13 11 11 21 24 23 26 28 22 20 33 41 39 27 32 29 27 30 34 38 39 36 32 31 30 27 25 24 21 17 14 9 4 3 3 2 3 2 1 7 8 5 4
10 8 9 13 25 28 33 29 31 27 23 35 39 35 33 23 24 37 38 39 37 34 32 31 29 26 24 23 20 16 13 11 9 7 3 2 2 2 2 2 6 3 2
12 13 12 21 29 31 29 22 31 37 34 33 42 41 31 35 32 35 38 38 36 32 30 30 28 26 24 21 20 17 14 12 12 7 5 3 3 2 2 3 4 8 15
8 7 9 13 15 15 17 23 23 25 34 34 42 40 39 35 36 36 36 35 33 32 32 30 27 25 23 21 19 16 13 11 9 8 6 5 3 2 3 1 3 7 10
2 2 4 2 1 5 10 16 18 23 23 32 38 41 44 43 44 42 37 36 34 32 33 30 27 24 23 21 18 16 14 11 9 8 6 5 3 2 3 4 4 3 7
5 6 2 4 7 9 11 18 22 22 23 29 37 40 40 39 37 39 37 33 31 33 34 31 26 25 22 19 17 14 12 9 7 6 5 4 2 3 4 4 4 3 3
7 3 6 4 6 10 13 19 23 25 22 31 35 37 37 35 34 34 32 32 30 32 33 31 28 24 22 20 16 14 11 7 5 4 3 1 2 4 5 6 6 4 3
2 5 2 2 5 13 18 22 23 25 24 32 34 34 33 32 31 30 31 32 30 30 34 30 25 23 20 17 14 13 11 8 5 3 2 3 5 7 7 9 10 9 11
8 6 2 1 6 12 16 23 18 23 25 30 27 31 29 28 29 30 30 30 30 32 31 28 26 23 20 15 12 9 8 6 4 2 4 6 6 9 9 8 10 14 15
6 2 2 3 8 12 18 19 15 21 28 31 32 32 31 30 29 30 30 31 32 32 29 28 25 20 17 13 11 9 7 4 2 3 6 8 9 11 10 13 14 14 15
7 2 3 3 5 11 10 11 20 28 29 34 33 31 31 30 31 32 32 32 34 32 29 27 25 20 14 12 11 7 5 2 1 4 8 9 10 12 13 13 14 15 19
10 6 6 4 2 7 7 18 22 23 31 31 32 29 31 30 30 31 31 32 32 31 27 23 19 16 11 10 8 6 2 1 3 5 8 10 11 11 11 13 17 18 18
12 12 3 2 4 13 14 18 18 23 26 28 28 28 27 29 29 28 28 31 31 29 27 21 14 13 12 8 5 1 1 3 6 8 9 10 10 12 13 15 16 19 21
9 3 5 6 7 14 14 16 19 20 26 25 27 28 28 27 28 28 29 29 25 23 20 17 16 12 7 6 2 1 3 6 8 10 11 12 14 15 12 16 18 18 22
5 1 7 6 11 16 19 19 22 25 26 26 26 26 26 28 29 29 28 27 24 22 19 13 8 9 6 3 2 3 5 7 9 11 13 14 14 13 15 17 19 20 18
7 10 8 14 17 21 25 26 26 26 26 26 26 27 28 30 31 31 27 21 18 15 12 14 9 6 5 1 2 4 7 8 10 10 12 14 17 18 18 20 20 18 21
13 15 18 20 21 21 23 28 28 28 28 25 27 27 29 29 27 28 26 22 16 12 10 8 7 4 2 1 3 6 10 11 13 12 13 15 17 17 19 22 23 24 24
13 18 22 23 23 21 25 29 25 27 25 24 23 26 27 27 24 21 18 17 14 12 8 6 4 2 2 2 4 6 8 12 14 15 16 17 17 19 20 22 22 20 22
16 19 20 22 24 25 29 26 26 23 22 26 28 24 23 23 20 19 16 14 11 9 6 5 5 4 3 3 5 8 10 11 14 18 20 19 20 20 23 23 23 22 24
14 17 17 17 18 17 23 22 20 23 27 23 24 22 20 20 20 16 13 10 9 8 6 5 5 4 4 6 7 8 10 13 17 19 20 21 20 22 22 20 18 20 20
12 14 16 17 17 16 20 21 23 25 23 20 23 21 19 17 14 13 11 10 8 7 6 4 3 6 7 8 9 12 13 15 17 18 19 19 20 20 17 18 18 18 21
14 16 17 17 15 16 18 19 19 24 25 23 22 20 19 16 13 11 9 8 7 5 4 4 6 8 10 12 13 16 18 18 18 19 15 16 16 16 17 17 19 20 19
14 16 16 17 18 22 21 22 25 25 25 24 20 18 15 13 12 10 8 7 7 6 6 6 7 10 13 13 14 16 19 19 18 19 17 19 19 19 17 18 19 21 21
16 16 17 20 19 21 22 22 23 24 25 22 18 15 14 12 10 9 8 6 5 6 7 5 7 9 9 12 15 18 17 16 15 14 16 17 16 16 18 19 22 22 21

GFSMW_925_spd_048.txt.gz
Wind_Speed
15 19 25 24 28 35 35 30 28 32 38 33 32 32 37 38 36 37 38 38 35 34 33 33 32 29 27 25 21 18 15 11 8 7 4 6 6 7 8 9 9 7 6
11 9 22 26 23 21 21 29 33 28 41 36 38 32 39 41 39 36 41 41 39 37 36 37 35 31 27 24 23 22 17 7 9 6 4 1 3 7 8 9 10 8 8
17 15 11 21 27 26 23 22 22 23 31 38 33 34 31 29 34 36 40 41 43 42 40 39 37 33 30 28 25 23 19 12 8 8 4 2 4 1 4 8 9 8 8
11 12 9 14 27 30 29 26 24 21 23 34 34 34 32 22 29 41 42 43 42 44 41 39 37 35 31 27 26 23 19 15 12 7 4 3 4 3 1 3 8 7 8
8 9 9 20 28 26 26 27 25 28 25 30 39 39 29 27 35 39 41 41 38 39 42 39 36 33 30 27 25 21 18 14 14 9 7 4 3 3 2 2 3 7 10
6 8 14 17 19 13 12 14 20 23 20 24 31 38 37 32 31 36 37 35 36 36 35 34 33 32 29 27 23 20 17 15 12 10 9 7 4 3 3 1 3 6 9
7 5 5 2 4 5 5 4 6 11 16 21 26 34 38 42 43 42 40 39 39 37 36 34 33 31 29 24 22 20 18 15 13 12 9 7 6 5 4 2 2 3 4
9 8 5 3 6 5 3 2 6 9 15 21 25 29 38 40 39 41 42 41 40 39 36 33 31 29 27 24 21 19 15 12 11 10 8 6 5 4 4 4 3 2 3
10 9 7 5 5 3 5 7 10 15 20 23 25 28 34 36 41 41 39 40 38 35 32 30 29 27 25 24 21 18 15 15 11 8 7 6 5 4 4 5 6 5 2
13 9 7 11 11 8 10 10 13 17 21 20 23 28 33 37 38 40 38 34 32 31 31 30 29 27 25 22 20 17 14 11 9 7 6 5 4 4 5 6 8 8 9
14 11 7 14 9 12 12 15 16 18 14 19 23 26 30 31 31 32 32 30 29 31 32 32 30 27 23 20 17 14 12 8 8 6 4 5 5 5 7 8 8 10 13
10 12 8 11 10 14 15 15 17 15 16 22 24 25 27 27 27 25 26 28 30 29 31 32 29 25 22 18 16 14 9 6 3 4 3 5 7 8 9 10 11 13 14
9 9 7 7 10 13 11 7 5 10 19 23 25 26 27 26 24 25 28 30 30 30 31 30 29 26 22 20 15 9 7 5 4 2 5 7 8 11 12 12 12 14 17
11 5 9 10 10 6 1 5 7 7 14 19 22 23 22 24 28 28 27 29 31 33 31 29 27 21 15 12 12 11 7 2 3 7 7 8 10 11 10 11 14 15 15
10 9 10 4 2 8 9 14 16 14 13 17 21 25 25 26 29 30 29 30 32 32 29 25 22 20 15 10 9 5 1 3 7 6 7 7 8 10 12 14 13 15 19
10 6 6 6 6 11 13 15 20 19 18 19 21 25 25 28 29 30 32 32 32 28 26 21 19 17 13 8 3 1 4 4 4 5 7 8 9 9 10 12 15 16 20
7 4 7 6 11 13 16 21 23 23 22 23 22 22 28 29 30 32 33 31 29 26 24 20 15 11 11 7 4 2 4 2 4 5 7 7 9 11 14 15 15 16 17
9 7 7 12 16 19 22 23 25 26 25 25 24 23 28 31 32 31 29 27 25 22 17 13 9 8 8 7 5 4 2 3 6 6 6 9 12 14 14 17 19 19 19
7 10 12 15 19 22 24 26 25 26 26 24 25 27 27 25 27 28 26 23 20 18 16 12 10 9 9 4 2 4 5 7 9 8 9 12 15 15 16 19 21 19 19
10 10 13 15 17 17 23 26 22 24 22 23 27 28 28 27 25 23 21 18 16 13 11 9 6 5 2 3 2 5 7 8 9 10 15 15 15 16 17 19 19 18 24
12 14 15 15 12 12 18 20 19 20 23 25 25 25 25 24 21 20 17 14 11 10 9 8 7 4 3 2 4 6 6 8 13 16 18 18 16 16 18 19 20 19 20
11 12 14 15 15 16 22 20 20 22 24 24 24 24 22 21 18 16 13 11 11 11 9 8 6 3 1 3 5 7 9 11 14 16 18 18 15 18 19 16 16 18 18
9 10 13 14 14 14 20 21 19 22 24 24 22 21 19 17 14 14 13 12 10 8 7 4 1 3 6 8 8 9 11 13 15 16 17 15 16 16 15 14 15 14 17
9 11 12 12 13 16 19 21 20 21 19 19 18 18 17 15 13 12 10 10 9 7 5 4 6 7 9 9 10 13 15 16 14 15 10 13 14 12 13 14 15 17 17
11 12 13 13 14 18 17 16 16 18 21 22 19 17 16 14 13 12 11 9 9 8 7 5 4 6 9 9 11 14 17 15 14 14 16 15 16 18 19 19 19 20 20
13 13 14 16 14 17 17 16 16 19 21 19 16 14 13 11 9 8 8 8 6 4 2 3 6 5 6 9 12 14 14 12 12 11 13 16 17 17 18 18 21 22 21

GFSMW_925_spd_054.txt.gz
Wind_Speed
9 20 28 27 23 21 20 22 26 29 33 29 27 27 29 31 34 40 38 37 34 33 33 34 34 30 32 30 28 27 25 19 17 12 8 7 8 9 12 13 13 14 12
9 11 20 23 24 26 26 23 23 26 33 34 34 29 32 27 37 39 38 37 38 35 36 36 34 35 34 33 33 33 27 18 20 9 4 1 5 11 12 14 15 14 13
13 12 9 18 20 21 24 25 23 19 25 35 34 27 22 27 21 29 35 39 39 39 38 39 38 37 37 38 38 37 31 22 21 14 6 2 4 3 8 12 14 15 14
7 7 8 13 16 20 20 21 25 23 20 26 31 31 27 24 26 33 41 41 40 40 41 41 42 40 39 39 41 39 34 25 20 19 19 8 4 3 1 6 12 13 14
6 8 7 11 16 15 14 16 16 20 19 19 29 32 28 27 30 29 33 35 40 41 41 41 42 42 41 40 41 40 37 31 26 21 12 13 9 6 2 2 5 10 12
9 10 14 19 25 20 17 10 11 14 15 19 23 30 35 32 29 29 30 33 37 39 40 40 43 42 41 41 41 40 37 32 25 25 16 13 7 7 5 2 4 5 10
9 9 12 14 25 25 19 15 12 11 9 12 17 21 29 30 35 35 34 32 34 37 42 41 41 41 41 40 39 37 34 30 25 24 20 15 10 8 9 8 3 3 3
7 8 9 14 21 25 22 17 14 15 12 11 11 12 17 25 31 33 34 36 37 37 39 42 41 43 42 37 32 31 29 26 23 20 17 14 11 6 8 5 6 1 2
8 8 9 15 22 25 26 18 18 19 19 17 15 16 17 19 25 29 31 34 34 33 32 37 40 37 36 33 29 28 27 24 20 18 15 13 8 6 4 4 5 3 3
8 8 6 14 21 22 22 17 15 18 21 23 21 20 19 18 22 26 28 29 28 27 26 28 29 30 28 26 28 27 25 23 21 17 15 11 10 6 4 2 2 4 3
8 7 6 16 19 20 22 15 18 20 22 21 19 18 17 15 16 19 21 21 20 20 21 23 24 25 26 26 27 26 24 22 19 16 13 11 8 7 4 1 1 7 9
7 8 9 15 20 21 20 14 15 16 16 16 16 12 9 7 8 9 12 13 15 16 18 21 23 23 24 24 25 25 22 20 17 14 12 10 6 3 3 5 10 14 12
10 9 9 8 14 17 16 16 16 16 16 14 10 8 4 1 4 6 9 13 16 18 20 23 25 26 27 28 26 25 21 18 14 12 9 6 3 4 7 9 13 12 12
8 7 6 8 14 15 16 16 16 15 13 10 8 5 6 5 8 12 15 15 18 22 23 24 26 28 28 27 24 20 17 13 10 7 4 2 3 4 9 8 7 10 13
12 12 9 6 12 15 15 15 15 12 10 12 15 16 16 17 19 21 22 22 24 25 26 29 29 29 26 21 20 18 16 12 7 4 3 3 4 5 5 7 8 9 11
9 9 8 7 10 15 15 15 13 11 10 15 19 19 20 23 24 25 25 25 27 27 30 31 29 26 23 18 16 12 10 6 4 5 1 1 1 3 4 8 9 10 15
8 6 6 6 11 12 10 11 11 10 13 14 15 17 19 23 24 23 23 27 31 31 30 27 24 24 20 16 13 10 9 6 5 4 1 2 3 5 8 9 9 10 12
5 5 6 8 11 10 10 10 11 12 13 11 12 13 18 22 24 26 26 26 29 28 26 24 21 19 16 14 12 12 9 6 5 3 2 5 8 10 11 12 14 14 14
3 4 6 8 11 13 10 12 12 12 12 15 15 14 18 20 25 24 23 23 25 25 23 20 18 16 14 9 8 7 6 3 4 3 4 9 12 12 12 13 14 14 15
5 5 6 7 10 9 8 10 12 15 14 16 17 16 19 22 24 22 22 22 22 23 19 19 16 11 10 6 6 1 2 2 2 5 10 10 10 11 12 13 15 15 20
5 6 7 8 7 8 9 13 14 13 13 16 17 19 21 22 21 20 19 18 19 17 16 17 14 13 10 10 8 6 5 5 6 9 10 12 11 12 13 14 14 14 16
7 7 8 9 9 8 13 14 13 11 17 20 21 20 19 19 19 18 15 14 16 17 16 15 12 9 5 5 6 6 5 6 10 10 11 11 12 12 11 11 11 11 13
7 6 8 10 10 10 13 16 12 16 17 18 18 18 16 14 13 14 14 14 12 12 11 9 8 7 6 6 6 8 8 9 8 8 7 11 12 11 10 9 10 9 11
9 8 7 9 11 13 13 14 14 15 17 18 16 15 15 15 14 14 12 12 10 10 9 8 7 7 7 6 6 8 10 8 10 8 10 10 8 8 9 11 12 12 12
10 10 10 10 12 12 12 13 13 14 16 16 14 14 14 14 15 15 12 11 11 9 7 6 4 3 5 6 7 9 10 9 10 8 11 11 13 14 15 16 15 16 15
13 12 13 13 12 14 12 10 12 13 15 14 13 12 12 12 11 13 14 11 10 8 8 6 5 4 4 6 7 10 10 10 10 10 11 13 13 14 16 18 19 19 18

GFSMW_925_spd_057.txt.gz
Wind_Speed
9 16 21 22 22 23 23 23 25 30 27 25 26 25 28 33 32 35 36 34 35 35 33 35 34 34 34 32 29 27 25 21 20 14 8 9 11 12 14 16 17 16 16
9 12 14 15 16 20 21 24 24 25 32 26 27 25 27 26 33 27 31 36 36 37 35 36 37 37 35 32 33 32 26 22 24 10 5 3 6 13 16 18 18 17 17
8 11 12 10 10 13 16 20 24 26 26 31 29 24 23 23 21 28 31 34 40 39 38 38 38 39 38 38 38 37 35 24 27 20 7 3 4 4 10 16 18 19 19
8 7 11 14 15 14 9 11 17 22 24 24 25 25 24 24 27 28 35 31 35 39 41 40 41 41 40 40 41 40 40 33 26 24 22 10 4 3 3 9 17 20 20
7 8 9 12 18 18 18 9 7 11 17 21 25 28 26 26 28 29 29 32 36 37 41 42 43 43 43 43 43 42 41 41 30 29 14 16 9 5 3 3 6 15 19
8 7 10 12 19 21 20 16 14 8 6 12 17 26 23 25 23 30 30 32 35 36 38 40 43 43 44 44 45 44 42 41 36 34 25 19 8 9 7 2 2 6 10
8 9 11 15 22 25 22 20 15 14 11 8 7 15 24 26 27 28 30 23 27 31 36 38 41 44 45 42 40 40 40 41 38 32 29 23 18 12 18 9 4 2 3
6 7 7 10 17 21 23 21 17 15 13 11 10 9 11 16 23 28 28 27 29 31 29 32 35 38 40 39 36 33 33 35 37 30 24 22 19 16 14 10 10 2 3
6 7 10 13 16 18 19 17 15 15 14 15 14 11 11 14 17 20 22 26 29 30 26 26 27 31 32 33 32 30 34 34 31 27 23 21 17 14 12 10 9 6 4
9 9 9 13 15 18 18 14 9 13 16 16 15 15 12 11 13 17 20 22 24 23 22 20 22 24 26 26 25 26 27 27 24 23 21 18 14 12 9 11 9 7 4
9 10 12 14 16 15 14 13 13 14 16 17 17 16 15 13 11 11 13 15 16 15 15 16 17 20 22 23 24 24 24 24 23 22 21 19 15 13 11 7 6 4 5
7 8 11 13 15 15 16 17 17 16 15 15 14 13 14 12 10 8 7 5 7 9 10 12 15 17 20 21 23 24 24 26 25 20 18 17 12 10 6 3 2 5 3
11 11 12 14 13 15 15 16 18 18 17 15 13 11 10 8 6 5 3 1 4 8 12 15 17 20 21 22 23 25 27 25 22 19 14 12 9 5 2 3 3 4 6
7 8 6 9 12 12 13 17 19 20 19 17 15 13 11 8 8 8 10 12 14 17 19 19 22 24 26 26 27 27 25 22 17 13 11 8 7 5 2 4 6 5 8
6 6 7 7 12 13 13 15 17 18 16 17 15 13 11 10 10 12 12 13 16 18 21 24 24 25 29 29 27 24 21 18 15 10 6 5 3 2 2 4 3 6 9
5 6 7 9 10 10 11 13 15 16 17 16 15 12 11 12 15 17 19 21 22 23 26 30 31 28 26 21 20 20 19 16 12 10 6 5 4 4 2 2 3 5 8
4 6 6 7 7 8 7 11 13 14 15 14 13 13 12 17 17 17 20 23 25 25 26 28 28 27 24 21 19 17 16 14 12 9 7 6 2 1 5 5 5 6 8
4 5 6 6 5 6 7 11 12 12 13 14 13 12 13 18 18 20 22 23 24 26 25 26 26 25 21 18 17 16 14 13 10 7 5 3 3 5 6 7 8 9 9
3 4 4 4 5 9 8 10 12 14 14 14 14 14 16 20 21 23 24 24 26 26 24 23 23 22 18 15 15 13 11 9 7 5 4 6 6 6 6 8 9 9 12
4 3 3 4 6 8 7 10 11 13 13 12 13 14 16 19 20 21 22 22 23 23 22 20 18 15 15 9 8 6 8 6 4 4 5 6 6 7 8 6 6 7 13
4 4 5 4 5 7 10 13 12 14 12 14 16 18 19 21 20 20 19 19 19 19 18 19 17 16 16 12 9 7 8 5 5 4 4 6 6 8 9 9 10 9 11
5 5 6 5 7 9 12 14 15 11 15 18 19 19 19 18 17 17 16 16 17 17 15 14 13 11 9 8 9 7 7 5 5 5 7 6 8 8 8 7 7 8 10
6 6 8 9 9 9 11 17 14 15 17 18 18 17 15 14 13 14 13 13 10 10 9 9 9 9 8 7 7 7 7 5 4 5 4 8 8 6 5 5 7 7 9
9 10 8 9 11 11 13 14 13 13 16 17 16 15 15 14 13 12 11 10 9 8 8 7 7 7 6 5 5 6 8 5 8 6 8 7 5 5 5 6 6 7 7
10 11 12 11 12 12 12 11 11 14 16 15 14 14 13 13 13 12 10 10 10 8 7 6 4 4 5 6 5 7 6 6 6 5 5 5 6 7 7 8 8 8 9
14 11 13 15 13 13 12 11 12 12 14 14 13 12 12 11 11 12 14 10 8 7 6 5 5 3 3 4 5 6 5 4 3 3 5 5 6 7 9 10 12 11 11

GFSMW_925_spd_060.txt.gz
Wind_Speed
11 14 14 14 14 15 16 17 17 19 21 22 21 24 25 30 26 28 24 23 24 25 26 26 24 24 25 25 23 22 19 17 15 12 9 10 11 12 13 13 14 14 14
3 5 7 7 9 12 15 17 19 20 21 24 24 25 22 23 24 23 25 29 26 25 28 29 28 28 27 27 27 25 20 19 20 13 11 5 9 15 16 15 16 16 15
5 7 8 8 6 5 9 13 15 17 19 20 22 22 22 19 18 23 25 28 34 31 31 29 29 27 29 29 31 29 26 22 20 21 11 4 7 7 11 17 17 17 17
7 7 8 10 10 9 8 5 8 12 15 16 19 23 24 24 25 25 24 24 25 32 32 31 29 29 31 29 34 34 33 25 21 19 21 9 2 4 4 8 16 17 18
6 7 8 8 9 10 9 9 6 4 7 12 17 20 23 23 23 23 25 25 24 26 35 32 30 29 30 31 31 33 33 34 26 25 14 17 10 7 4 3 8 15 16
6 8 8 8 10 11 11 9 8 7 5 3 11 18 20 21 20 19 21 22 22 23 28 31 32 32 29 29 31 30 32 33 30 25 21 21 13 16 9 8 7 9 12
6 8 9 10 13 14 13 10 9 8 7 6 3 6 13 16 19 20 19 21 20 20 27 27 28 30 33 31 28 26 28 32 33 29 28 25 25 16 19 12 5 5 5
6 7 8 10 12 13 13 13 11 8 8 8 7 5 6 7 11 15 18 19 20 21 19 21 26 29 28 28 29 26 26 28 31 29 30 33 27 22 18 14 10 3 2
8 8 9 10 11 13 13 13 12 9 8 8 7 7 6 6 9 11 13 15 16 18 18 17 19 24 28 28 28 27 27 27 24 27 26 26 25 21 16 15 11 5 4
5 7 8 10 11 11 11 9 10 10 9 9 8 8 7 7 8 9 10 12 13 13 13 14 19 20 23 26 26 25 24 21 22 21 23 17 11 7 10 10 8 6 6
6 7 7 8 9 10 11 10 11 11 11 11 11 9 9 9 9 8 9 9 9 9 10 12 15 16 18 20 22 23 22 21 19 18 17 17 17 11 10 8 7 5 6
5 5 7 8 9 10 11 11 11 11 12 12 11 11 11 11 10 9 8 9 7 5 6 8 9 10 12 15 18 18 16 18 20 19 21 21 18 15 10 6 6 4 4
4 5 6 7 9 10 10 11 12 13 13 13 13 13 13 13 13 12 10 8 5 3 1 4 7 8 11 14 16 18 21 22 23 23 21 18 15 12 10 7 6 5 2
3 5 5 7 7 7 9 11 12 11 10 10 12 14 13 13 11 10 9 9 8 7 7 8 10 13 14 17 21 22 23 25 25 22 19 15 13 10 8 6 4 3 3
2 4 4 4 4 4 6 7 8 9 10 12 14 14 13 13 12 12 13 14 14 12 11 14 15 17 19 20 23 27 26 23 20 17 15 11 9 7 5 5 4 3 4
2 2 3 3 4 6 9 10 9 9 10 12 13 13 14 13 13 14 15 15 19 18 17 20 22 21 24 21 19 23 22 19 18 16 12 9 8 7 6 5 4 5 6
0 1 2 3 6 7 9 7 7 8 10 11 13 13 13 12 14 14 18 22 25 22 21 22 24 23 22 21 19 19 18 17 15 12 9 7 5 4 1 2 4 6 6
2 1 1 3 5 5 7 6 8 11 12 13 14 13 12 13 14 18 20 21 20 20 22 24 23 23 20 19 19 18 17 15 12 9 7 4 2 1 1 4 6 7 7
3 3 3 4 4 6 7 7 9 11 12 13 14 13 15 18 19 21 21 22 23 22 21 20 20 18 17 16 13 11 11 10 8 5 4 1 1 2 2 5 6 8 8
3 3 3 4 5 7 6 7 10 12 12 12 12 14 16 18 19 19 20 21 22 20 17 17 14 12 10 9 8 7 6 6 3 2 1 2 3 3 4 5 8 9 9
4 4 5 6 6 6 7 9 13 13 13 14 15 17 18 19 18 18 17 16 15 14 12 11 11 11 9 8 7 7 5 3 2 2 3 3 4 6 6 7 7 8 9
6 5 6 6 6 8 11 11 13 12 15 16 17 16 13 11 10 11 11 11 11 10 9 8 7 7 7 6 6 6 5 3 2 3 3 4 7 7 6 5 5 7 9
7 6 8 8 7 9 13 15 12 14 13 11 11 10 10 10 9 9 9 8 6 5 5 4 4 4 3 3 4 5 6 5 5 5 4 7 6 5 4 4 6 7 6
11 10 10 10 10 12 14 15 12 10 10 10 10 9 9 9 8 7 6 6 5 5 4 4 3 3 2 4 5 5 6 4 5 4 5 5 4 4 5 5 6 6 6
13 13 12 13 12 13 13 11 10 11 11 10 8 8 8 7 8 8 6 6 6 5 3 2 1 2 2 4 4 6 6 6 6 5 5 3 3 4 4 5 6 7 7
16 14 14 15 13 13 13 12 12 11 11 9 8 6 7 6 6 6 7 7 6 5 4 2 1 2 3 3 5 7 6 6 5 4 4 4 4 5 6 7 7 7 8

GFSMW_925_spd_063.txt.gz
Wind_Speed
11 7 11 13 14 15 16 17 17 19 19 20 21 17 23 26 23 28 22 22 23 23 25 26 24 24 25 25 24 25 22 19 18 14 12 12 13 15 15 15 17 17 17
8 6 8 8 10 13 14 16 19 20 20 21 21 21 19 23 27 22 29 28 23 26 26 29 28 27 26 25 25 27 23 21 21 16 12 4 11 18 19 18 19 18 18
3 1 2 3 2 2 6 11 14 16 18 19 19 20 20 21 18 21 23 25 28 28 26 27 27 25 28 27 29 28 29 24 24 25 10 4 5 9 16 20 19 19 20
5 4 4 6 7 7 6 4 6 10 14 16 17 18 19 19 20 21 19 21 22 24 28 28 26 27 26 28 29 30 32 26 24 23 28 19 3 3 2 12 18 18 19
4 4 5 5 7 8 8 7 6 3 6 10 15 17 20 20 19 19 21 22 21 21 24 25 29 27 30 29 30 28 31 33 25 27 16 22 15 11 3 4 7 16 19
4 5 4 4 6 7 8 8 7 5 5 4 7 13 17 18 17 17 17 17 17 18 20 24 26 29 31 32 33 32 30 30 30 25 25 23 15 16 9 3 8 10 16
3 4 4 5 6 7 8 8 8 7 6 6 5 5 9 14 17 18 17 18 17 18 20 24 26 28 30 30 31 31 32 33 31 32 28 24 22 15 19 13 3 3 5
3 4 5 6 7 8 9 9 8 7 7 7 7 6 6 7 9 12 16 17 17 18 17 17 19 22 26 30 31 31 30 29 30 30 26 21 23 22 18 10 7 2 5
2 4 6 7 8 9 10 10 9 8 7 8 7 6 7 7 8 9 10 11 13 14 14 15 13 18 20 23 27 30 31 29 26 24 22 22 20 20 19 15 9 9 3
3 5 5 6 7 7 8 8 8 8 7 8 7 7 8 8 8 8 8 9 11 12 13 12 12 17 17 19 22 25 25 24 21 21 23 21 17 15 12 11 13 14 10
3 4 4 5 5 6 7 8 9 9 10 9 9 8 8 9 9 10 10 11 12 12 12 12 11 13 16 15 17 18 16 19 20 20 19 16 14 14 11 13 13 10 7
2 2 2 3 4 5 7 8 10 10 11 11 10 10 10 10 10 11 12 11 11 10 11 9 8 8 8 9 12 14 14 16 14 13 14 16 15 16 15 11 9 8 7
1 0 1 2 4 6 7 8 9 10 10 11 10 10 11 11 12 11 11 11 10 9 9 8 7 5 2 1 2 6 10 11 12 14 16 18 17 16 13 11 10 8 6
1 1 1 1 3 5 6 8 9 9 10 10 11 11 11 11 11 11 11 12 11 11 11 10 9 8 7 6 8 11 13 17 19 18 19 18 16 15 12 10 8 7 7
1 1 1 1 3 4 6 7 8 8 8 9 8 8 8 10 11 11 13 13 15 15 12 12 13 12 13 12 13 16 18 19 21 18 14 12 11 10 8 7 7 6 6
2 2 1 1 2 4 4 4 5 5 6 7 6 8 9 12 13 13 14 16 16 16 19 21 22 22 20 16 14 17 18 16 16 17 14 12 11 8 7 5 4 3 4
3 3 2 2 2 3 2 3 4 4 6 6 7 9 10 14 13 14 18 19 20 21 23 23 23 23 22 17 14 15 16 15 14 13 11 8 7 5 4 2 1 3 4
3 3 3 3 3 3 3 4 4 6 7 8 9 10 10 15 13 17 19 19 20 22 22 22 22 22 19 17 15 16 15 16 11 7 7 5 4 3 2 2 2 3 4
4 4 3 4 3 3 3 5 5 7 8 10 12 12 13 16 17 18 19 19 20 20 20 19 17 19 16 12 11 8 7 6 6 6 6 5 5 5 5 5 5 6 5
5 6 5 4 4 3 4 6 7 9 10 11 13 13 15 15 15 16 17 17 17 17 15 15 13 12 11 10 10 7 6 5 5 4 4 6 5 4 5 5 7 5 6
6 6 6 5 4 5 7 9 12 12 10 13 14 14 14 15 14 13 11 11 10 9 10 11 11 10 9 8 9 9 7 5 4 4 4 4 5 6 7 6 6 5 6
8 8 8 7 6 7 9 10 12 13 14 14 15 12 8 7 8 7 7 7 7 7 6 6 6 6 6 7 7 8 8 7 5 5 5 4 7 7 6 4 4 5 7
8 9 10 9 8 8 10 12 13 14 13 10 9 8 8 7 6 6 5 5 4 4 4 4 4 4 4 4 6 6 7 5 6 5 5 7 7 5 4 4 6 6 4
10 11 13 11 10 10 10 12 11 10 11 10 9 9 8 7 6 5 4 4 3 3 3 3 3 3 3 5 6 7 8 7 8 8 7 8 7 6 6 6 5 5 6
12 13 13 13 13 12 11 11 10 10 10 10 9 8 7 6 6 5 4 4 3 3 2 3 3 3 4 5 6 8 8 8 8 10 7 6 6 6 6 6 7 7 7
15 14 14 14 15 14 12 11 10 10 10 9 8 7 7 6 5 5 5 5 5 4 3 2 2 3 5 5 7 8 8 8 8 6 6 6 6 7 7 8 9 9 9

GFSMW_925_spd_066.txt.gz
Wind_Speed
8 4 6 6 8 10 11 12 12 12 15 20 17 22 25 25 24 27 28 21 24 24 27 29 29 27 29 30 28 28 29 23 22 20 18 15 20 21 21 22 22 23 25
5 8 8 5 7 10 10 11 14 15 17 18 22 18 22 25 28 26 29 29 23 22 27 30 31 31 31 29 29 31 29 25 28 19 12 2 10 22 26 24 25 26 26
5 7 8 7 6 9 7 9 10 12 13 9 12 17 14 19 16 22 24 26 27 31 21 23 28 30 26 29 31 31 34 27 29 30 12 3 5 5 19 32 28 26 27
5 5 8 7 8 6 5 6 7 8 14 16 14 13 14 12 20 20 19 19 18 21 21 27 24 27 28 29 29 32 33 29 23 32 35 21 3 4 1 13 29 27 25
7 7 6 6 7 6 7 7 7 5 4 6 9 14 17 18 20 16 17 17 18 21 23 23 21 32 24 30 31 33 32 35 27 30 28 30 22 14 3 3 7 21 23
6 6 6 4 7 7 8 8 8 7 6 6 6 7 11 16 17 15 14 15 14 13 15 20 22 22 25 32 32 31 32 33 30 28 31 26 19 18 8 2 2 5 12
6 5 6 6 7 8 10 10 10 9 8 8 8 7 7 9 11 13 13 13 12 15 17 19 22 23 24 26 28 31 33 31 31 33 29 30 28 22 23 16 4 3 4
6 5 5 6 9 10 12 12 11 10 9 9 9 10 9 8 7 8 9 9 10 12 11 11 11 15 16 19 22 27 31 33 33 32 29 25 28 29 25 23 13 2 2
5 5 6 9 9 9 10 10 10 9 10 9 9 9 9 9 8 8 7 7 7 8 8 8 10 11 13 15 18 22 26 29 31 34 30 26 24 27 25 22 22 9 4
6 5 6 8 7 7 7 8 9 9 9 9 9 8 9 10 10 9 11 9 10 10 11 12 11 12 13 12 16 18 20 22 22 21 21 20 19 19 18 16 15 14 9
5 4 6 6 5 6 7 9 10 10 11 10 11 10 10 9 8 8 8 8 7 8 9 9 9 10 11 12 12 14 16 17 15 13 14 14 13 12 11 9 10 10 8
4 5 5 3 6 6 7 8 9 10 10 10 10 10 9 8 7 9 9 9 9 7 8 7 7 8 9 8 7 6 6 7 8 8 6 6 7 7 6 8 10 9 12
5 5 5 5 6 6 5 7 9 9 9 8 9 10 10 10 11 10 9 10 11 11 11 10 9 9 8 7 7 4 2 1 3 5 9 5 8 11 12 10 10 10 4
6 4 4 7 7 6 5 7 8 8 9 9 10 11 11 11 12 11 12 13 13 14 14 14 13 12 11 9 8 7 8 9 10 11 15 10 9 10 10 9 8 9 10
5 4 2 5 6 6 7 7 7 7 8 9 10 10 10 10 11 11 11 13 15 17 17 20 19 19 19 14 12 14 16 16 16 16 15 11 9 8 7 5 5 6 7
4 4 4 5 6 7 5 6 8 8 8 9 9 8 10 9 11 10 11 15 17 19 20 23 23 23 21 18 16 17 18 18 17 15 13 14 10 10 8 6 4 5 3
6 6 5 6 8 6 5 9 7 5 7 7 7 9 8 10 11 13 16 21 21 22 22 21 20 21 19 15 14 14 17 17 16 13 11 9 6 4 4 4 3 2 1
6 5 7 9 7 6 6 8 6 7 6 7 7 7 9 13 14 16 19 20 19 20 20 19 19 19 16 14 15 14 13 13 12 9 8 6 5 4 3 3 1 2 3
7 9 10 10 7 6 7 9 8 7 7 8 9 9 12 16 16 18 18 17 18 18 17 16 16 16 15 12 10 11 11 12 10 7 5 4 4 5 5 4 4 4 2
10 11 10 8 7 5 7 10 9 8 9 9 11 11 14 15 17 16 15 16 16 16 15 12 13 11 13 12 12 8 8 8 6 6 5 5 6 5 6 6 5 5 3
9 12 12 9 8 8 8 11 10 9 11 12 13 14 14 15 14 13 13 13 11 11 10 10 9 9 8 9 10 10 8 7 6 5 5 5 6 7 7 5 3 4 6
10 11 11 10 9 8 12 14 12 12 13 14 15 13 12 10 10 9 8 7 7 6 6 5 5 5 5 6 7 8 8 7 6 5 3 4 8 7 5 3 3 5 6
12 11 14 10 8 11 13 15 16 15 14 11 10 10 10 9 7 8 7 5 4 5 4 4 4 2 2 5 5 7 6 7 7 6 6 6 6 5 3 2 6 5 4
12 13 15 11 11 12 15 16 18 15 12 11 10 9 9 8 6 5 5 4 4 3 3 2 2 1 2 2 4 6 5 5 5 9 7 6 5 4 5 5 5 6 6
14 17 17 13 13 15 17 17 15 14 13 12 11 10 9 8 8 7 4 2 2 2 2 2 0 1 2 4 5 7 8 8 8 9 5 6 5 6 5 5 6 6 7
16 17 17 15 16 17 16 18 17 16 16 14 13 11 10 9 6 6 5 4 2 1 0 0 1 1 3 3 5 7 7 8 7 7 5 6 6 6 7 8 9 9 8

GFSMW_925_spd_069.txt.gz
Wind_Speed
2 10 9 6 3 0 2 3 6 3 10 22 24 25 27 26 26 27 29 26 22 24 29 31 32 32 31 32 31 30 32 31 24 20 20 22 23 27 30 29 26 28 28
5 6 9 9 8 5 4 5 6 8 8 9 10 15 22 26 30 28 27 25 27 27 23 26 34 35 34 32 33 32 31 31 30 18 4 2 9 26 30 28 31 30 29
7 6 12 13 9 7 7 6 8 9 10 8 8 8 6 11 15 23 24 24 23 23 27 30 26 31 35 34 32 34 35 28 28 33 14 2 6 4 22 37 35 34 32
6 6 9 10 9 7 5 6 7 5 7 10 11 9 7 7 8 12 19 22 19 18 16 15 19 28 29 32 32 31 33 33 23 26 33 21 6 4 2 10 28 33 31
8 7 8 9 8 6 6 6 8 7 7 7 5 7 8 9 12 12 10 12 19 18 18 19 19 21 23 26 24 26 29 33 30 29 25 32 21 9 2 4 5 21 28
7 7 9 10 8 6 6 8 8 9 8 7 9 9 7 7 8 9 11 8 7 8 9 11 16 19 19 18 20 23 22 25 29 28 28 26 15 20 7 2 2 4 7
8 7 6 8 8 9 8 8 9 10 8 7 8 8 7 7 9 10 8 6 6 8 6 6 11 15 16 18 17 21 24 26 27 28 29 33 32 27 24 15 3 2 6
7 7 7 9 9 8 8 7 8 9 9 7 8 6 6 6 6 7 7 7 6 5 6 5 2 5 9 10 13 15 19 22 25 28 27 29 32 33 30 23 13 2 5
7 7 9 9 8 8 8 8 8 9 9 8 7 8 7 7 7 6 5 6 6 7 8 6 5 6 7 8 10 13 15 17 20 22 24 23 26 27 28 23 22 20 5
7 6 8 8 7 7 7 8 9 10 10 10 10 10 9 8 6 6 7 7 6 7 8 7 7 8 9 10 11 13 14 15 18 18 17 16 13 14 15 16 16 15 5
7 7 8 9 9 8 7 8 8 8 10 8 6 6 6 6 6 7 8 8 7 8 7 7 7 7 8 7 7 8 10 10 10 9 9 8 7 7 7 7 8 6 6
7 7 9 10 9 9 7 7 7 8 9 7 6 7 6 6 7 8 9 8 7 6 6 6 6 7 7 6 5 5 5 4 4 3 2 2 1 1 1 4 1 3 3
7 6 8 9 10 9 8 8 7 8 7 5 7 8 10 9 9 9 8 9 9 10 10 9 10 10 10 9 9 7 5 4 5 4 5 5 4 4 5 10 4 2 1
7 6 6 9 10 9 9 7 7 6 7 7 8 9 9 9 10 9 10 12 12 13 13 15 13 12 12 11 11 10 10 11 12 12 11 10 9 7 8 10 5 4 4
7 6 6 7 10 10 9 8 7 7 6 8 9 8 8 6 8 8 9 10 12 16 16 16 17 19 19 14 15 15 16 17 17 17 17 16 13 11 10 8 7 6 6
7 7 7 10 11 11 9 9 10 9 9 9 9 8 9 8 9 9 12 13 14 16 17 19 21 22 18 16 16 15 16 15 14 14 13 12 10 12 11 10 8 5 2
7 7 7 10 12 10 10 11 8 7 7 9 8 9 8 9 11 13 14 14 14 15 18 20 20 20 18 15 13 11 12 12 12 11 9 9 9 8 8 5 2 2 2
7 6 11 14 13 11 13 11 6 7 7 8 9 9 10 12 13 13 13 12 12 14 19 19 18 18 15 14 14 13 12 12 12 10 9 7 8 7 6 3 1 3 2
8 12 15 14 13 13 14 12 10 9 9 9 9 11 13 13 13 13 13 13 15 16 18 16 16 16 14 10 8 8 9 9 8 8 7 5 5 6 5 3 2 2 1
16 17 16 15 14 11 15 14 12 11 10 10 11 14 14 14 14 14 14 13 14 13 13 13 12 12 13 11 10 7 5 6 4 3 4 4 4 4 4 5 3 1 2
16 16 15 13 12 13 17 14 12 12 13 13 14 13 14 14 14 12 14 14 11 11 11 10 8 8 7 8 9 8 6 5 3 3 3 2 4 6 5 3 2 2 4
16 18 17 16 15 14 11 13 13 14 15 15 14 14 14 13 11 10 9 8 6 6 6 5 5 4 4 5 6 6 6 6 4 4 6 7 7 6 5 3 3 4 5
16 18 18 17 12 10 14 16 16 17 17 17 15 13 11 10 9 8 7 7 6 5 5 4 2 1 1 1 2 4 6 5 3 4 6 6 6 4 3 1 5 4 4
13 17 19 15 13 15 15 17 20 19 18 17 15 14 13 12 9 8 6 6 6 5 5 4 3 2 2 1 4 4 4 5 7 8 9 4 5 4 4 4 4 5 5
15 21 20 16 15 17 17 19 21 20 18 17 17 16 14 13 11 8 6 6 4 4 5 4 3 4 4 3 3 5 6 7 7 8 5 3 3 3 4 4 5 5 5
18 19 20 18 17 19 19 20 20 22 19 18 18 16 15 14 12 10 7 5 4 3 3 2 2 3 4 4 5 5 5 6 6 7 4 5 5 6 6 7 8 8 6

GFSMW_925_spd_072.txt.gz
Wind_Speed
2 7 8 10 12 11 9 8 8 11 18 22 23 22 24 28 30 30 26 24 23 26 27 30 31 31 31 32 31 32 32 31 30 19 23 26 27 28 29 29 31 32 31
4 7 8 9 9 5 3 3 3 4 5 11 21 22 20 23 28 25 26 28 28 27 24 26 29 32 32 33 33 33 32 32 32 18 5 3 12 28 34 33 34 35 34
8 6 8 8 7 5 4 2 5 5 5 7 7 8 13 16 14 17 20 21 23 24 24 24 24 27 27 31 35 36 35 27 29 29 14 0 5 2 14 31 38 35 35
6 5 8 8 6 6 4 5 4 3 1 3 7 10 8 8 6 6 10 14 17 18 19 19 18 17 19 26 29 33 34 30 22 19 32 27 10 4 4 9 19 30 31
9 8 9 11 9 7 6 6 5 5 6 6 3 1 4 7 8 8 9 7 12 14 20 19 19 19 19 18 18 22 23 26 27 24 17 24 23 15 7 9 6 11 19
8 8 12 12 10 8 7 7 7 7 6 6 6 5 4 2 1 2 3 4 1 4 8 10 14 15 16 15 15 13 14 14 18 24 24 23 11 11 13 7 7 6 10
8 8 8 10 9 7 6 5 5 6 6 6 5 7 7 6 5 4 4 3 1 2 3 2 6 9 10 11 10 10 12 15 17 19 19 22 25 25 19 16 6 5 11
7 8 9 11 9 6 4 4 4 4 5 5 4 3 3 3 3 3 2 3 3 3 3 2 2 2 4 7 8 9 10 12 15 14 13 15 20 23 26 21 13 3 6
7 8 10 11 8 6 6 5 5 6 5 5 4 4 3 3 4 4 3 2 3 4 5 5 6 6 6 7 7 7 10 13 12 12 12 13 13 15 19 20 17 9 3
7 7 9 10 9 8 8 7 7 7 7 7 6 6 5 4 4 4 4 4 4 4 4 3 4 5 6 7 8 10 10 9 9 9 9 11 10 10 10 11 13 13 5
7 7 9 10 10 9 8 7 6 6 6 5 5 4 4 4 4 5 5 6 5 5 5 4 4 4 4 4 3 3 4 4 4 6 6 5 4 4 4 4 3 3 5
8 7 11 13 11 10 8 6 6 6 5 4 4 5 5 5 5 7 8 7 7 6 6 6 6 6 6 6 5 4 5 4 4 4 3 5 4 5 6 5 3 1 3
7 6 8 11 12 10 8 6 5 5 4 3 4 6 7 7 8 8 8 8 8 9 9 9 10 10 9 9 9 8 8 8 8 6 6 7 6 7 7 5 5 4 4
9 7 6 10 13 11 10 7 6 5 4 4 5 6 7 6 7 7 8 10 12 12 14 15 13 12 11 12 11 11 11 13 14 13 13 12 10 9 9 8 7 5 5
7 7 7 8 14 13 12 9 7 6 5 5 5 6 6 5 5 6 7 8 11 12 14 15 16 17 17 15 14 15 16 17 16 16 17 17 14 12 9 7 7 6 9
7 7 7 11 14 15 13 11 9 7 6 6 6 6 6 6 7 8 10 12 13 14 15 18 17 16 15 13 13 13 15 14 13 13 12 10 9 10 10 8 8 7 5
8 8 8 14 18 17 16 14 11 9 7 7 6 5 6 8 10 11 12 13 13 15 16 16 14 14 13 12 13 12 13 13 13 12 12 11 10 9 7 6 4 4 4
8 8 11 15 17 16 17 14 12 9 8 8 7 7 8 11 12 12 11 12 13 15 13 12 13 13 13 13 13 12 11 12 11 10 9 8 9 9 7 4 3 4 3
7 12 18 19 17 18 18 15 12 10 10 9 8 8 11 12 11 11 11 11 14 14 14 12 11 12 12 8 5 6 7 7 7 8 9 6 5 6 7 7 5 3 2
13 16 17 17 19 19 18 16 14 12 11 11 11 12 12 13 13 12 12 10 10 15 12 11 9 8 9 8 6 4 4 3 3 3 3 4 6 6 6 7 6 3 3
15 17 20 21 19 20 19 17 15 14 12 12 13 14 14 13 12 13 13 10 9 8 8 6 5 5 4 5 6 6 5 3 2 2 3 2 5 7 5 4 2 3 4
15 18 18 16 15 18 20 17 14 13 14 15 16 15 15 14 12 14 12 9 7 6 5 4 3 2 2 3 4 4 4 5 4 3 5 5 5 5 3 3 2 3 5
15 19 18 17 16 17 16 13 13 16 18 18 17 16 15 14 13 12 10 9 9 7 7 7 5 4 3 1 0 2 3 3 4 5 7 7 5 4 2 1 4 3 4
14 17 17 18 16 13 12 12 17 19 19 18 18 17 16 15 12 11 10 10 10 10 10 9 8 6 5 4 4 4 4 5 6 6 8 4 4 3 3 3 4 4 4
16 20 20 18 18 17 16 16 20 22 20 19 19 17 15 14 13 12 11 11 10 10 11 10 8 8 7 6 4 4 6 7 8 8 7 3 3 3 3 4 5 5 5
19 19 21 20 21 21 20 21 23 24 23 21 19 18 17 16 15 13 10 10 9 8 8 8 7 7 6 5 6 6 6 6 7 9 7 5 4 5 6 6 7 7 6

GFSMW_925_spd_075.txt.gz
Wind_Speed
1 6 11 11 11 12 12 14 19 24 21 18 18 23 27 26 26 26 23 22 22 24 26 28 28 28 27 29 30 30 30 31 29 23 24 26 26 28 31 31 32 33 33
5 7 11 13 9 9 9 9 9 9 13 19 22 20 18 20 23 25 26 29 28 25 23 25 25 26 28 29 30 30 29 30 30 15 6 3 10 23 32 34 34 35 35
9 7 10 11 10 8 6 5 5 6 8 8 10 15 20 21 21 20 20 22 22 23 24 25 24 23 23 25 27 28 30 25 22 22 13 1 4 3 11 21 27 33 34
5 4 10 11 9 7 6 6 5 3 4 7 10 11 12 12 14 15 13 12 12 15 17 19 20 19 19 17 18 20 23 25 21 17 19 26 9 3 3 7 11 14 20
9 9 10 12 11 9 7 7 8 7 6 3 3 7 9 10 10 11 11 10 9 12 13 19 21 19 18 18 15 15 15 16 19 19 18 19 23 20 6 8 5 13 17
8 7 12 13 11 9 9 8 8 8 6 6 5 3 2 2 2 1 3 6 6 6 8 10 13 17 19 18 15 12 12 13 14 12 15 18 9 6 9 6 9 9 16
9 8 8 12 11 9 7 5 5 6 5 4 4 4 4 3 3 3 3 2 2 3 3 3 4 7 9 10 12 12 10 9 8 8 11 15 20 19 16 13 7 5 7
7 9 10 14 11 8 6 5 5 5 3 3 3 3 2 1 1 1 1 2 2 3 4 4 4 3 3 4 6 8 7 6 7 6 6 9 9 10 13 12 4 2 5
8 9 12 14 11 8 6 5 5 5 4 3 3 3 3 2 3 2 2 3 3 4 5 5 5 5 6 5 5 6 7 7 7 9 9 6 5 6 8 8 9 6 4
8 7 10 14 11 9 8 7 5 6 6 4 3 3 3 2 2 2 2 3 3 3 3 3 3 4 4 4 4 4 4 3 4 4 4 3 3 4 6 6 6 5 2
9 7 10 13 13 11 10 8 6 5 5 4 3 2 2 2 2 2 3 3 3 3 3 3 3 3 3 2 2 1 1 2 3 2 1 2 2 2 3 2 1 1 1
8 7 12 15 14 12 10 8 7 6 5 4 3 2 3 3 3 4 4 4 4 4 3 3 3 4 4 4 4 4 5 6 6 5 3 5 4 5 5 5 6 5 4
7 7 9 12 14 13 11 9 8 7 5 4 3 4 5 5 6 6 6 6 7 7 7 6 7 7 8 9 9 9 9 10 10 9 9 9 7 8 7 7 9 8 6
10 7 6 10 15 15 14 12 10 8 7 6 5 4 4 3 3 3 4 7 8 10 12 13 13 12 12 11 11 12 13 15 15 16 15 13 10 9 8 9 10 9 9
8 8 8 8 15 15 14 12 11 10 8 7 6 6 4 2 2 4 5 6 9 10 11 13 15 15 17 16 14 14 15 17 17 17 17 17 15 12 10 10 11 10 9
9 8 7 11 15 18 17 15 12 11 10 8 7 6 4 4 5 6 8 10 12 12 13 16 16 16 17 15 14 13 14 13 13 13 10 9 8 9 10 9 10 10 10
9 9 10 13 18 20 19 17 14 12 11 9 8 6 6 7 8 9 10 10 12 13 14 14 14 16 15 13 12 12 12 12 13 12 10 11 11 9 8 6 6 7 8
8 7 11 15 18 19 18 16 14 13 11 9 8 7 8 9 10 10 11 11 11 11 11 13 14 14 13 12 11 11 10 10 11 10 9 10 10 10 8 6 5 6 6
6 12 17 17 18 20 19 17 15 12 11 10 10 10 11 13 12 11 11 12 12 13 13 12 11 11 10 7 5 5 5 7 8 8 9 9 6 7 7 7 5 3 2
11 13 14 16 19 19 20 18 16 14 12 12 12 11 13 13 13 12 12 14 13 13 11 9 8 7 9 7 5 4 3 4 5 5 4 4 6 7 6 7 6 3 3
13 15 18 21 21 20 20 18 16 15 13 13 13 13 14 14 13 14 13 12 13 10 8 5 5 4 4 4 4 4 6 5 4 4 5 4 5 6 5 4 4 5 5
14 16 18 16 17 19 20 18 16 12 12 14 15 15 15 14 15 14 13 11 10 9 7 5 4 3 2 2 1 2 4 5 4 3 5 6 5 5 3 3 1 3 5
13 16 17 16 15 17 20 18 16 14 15 16 17 17 17 16 15 16 13 11 10 9 7 7 6 5 5 4 3 3 3 2 4 5 6 8 5 4 3 2 3 3 4
12 15 15 14 15 17 18 18 16 16 18 20 19 19 18 16 14 13 12 12 12 11 10 10 9 8 7 7 6 4 4 4 4 5 6 6 5 4 4 4 5 5 5
13 17 17 16 18 19 18 16 16 21 21 20 20 20 19 16 15 14 13 13 12 12 12 11 10 10 10 8 7 6 5 4 5 6 8 5 4 5 5 5 6 6 6
15 17 18 19 20 20 19 18 19 22 23 20 22 22 20 19 17 16 14 13 12 11 11 10 10 10 9 7 7 9 7 6 4 8 8 7 7 8 8 8 9 9 8

GFSMW_925_spd_078.txt.gz
Wind_Speed
6 8 8 10 11 10 14 18 17 19 18 19 19 20 22 23 25 25 23 20 20 21 24 24 22 22 23 25 24 24 27 30 29 26 25 29 29 28 30 30 30 32 32
3 5 8 10 10 10 9 10 12 16 20 20 19 17 15 21 27 25 25 25 25 22 20 21 21 22 23 24 25 25 26 25 24 12 6 3 10 18 23 26 29 31 30
8 6 10 13 12 11 11 9 9 9 9 9 12 15 17 17 16 17 16 15 16 19 21 23 24 24 23 22 22 22 23 22 20 19 13 1 4 3 6 10 15 17 21
6 5 8 10 11 10 9 8 8 7 7 9 10 10 10 11 11 12 12 10 11 12 14 17 19 21 20 20 19 16 16 17 18 15 20 23 13 2 3 4 8 13 18
9 9 12 13 12 11 9 8 6 5 3 4 6 9 11 11 11 9 9 8 8 8 9 12 16 19 19 18 17 16 15 15 16 16 12 12 16 17 8 4 4 9 12
9 8 14 14 13 12 12 11 9 7 5 4 3 2 3 4 6 5 6 8 8 7 7 8 9 11 14 16 16 15 14 13 14 14 14 15 6 6 9 4 7 7 9
9 11 11 16 16 14 13 11 9 9 6 4 4 3 3 2 2 1 0 1 2 4 4 4 4 5 6 7 10 11 11 10 10 10 9 8 8 12 13 12 5 5 4
8 10 12 18 18 15 12 11 9 7 5 4 3 3 2 1 1 1 1 1 2 3 4 4 4 4 2 2 4 6 7 7 8 8 6 6 8 11 9 7 5 2 5
11 10 12 18 16 14 11 10 9 7 6 5 4 3 3 2 1 1 1 2 3 3 4 5 5 6 6 5 4 5 6 6 7 8 8 6 8 8 8 8 8 2 2
6 7 10 17 14 13 12 11 9 8 7 5 4 4 3 2 1 1 2 3 3 4 4 4 3 3 3 3 4 5 5 5 3 2 3 3 2 1 2 3 2 4 3
9 7 9 14 14 13 12 12 10 9 8 5 4 3 2 1 1 2 2 3 3 3 3 3 2 2 1 0 1 2 3 4 4 3 2 2 2 2 1 1 0 1 0
7 7 12 15 15 14 13 11 10 9 8 6 4 3 3 2 2 2 2 3 3 3 3 2 2 2 2 2 4 5 7 7 8 7 6 6 5 6 6 5 4 3 2
8 7 9 12 16 15 15 12 10 9 8 7 5 5 4 4 4 4 4 4 4 4 4 3 4 5 6 7 8 9 10 11 11 10 11 10 8 10 9 8 7 6 5
9 7 6 10 16 17 15 14 12 10 9 8 7 6 5 3 2 1 2 3 6 7 9 10 10 10 10 9 10 12 14 16 16 16 15 13 11 11 10 9 8 6 6
9 10 9 9 16 17 16 14 12 11 10 9 8 8 6 4 2 3 3 4 6 7 9 11 13 13 15 13 13 16 17 18 17 16 16 15 15 13 11 9 8 6 6
10 9 8 12 17 21 20 18 15 14 12 10 9 8 6 5 5 5 6 8 10 11 12 13 15 15 15 13 13 13 15 14 14 13 10 9 8 9 9 9 9 9 7
11 10 12 15 19 24 22 20 17 15 13 12 11 9 7 7 8 9 9 10 11 13 13 13 13 15 13 12 13 12 12 13 13 11 9 9 9 7 5 5 3 5 7
8 8 11 17 21 22 21 19 18 17 15 13 12 10 9 9 10 11 11 12 12 13 13 14 14 14 13 12 11 11 9 10 10 9 7 8 10 9 6 5 4 5 7
6 11 17 18 19 21 22 21 19 17 15 14 12 11 11 12 12 12 13 13 12 13 14 13 12 11 10 8 6 6 6 7 7 7 6 7 6 7 5 5 4 3 4
12 13 15 16 19 21 22 22 20 18 16 14 13 12 12 14 15 14 14 14 15 14 12 12 10 8 10 7 5 4 5 5 4 4 3 3 5 5 4 6 6 5 3
11 13 16 19 20 21 22 21 19 18 14 12 13 13 13 14 14 14 15 16 16 13 11 8 7 6 6 6 4 5 5 5 3 2 3 2 3 4 4 4 5 5 3
11 14 15 14 16 20 21 19 18 14 13 12 13 14 14 15 16 16 16 17 14 12 9 7 5 4 5 4 4 2 3 2 2 1 2 3 3 4 2 2 1 2 4
10 10 12 13 14 17 19 19 16 15 15 14 15 15 16 17 17 18 17 15 14 11 9 8 7 6 6 5 4 4 2 3 4 4 4 5 3 3 2 1 1 4 5
12 13 14 14 15 17 18 16 16 15 15 16 17 18 19 19 18 17 17 16 15 13 11 11 10 8 7 7 7 6 5 5 5 4 4 4 3 3 3 4 5 5 5
12 16 17 16 18 18 17 17 17 16 17 19 19 20 20 19 19 19 19 18 15 14 13 12 11 10 10 8 8 8 7 5 3 5 6 5 4 5 5 6 6 7 7
12 14 16 16 16 16 18 19 18 16 19 19 20 22 22 21 19 19 18 17 15 14 13 12 11 10 10 7 7 9 9 7 6 8 9 8 7 8 8 8 9 9 9

GFSMW_925_spd_081.txt.gz
Wind_Speed
15 9 6 10 11 15 18 18 17 16 17 18 19 20 22 23 24 24 23 22 20 19 20 22 22 21 20 20 19 19 19 20 20 13 15 19 21 22 23 23 24 26 26
6 9 6 8 11 11 14 17 18 19 20 19 18 17 15 17 21 19 19 21 22 23 23 20 22 21 21 20 20 20 18 16 18 7 4 4 9 12 16 14 19 18 19
9 8 10 10 9 11 10 12 14 16 18 19 18 16 15 14 13 13 14 15 16 17 19 21 21 20 20 22 22 21 19 12 16 15 10 2 4 3 11 9 11 13 14
4 5 9 12 12 10 10 10 11 11 11 11 12 12 13 12 11 11 12 12 12 13 14 15 17 19 20 21 21 19 18 16 15 12 16 20 10 2 2 4 5 10 12
10 8 13 16 13 11 10 10 10 9 7 6 7 8 9 9 10 9 8 8 8 8 8 10 12 15 16 18 18 17 17 16 13 14 12 11 13 13 7 2 6 8 9
14 12 14 15 14 14 13 12 10 8 6 4 3 3 4 5 5 5 5 6 7 8 6 7 8 10 11 13 16 17 16 16 15 14 14 13 5 4 7 3 7 6 5
10 11 13 18 19 18 16 14 12 10 8 6 5 4 3 2 2 1 1 1 2 3 4 5 5 5 4 6 9 13 14 14 12 11 12 11 12 10 10 9 5 4 2
6 11 14 19 23 22 18 15 13 11 9 7 6 5 4 3 2 1 2 2 3 4 5 5 5 5 4 4 5 6 8 9 10 10 9 8 7 6 6 3 1 1 3
8 11 14 17 19 19 18 16 14 11 9 8 7 6 5 4 3 2 2 3 4 5 6 6 7 6 6 6 6 7 6 7 8 7 7 6 5 5 7 6 4 2 2
7 8 13 15 16 15 14 13 12 12 11 9 7 6 5 4 3 3 3 3 3 4 4 4 4 4 4 4 5 6 7 6 5 5 5 4 4 3 1 1 2 3 4
8 9 11 15 16 15 15 13 12 11 10 8 8 7 5 4 3 3 2 2 2 2 3 3 3 3 2 2 4 4 4 4 3 3 3 2 2 1 0 0 0 1 3
9 10 13 15 15 15 15 14 13 11 10 9 8 7 6 5 4 2 2 1 1 2 2 1 1 1 1 3 4 5 6 6 6 7 6 5 4 4 4 4 4 3 3
7 9 11 13 15 16 15 14 13 12 10 9 8 7 6 6 5 3 3 3 3 2 1 1 2 4 5 6 8 9 10 11 11 10 9 9 7 8 7 7 7 6 6
10 10 9 13 17 18 17 16 14 12 12 10 9 8 7 5 4 2 1 1 3 4 5 6 6 6 7 9 10 12 13 15 15 14 13 11 10 10 9 8 7 6 6
9 11 10 11 15 18 18 16 14 15 13 12 11 9 7 6 5 5 4 3 4 3 4 7 9 9 10 12 14 15 16 17 17 16 15 15 13 11 9 8 6 5 6
11 12 11 13 16 21 22 20 19 17 16 14 13 11 8 7 6 6 6 7 8 8 7 9 9 10 11 12 14 16 16 14 12 13 11 10 8 11 11 10 9 9 6
14 12 13 18 20 26 27 25 22 19 17 15 13 12 10 8 7 8 9 10 10 11 11 12 11 13 12 12 13 13 14 13 12 11 9 10 9 6 4 3 3 6 8
11 10 12 16 23 25 24 22 21 20 18 16 14 13 11 9 9 10 11 12 12 12 11 11 11 13 12 11 11 11 11 11 10 9 8 9 7 6 4 3 4 6 6
11 16 21 22 23 24 25 24 23 21 18 16 15 14 11 11 13 14 14 14 14 13 13 14 12 11 10 8 7 7 8 9 9 9 7 7 6 4 2 3 5 5 3
13 15 17 18 21 23 24 25 23 21 20 19 18 15 14 15 16 15 16 14 13 14 14 13 10 9 10 7 6 6 8 8 7 6 6 4 2 3 1 4 5 5 2
10 14 18 20 21 23 24 24 23 23 20 17 16 15 15 15 16 16 17 16 16 16 14 12 10 10 9 8 6 5 6 7 6 6 4 5 3 2 3 3 4 2 2
10 14 18 16 18 21 23 22 22 19 17 17 16 16 16 16 17 17 17 18 18 16 14 12 11 10 9 9 7 6 3 4 4 5 4 3 2 1 3 2 3 4 2
10 12 16 16 16 19 20 21 19 18 19 18 17 17 18 18 18 19 20 19 19 17 16 13 12 11 10 11 9 8 6 5 4 3 3 2 2 4 4 5 4 6 5
11 13 15 15 15 18 18 16 16 19 20 18 17 19 20 20 19 19 20 19 21 19 16 14 14 12 12 12 12 12 9 8 7 5 4 3 4 5 5 6 8 8 7
11 14 15 15 15 17 17 16 17 19 19 17 18 20 21 20 21 20 22 22 20 18 17 17 14 13 13 13 12 13 12 10 7 6 5 4 6 7 8 8 8 8 8
10 12 12 13 14 16 17 18 19 21 19 19 20 22 22 22 21 21 20 21 18 17 17 15 14 13 13 10 11 12 12 10 8 9 8 8 8 9 9 9 9 10 10

GFSMW_925_spd_084.txt.gz
Wind_Speed
11 11 11 8 7 12 16 17 17 17 16 16 15 14 14 14 14 13 13 12 12 13 13 13 13 13 15 15 14 14 14 15 13 10 12 14 12 15 17 15 13 10 9
12 12 10 8 8 10 10 14 15 16 18 15 15 12 11 11 10 9 11 12 13 13 15 14 14 14 15 15 15 15 13 12 11 8 6 5 10 14 10 9 7 6 5
15 12 13 11 7 8 8 10 10 11 13 13 11 10 9 9 7 7 8 9 13 14 16 16 15 15 15 15 15 15 16 15 11 10 8 4 5 5 7 5 5 7 7
14 13 12 11 9 8 7 8 12 13 15 16 12 12 11 11 7 6 8 9 12 13 14 17 17 17 16 18 19 16 17 16 13 7 12 13 7 3 5 5 4 5 9
13 13 14 11 10 10 10 9 10 11 12 11 10 8 7 6 7 7 6 7 8 9 10 10 11 13 15 16 17 18 17 14 12 13 8 8 10 11 8 3 8 5 3
15 16 19 14 13 12 12 12 11 10 11 10 9 8 7 5 5 5 4 5 6 8 9 9 9 9 9 9 12 16 17 18 17 13 12 10 7 8 8 5 9 7 7
18 18 12 17 18 19 16 14 12 10 9 8 7 6 5 4 4 3 3 3 3 4 6 7 6 7 8 8 9 12 15 15 17 15 14 14 11 9 4 4 4 5 4
11 13 10 13 14 15 16 15 14 10 8 7 7 6 6 4 4 4 3 3 2 4 6 6 6 7 7 7 7 9 10 12 13 13 14 10 7 5 4 3 4 6 7
8 9 9 15 17 17 16 15 13 11 8 7 6 5 5 4 4 4 4 4 5 5 6 7 7 8 8 8 7 7 7 8 8 8 5 5 5 6 6 7 8 5 3
8 8 10 15 16 16 15 13 11 10 9 8 6 5 5 4 4 4 4 4 5 6 6 7 7 8 7 7 7 6 7 6 8 5 3 3 5 4 3 4 4 5 6
6 7 10 15 16 15 13 13 11 10 9 7 7 6 5 4 3 3 4 4 5 6 6 6 7 7 6 6 3 3 3 3 3 3 4 3 3 3 2 3 2 2 2
4 8 14 18 18 16 15 12 11 11 9 8 7 5 5 4 3 3 4 4 4 5 5 5 5 5 5 4 3 3 4 4 4 4 5 5 4 4 4 3 3 2 1
7 9 13 15 16 15 15 15 14 12 10 8 7 6 5 4 4 3 2 1 1 2 3 3 3 3 4 3 4 5 6 7 6 6 6 5 5 6 5 4 3 3 3
7 10 12 14 15 16 15 15 13 12 11 11 9 8 7 6 5 4 3 2 1 1 1 0 2 3 3 5 7 8 9 9 8 8 7 7 7 6 6 5 4 4 3
10 13 13 12 16 16 15 14 14 14 13 12 11 10 9 7 7 5 4 3 4 4 2 2 2 2 4 6 9 10 11 11 11 10 10 9 8 7 5 4 4 3 4
12 15 15 16 18 19 18 17 16 15 14 12 11 11 10 8 6 5 5 5 5 5 4 4 4 4 4 7 9 11 13 12 11 12 11 10 10 9 8 9 9 6 4
17 17 18 20 21 21 20 19 17 15 14 13 12 11 9 8 7 6 7 7 7 6 6 6 5 6 7 8 10 11 12 12 11 10 8 6 5 3 2 3 5 8 6
12 15 17 21 21 18 18 16 16 16 14 13 12 12 12 10 8 9 9 9 9 9 9 9 9 9 7 8 10 10 11 10 8 6 6 4 3 2 2 3 5 5 5
9 13 20 21 18 18 17 18 17 17 16 15 14 13 12 12 11 12 13 13 13 12 11 10 10 9 8 8 8 8 7 6 5 5 4 3 3 2 3 3 5 4 3
8 9 14 17 18 18 19 19 19 18 18 17 15 14 13 13 13 16 15 15 14 12 11 12 10 8 7 8 6 6 5 5 5 4 4 4 2 3 1 3 4 4 3
6 8 13 15 15 17 19 18 17 18 16 14 13 13 13 12 14 15 17 16 15 12 10 9 8 7 7 6 7 6 5 6 6 5 6 6 4 3 4 4 3 3 4
6 8 11 11 12 15 17 16 16 15 15 15 14 13 12 13 15 17 17 17 15 13 12 10 9 8 8 9 7 7 6 7 6 7 6 5 7 5 5 4 4 4 3
7 7 9 11 10 12 13 13 13 15 15 14 13 12 12 14 17 19 18 17 14 13 13 11 10 10 10 9 11 9 9 8 7 6 7 7 6 7 6 7 6 7 5
6 7 9 9 9 10 10 9 13 14 14 14 13 12 13 17 18 19 20 18 16 16 14 12 11 11 10 11 11 11 11 11 10 9 7 7 6 8 8 7 8 8 7
5 6 7 7 9 11 12 12 13 15 14 13 13 13 15 18 20 20 21 22 16 17 15 14 13 12 12 13 13 14 13 11 11 9 7 7 7 8 8 8 9 9 8
5 5 6 6 7 10 12 13 14 16 16 15 14 14 16 19 20 19 18 20 16 18 19 16 15 15 15 12 12 15 16 14 12 11 9 10 10 10 10 10 10 10 10

GFSMW_925_spd_087.txt.gz
Wind_Speed
15 11 5 3 6 9 13 14 17 17 15 16 15 15 14 13 13 13 12 11 11 11 11 11 11 11 12 13 12 12 12 13 12 11 13 16 16 16 16 14 14 9 7
18 13 10 3 7 9 12 15 16 15 16 15 16 15 14 14 14 13 12 12 12 12 12 11 11 11 12 13 13 13 13 13 11 6 8 3 8 13 9 5 6 5 4
21 17 13 8 8 11 12 14 15 15 16 15 13 14 10 10 6 8 8 8 8 9 11 12 13 13 13 14 13 14 15 14 12 13 8 3 3 5 6 3 3 5 3
17 18 14 11 10 10 11 10 11 14 15 20 16 13 10 11 10 7 6 5 7 7 10 12 14 16 17 18 19 18 16 17 15 15 15 16 10 3 3 6 3 3 5
15 12 14 13 12 13 12 11 9 10 11 11 11 10 11 9 8 7 7 6 7 9 10 10 10 9 9 15 17 17 17 20 20 18 12 12 12 10 8 4 6 7 3
15 15 17 14 13 12 12 14 13 9 8 8 8 7 8 7 6 8 6 6 6 7 9 9 9 9 8 8 9 12 16 17 18 18 16 15 6 9 7 5 8 7 4
15 17 15 15 15 15 14 14 15 13 9 8 7 6 7 7 6 6 5 4 5 4 5 7 7 7 7 7 8 8 10 13 15 16 17 17 18 12 9 6 2 4 5
9 14 14 12 16 16 16 16 17 14 12 10 10 8 7 6 5 5 4 4 3 3 6 5 6 6 7 7 6 7 9 11 13 13 13 12 11 9 10 5 5 2 7
7 11 7 6 12 16 17 16 16 15 13 11 10 8 6 5 5 4 4 3 3 4 5 6 6 7 7 8 7 5 4 7 9 8 7 8 8 8 8 7 6 3 2
7 7 5 8 17 15 17 16 17 17 13 11 10 8 7 6 4 3 2 2 2 3 4 5 6 6 7 6 6 5 5 7 8 6 5 6 7 6 4 5 5 7 7
4 6 9 14 13 16 17 16 14 14 13 11 9 8 6 6 5 3 1 2 3 3 3 4 5 5 5 5 4 3 3 4 4 4 5 5 4 4 3 3 4 5 5
2 2 5 10 13 15 16 18 17 15 13 11 11 9 8 6 5 3 2 2 2 4 4 4 4 4 5 4 3 3 2 3 3 2 4 3 4 6 5 5 5 5 4
3 5 6 9 13 15 16 15 15 15 14 12 11 9 8 6 5 4 3 2 2 2 4 4 4 3 4 2 3 2 2 3 3 3 4 5 5 5 5 5 5 4 3
3 6 9 10 14 17 17 15 14 13 13 12 11 9 7 6 6 5 4 2 1 0 2 2 2 3 2 2 2 3 4 5 6 6 6 6 7 6 6 6 5 4 5
7 7 9 10 15 16 15 14 14 13 12 11 10 9 8 7 6 5 4 3 2 1 1 1 1 2 2 3 5 5 6 7 8 8 8 6 7 7 7 5 4 4 3
12 10 11 12 16 17 17 16 16 16 14 12 10 9 9 8 7 5 5 4 3 4 3 3 2 2 1 3 5 7 9 10 9 10 10 10 10 9 9 7 6 7 4
12 14 13 16 19 20 19 18 16 15 14 12 11 10 10 9 8 7 6 5 5 5 4 4 4 4 4 6 6 6 9 9 10 10 8 5 4 4 3 5 6 6 5
12 11 12 18 21 20 19 17 16 15 14 13 12 11 11 10 9 8 8 7 8 8 8 8 6 6 5 7 8 8 9 8 7 7 6 4 4 3 4 4 5 6 5
13 12 12 18 21 21 20 19 18 17 16 15 15 14 13 12 11 11 10 11 12 12 10 8 9 8 6 7 7 7 6 4 4 6 6 4 3 2 5 3 5 4 2
14 8 8 13 20 21 21 20 19 17 17 16 15 14 13 12 12 11 12 14 13 11 10 9 9 7 7 7 7 6 5 5 5 4 4 7 4 2 2 4 3 4 2
9 5 6 11 16 18 20 19 18 17 14 14 14 13 12 12 13 12 14 14 13 12 9 9 8 7 7 7 8 8 6 6 6 6 5 5 4 3 3 6 3 4 4
2 4 9 10 11 14 16 14 13 13 14 13 12 12 11 12 13 13 14 15 14 12 11 10 9 8 8 10 8 8 8 6 6 6 5 5 6 5 5 5 4 4 6
3 4 8 9 8 10 10 11 11 13 13 13 13 12 11 11 12 15 16 17 16 13 12 12 10 10 11 10 10 10 9 8 7 6 6 7 6 6 6 7 6 6 7
4 5 7 8 8 8 8 7 11 12 13 13 12 12 12 12 12 15 17 18 17 14 13 13 12 12 12 12 11 13 12 10 10 9 8 6 6 6 7 9 10 11 10
4 3 4 6 7 7 7 7 10 12 12 12 12 12 12 14 14 17 19 20 19 17 14 14 13 13 13 15 13 14 14 12 11 9 8 8 8 9 10 11 12 12 12
3 3 3 3 5 6 6 7 10 11 12 12 14 12 12 12 15 17 16 15 17 15 17 14 14 16 14 10 12 14 14 13 12 13 12 12 13 13 13 14 14 14 13

GFSMW_925_spd_090.txt.gz
Wind_Speed
14 24 17 14 14 16 17 20 21 20 19 22 22 22 21 18 16 15 12 11 11 12 14 13 11 11 13 13 12 13 13 14 14 14 14 16 14 16 18 16 14 5 4
8 18 19 17 17 18 16 21 22 22 21 24 23 22 23 19 20 17 15 16 13 12 12 11 11 12 12 13 13 13 14 15 12 5 3 3 5 8 2 7 4 1 2
4 10 19 22 19 19 18 17 21 20 23 21 20 17 18 15 17 15 14 12 10 10 12 13 15 16 15 15 14 13 13 14 14 13 8 2 3 3 1 1 4 3 3
9 8 13 21 20 18 20 19 15 19 21 23 21 16 16 17 13 12 11 11 13 14 15 15 16 18 17 17 18 17 16 13 15 15 16 18 12 1 3 2 1 1 3
10 8 14 21 21 15 18 20 17 16 16 19 20 18 14 10 14 17 17 11 9 9 9 9 9 11 10 11 15 17 17 17 18 18 17 16 16 14 6 2 4 1 6
10 7 19 21 18 17 16 15 16 18 17 15 18 14 13 13 12 11 12 9 8 9 6 7 8 8 8 8 8 10 11 15 17 17 19 17 9 10 9 4 8 7 5
10 9 9 14 19 17 15 16 17 16 16 16 16 18 15 13 11 10 8 10 8 5 6 6 5 6 7 7 8 8 8 11 13 17 18 17 18 17 10 11 5 4 6
3 10 10 18 24 23 18 17 18 16 15 17 17 16 14 12 11 9 10 10 8 7 6 5 4 6 7 6 6 5 8 10 11 11 13 16 16 16 14 10 5 2 6
2 3 7 10 24 26 22 19 17 16 15 14 15 16 14 12 12 10 8 7 7 7 5 5 5 7 8 7 7 6 8 8 9 9 11 11 11 11 10 9 9 5 3
2 4 6 5 16 21 20 18 15 18 16 15 13 15 15 11 9 9 10 8 5 5 5 5 6 6 7 7 6 5 8 8 9 8 7 8 8 7 6 7 7 9 8
1 2 6 7 12 19 23 22 20 17 18 16 13 10 10 11 13 10 6 6 6 5 4 5 5 5 6 6 4 4 7 6 8 8 7 8 8 6 5 6 7 8 9
3 1 7 11 9 18 21 24 22 17 17 19 19 14 13 12 9 8 7 5 4 4 4 5 4 5 6 4 4 4 6 6 7 7 7 7 7 8 5 6 7 7 7
6 3 3 6 10 12 14 17 21 23 22 19 18 16 14 12 9 8 6 5 4 3 3 2 3 5 5 5 6 7 7 7 6 5 4 4 6 7 7 7 6 6 5
7 6 5 7 13 14 15 17 18 21 21 17 16 15 13 12 11 8 7 5 5 2 1 2 4 5 4 3 2 4 5 6 6 7 9 7 7 7 7 7 6 5 5
5 7 8 7 17 22 22 21 19 20 19 19 17 16 14 13 11 9 8 6 5 5 4 1 4 4 1 1 4 5 6 7 8 7 7 7 7 8 7 8 7 6 7
6 7 9 10 15 20 23 24 24 22 20 19 18 17 15 15 12 10 8 7 5 4 4 5 6 6 2 2 5 7 8 8 9 9 9 11 10 10 7 7 7 7 7
6 7 8 11 18 23 24 24 24 22 20 19 18 17 15 14 12 11 10 8 5 4 3 3 3 3 3 3 6 7 8 9 10 11 10 8 7 6 7 8 8 6 6
7 6 6 18 24 24 27 26 25 25 23 20 20 18 17 15 15 12 9 8 6 5 6 6 5 4 4 7 7 6 7 8 8 8 6 5 6 6 7 5 7 7 7
8 10 13 13 25 27 28 29 28 27 24 22 21 19 18 17 16 12 11 10 9 10 10 8 7 7 6 7 8 8 8 8 8 8 8 6 5 5 8 8 9 5 6
13 12 5 5 18 26 29 29 27 25 24 22 21 19 19 18 17 14 13 13 11 11 10 10 9 8 7 9 9 8 7 7 7 8 8 8 5 5 8 8 8 7 6
10 7 3 2 9 25 28 24 22 22 20 19 18 18 17 17 15 12 14 11 12 12 12 11 10 12 10 9 9 9 9 8 9 8 7 8 7 5 6 7 7 6 7
7 7 5 9 15 23 25 20 20 18 18 19 19 17 17 17 14 14 12 13 14 14 13 12 12 12 12 10 10 10 10 8 10 9 8 7 7 6 6 8 6 7 7
4 8 11 12 11 12 14 15 15 18 18 18 17 17 16 13 13 13 15 15 16 16 15 16 15 15 14 12 11 11 11 10 10 8 8 7 7 7 7 8 7 6 9
6 8 9 9 9 9 8 11 15 16 18 17 17 16 14 13 12 13 15 16 18 17 15 17 16 14 14 14 14 15 13 11 11 9 9 9 8 8 8 8 10 11 11
7 7 9 11 11 11 11 12 13 15 15 14 15 16 14 14 14 14 16 18 18 19 18 18 17 16 16 17 14 15 16 16 15 12 10 11 13 13 13 13 13 13 14
7 7 7 9 9 8 9 9 11 12 13 14 16 17 15 13 14 14 15 14 15 15 15 13 13 15 14 11 12 14 13 14 13 15 16 16 15 15 15 15 15 16 16

GFSMW_925_spd_093.txt.gz
Wind_Speed
11 25 26 27 20 26 26 30 29 29 27 28 31 27 27 24 22 13 18 20 17 16 18 15 13 12 12 12 13 13 13 15 13 13 15 16 18 16 18 16 16 9 9
8 13 26 26 27 25 28 32 30 28 28 27 29 29 28 25 23 25 20 16 17 15 16 16 14 12 13 12 12 13 13 13 13 5 3 2 4 9 2 1 9 11 6
8 8 15 27 28 29 26 31 31 30 30 27 26 27 23 26 23 21 20 17 14 12 13 13 13 15 16 15 15 15 14 14 15 16 9 1 3 3 2 3 7 6 3
6 11 12 19 26 33 32 28 31 31 31 29 29 26 24 23 25 23 20 19 17 11 11 12 16 20 18 19 17 17 16 14 18 18 18 18 10 2 2 2 3 3 4
9 13 16 27 29 27 27 28 23 23 29 30 29 27 24 23 21 21 25 23 21 19 18 11 19 17 19 19 18 17 18 19 18 19 17 13 13 16 10 3 4 5 7
11 9 25 29 27 20 20 21 19 17 19 23 29 28 26 23 21 21 22 20 16 14 12 13 14 13 13 11 11 12 13 16 17 18 17 16 10 8 10 3 5 5 7
9 8 10 16 23 21 20 19 19 18 16 14 16 18 19 22 22 21 20 17 12 10 9 8 10 12 11 9 10 10 11 11 13 15 16 15 17 15 10 8 5 4 8
6 8 12 21 26 24 22 20 20 20 18 14 14 13 18 19 13 18 19 15 15 12 9 7 8 8 8 8 8 8 9 11 13 12 13 15 15 15 13 12 9 2 7
5 7 8 18 25 26 25 23 19 16 15 16 15 14 16 19 22 19 15 14 12 11 8 7 8 8 9 9 9 10 11 11 9 11 11 11 12 11 11 11 12 10 3
6 6 5 12 24 27 26 21 20 20 18 18 16 14 15 16 17 16 16 16 13 10 9 7 9 10 8 8 8 9 10 11 10 10 11 10 9 10 10 10 9 9 8
6 2 3 6 12 18 19 20 20 23 23 19 16 11 15 15 14 13 12 10 9 7 6 9 9 7 7 7 7 8 9 12 10 10 11 11 10 9 8 9 8 9 9
5 5 3 4 8 16 19 21 24 26 25 24 17 15 14 15 18 14 9 4 5 6 9 9 6 7 6 7 7 8 10 10 10 11 10 10 9 9 11 12 10 10 10
5 5 6 6 7 13 19 21 24 25 23 23 25 24 17 15 13 13 12 9 8 9 8 6 5 6 6 7 7 7 8 8 7 7 8 8 9 10 10 9 9 10 9
7 6 6 8 11 14 17 19 21 23 23 21 18 20 20 17 13 12 11 12 11 9 6 4 4 5 7 7 6 6 6 6 7 7 9 9 8 8 8 8 8 8 9
7 8 8 7 16 17 18 18 22 22 23 21 19 18 17 17 15 12 12 11 8 6 5 4 4 4 5 5 5 6 7 8 8 8 7 8 8 8 8 10 10 9 10
9 10 10 10 16 22 22 21 22 25 23 21 20 20 20 19 15 14 13 10 8 8 7 6 5 4 7 6 5 7 9 9 9 8 7 8 9 7 7 8 8 9 11
6 7 8 13 20 27 29 29 26 24 23 23 23 23 21 19 17 14 13 11 8 7 7 7 6 4 4 3 6 8 10 10 10 10 11 10 7 8 9 8 8 8 9
6 7 7 15 24 29 32 31 29 28 25 24 24 23 22 20 18 16 13 11 9 8 7 7 7 5 5 7 7 7 9 9 10 10 9 8 8 7 7 7 8 7 6
5 8 14 14 24 30 33 33 30 29 27 26 25 25 23 21 19 17 14 11 8 8 8 9 9 8 7 9 9 9 10 10 9 8 7 7 7 7 7 8 9 8 8
9 11 16 10 19 29 34 32 31 30 28 27 25 23 22 21 20 16 14 11 11 10 10 10 10 10 9 9 10 9 10 10 10 10 9 6 7 6 8 9 10 9 8
10 10 7 3 7 26 32 27 28 29 28 23 22 22 20 19 18 15 12 12 11 11 12 12 12 11 10 10 11 10 9 10 11 10 10 10 7 6 8 8 10 9 9
8 7 6 8 3 22 32 28 27 26 22 21 22 21 19 18 17 15 12 12 12 14 15 14 13 13 12 11 12 11 11 10 11 11 10 10 9 9 8 9 8 8 10
5 6 8 12 14 13 24 25 20 20 21 21 21 19 18 16 15 13 12 13 15 16 16 16 15 14 14 14 12 12 12 11 11 10 10 10 10 10 9 10 10 10 13
4 4 6 8 10 9 9 12 16 18 19 20 19 18 18 17 15 14 14 15 16 17 16 16 17 16 16 17 16 15 13 12 11 10 9 10 12 12 12 12 13 14 14
7 5 6 7 8 8 9 10 12 14 15 16 17 19 18 17 15 15 15 17 18 19 19 20 20 19 19 20 17 17 18 17 15 13 13 14 15 14 14 15 16 17 16
6 8 7 7 6 6 7 8 9 12 14 15 17 19 19 17 15 16 14 14 16 15 15 15 17 17 17 15 15 15 16 16 16 17 18 18 18 18 18 19 19 19 19

GFSMW_925_spd_096.txt.gz
Wind_Speed
12 18 22 28 26 25 27 30 29 29 27 26 25 23 24 22 20 20 22 20 21 19 17 16 14 13 13 14 14 14 14 15 15 12 15 17 16 16 18 19 15 11 9
8 13 19 22 31 31 30 31 32 32 32 33 29 27 28 25 23 22 20 25 26 24 24 20 17 13 11 10 13 15 14 13 12 9 6 3 5 6 4 3 2 9 12
10 9 16 24 31 31 33 33 33 33 32 33 31 28 25 27 24 25 21 20 22 22 22 22 19 17 13 12 15 14 12 13 14 16 10 1 3 3 1 2 7 10 9
6 7 15 21 29 31 32 35 36 35 33 34 32 31 26 25 29 29 26 26 22 22 20 20 22 18 15 16 13 22 17 16 18 19 19 19 16 4 2 3 6 7 8
9 10 13 26 34 31 30 27 30 32 31 32 33 31 29 29 30 30 28 25 25 23 20 20 20 19 19 19 18 23 21 21 19 18 19 17 14 17 10 3 4 6 7
10 9 22 27 28 27 26 23 22 28 28 31 31 30 30 28 27 24 25 27 25 21 20 18 17 17 16 17 17 18 19 19 20 20 18 17 10 7 9 5 4 8 7
9 9 10 12 20 26 26 24 24 23 21 23 29 30 28 27 27 26 26 26 23 17 13 14 14 15 14 12 12 14 15 16 16 16 18 19 21 17 14 11 6 4 7
8 8 9 17 24 27 27 25 21 20 19 16 16 17 21 24 23 22 22 19 17 14 10 11 12 10 10 8 10 12 14 14 15 15 14 14 14 14 17 15 8 3 4
3 9 10 20 25 28 27 26 23 20 17 13 12 12 13 16 18 19 19 18 16 11 16 14 11 13 10 10 12 12 14 15 15 15 14 14 15 15 15 15 15 11 4
4 2 6 13 19 25 26 22 20 19 17 14 13 13 14 14 14 13 15 13 13 14 14 10 11 10 9 9 11 11 13 14 13 13 12 12 12 13 11 10 11 14 11
3 3 3 8 15 16 18 18 18 18 18 18 18 17 16 16 15 14 13 14 13 11 10 10 10 9 10 10 10 12 13 13 14 14 12 12 12 12 11 10 9 10 9
3 5 4 6 7 12 16 20 20 21 22 22 21 21 20 19 17 17 10 7 11 13 13 11 9 9 10 11 12 13 13 13 13 13 13 13 12 12 12 11 10 10 9
4 3 3 4 7 10 14 18 21 23 23 22 21 20 20 21 20 14 13 12 12 12 13 11 8 9 10 11 12 11 12 12 11 11 11 11 12 13 13 13 13 13 11
3 3 3 5 9 11 15 17 20 23 23 23 21 21 20 19 18 15 14 16 16 13 10 7 7 7 10 11 11 11 11 10 9 9 8 9 10 11 12 11 10 9 9
6 7 7 7 13 13 15 17 19 22 23 22 21 21 19 17 14 15 17 15 13 11 8 6 7 8 8 8 12 11 10 8 8 8 9 9 11 10 10 9 10 10 11
9 10 9 8 13 19 21 21 22 23 23 23 23 21 21 20 20 18 16 14 12 7 8 9 9 8 8 8 11 10 10 9 8 8 7 7 6 6 5 7 8 9 11
8 8 9 11 20 24 24 25 24 23 24 24 23 23 22 21 20 18 16 13 11 11 11 9 8 8 7 8 9 9 9 9 8 8 8 6 6 7 7 6 6 7 10
5 6 6 12 20 25 24 23 23 26 27 25 24 23 23 22 19 17 16 14 13 11 9 8 7 8 7 6 7 8 9 9 9 9 8 7 7 7 6 6 7 5 5
5 8 12 14 15 20 26 26 25 27 28 26 25 24 22 20 19 19 17 14 11 11 10 8 9 10 8 8 9 10 8 8 9 9 9 8 8 7 8 7 7 7 7
8 11 12 15 14 18 24 27 27 29 30 28 26 24 23 22 22 20 17 15 12 10 11 10 10 10 10 9 8 9 10 10 10 9 8 8 8 7 8 9 10 10 10
9 10 11 9 10 13 25 26 27 30 30 26 23 22 23 22 20 19 17 14 11 11 11 11 12 12 12 10 10 11 11 11 11 11 12 9 9 8 8 10 11 10 9
8 8 6 7 7 9 24 24 28 28 23 21 22 22 21 20 19 19 16 14 11 12 12 13 14 13 13 12 12 13 12 10 12 13 12 12 12 10 9 9 8 9 10
6 5 6 8 6 5 18 21 22 19 19 20 21 20 19 18 19 19 16 12 12 14 15 16 16 16 15 16 15 15 14 13 13 12 12 11 12 11 9 9 8 10 12
5 6 5 7 11 8 6 12 15 18 20 20 19 19 19 18 17 17 15 14 15 16 17 17 17 18 16 17 17 16 14 13 13 12 11 11 12 12 11 11 12 13 14
5 7 8 8 9 8 10 9 11 14 16 16 17 17 17 17 16 15 15 16 16 16 18 19 18 17 18 19 18 18 18 17 16 14 13 14 14 15 14 14 15 16 15
5 8 8 9 8 9 8 6 6 9 12 14 14 15 16 16 15 15 14 13 14 14 16 16 15 16 17 15 13 15 16 17 17 16 18 18 19 19 19 18 18 18 19

GFSMW_925_spd_099.txt.gz
Wind_Speed
7 14 14 16 21 27 28 27 26 28 28 27 24 23 23 21 19 26 25 26 23 24 21 19 17 15 14 12 11 12 12 12 12 12 16 14 14 15 16 17 17 12 10
7 8 13 16 20 23 27 26 27 29 29 29 29 27 26 22 21 21 22 25 27 26 23 19 18 19 18 16 15 13 13 12 12 7 12 2 5 8 5 6 3 3 6
11 8 12 20 22 24 26 26 29 32 31 30 29 25 20 20 22 25 24 24 27 27 27 24 22 22 19 17 13 13 13 14 9 11 7 2 3 3 3 2 3 7 9
7 7 9 16 23 27 29 29 27 29 33 31 31 30 24 20 29 31 29 25 24 25 28 26 26 25 19 18 18 17 14 16 13 16 17 19 17 3 3 3 5 6 9
9 10 10 21 28 28 28 28 27 25 24 26 28 29 28 29 28 26 31 30 25 22 23 23 22 23 18 15 14 17 17 16 14 15 16 17 19 16 10 5 5 7 8
10 9 18 21 21 28 27 26 24 24 24 26 24 27 29 27 25 24 22 23 22 22 21 17 14 13 14 13 16 19 16 17 14 15 16 16 9 4 8 4 5 6 9
11 9 8 10 19 21 26 24 23 24 24 25 23 24 26 26 26 26 23 22 22 17 13 11 12 12 11 10 12 13 15 16 13 11 15 16 17 18 17 13 8 4 8
8 8 9 15 20 23 27 25 24 24 22 20 21 22 22 24 23 22 21 19 21 18 15 12 4 9 7 8 9 10 14 13 13 12 13 13 13 13 14 17 12 3 3
7 9 10 18 23 22 24 25 24 21 18 17 15 15 14 17 18 18 16 16 18 17 13 11 9 10 12 9 9 10 11 14 15 14 14 13 14 14 15 17 16 11 4
6 4 3 11 20 23 21 18 20 19 16 14 13 13 12 13 13 14 15 16 16 14 13 11 10 9 10 11 11 11 12 14 13 13 13 13 14 14 14 14 15 16 11
4 4 3 2 8 12 15 15 16 16 16 15 13 12 12 13 14 14 16 16 14 12 11 10 9 8 10 10 10 10 11 13 12 13 13 13 13 12 12 13 12 12 10
2 2 3 4 6 8 9 11 12 14 14 15 14 14 14 15 17 18 18 17 18 15 9 6 7 7 9 10 9 9 10 11 10 11 12 12 11 11 10 12 12 11 9
3 0 1 2 2 4 9 13 15 16 16 17 18 17 17 17 17 17 18 17 14 9 9 8 7 6 8 9 9 10 10 11 11 10 11 10 12 12 12 13 12 11 11
1 2 3 3 4 5 8 11 14 15 17 19 19 19 19 18 17 16 14 13 11 9 6 7 7 7 8 9 10 10 10 10 11 10 9 8 10 13 13 14 14 12 12
5 6 6 6 7 7 8 10 14 17 19 21 21 20 18 17 16 16 12 10 9 7 5 5 6 8 8 8 8 10 11 9 9 8 9 10 10 12 14 13 13 11 11
7 8 7 6 9 11 11 12 16 20 22 24 22 20 19 19 18 15 13 11 10 7 6 7 9 8 7 7 8 9 9 9 9 8 8 8 8 8 9 10 10 10 10
8 8 8 8 15 16 16 18 19 19 22 22 22 21 21 19 18 16 14 13 10 8 8 8 7 7 7 6 8 8 8 9 9 8 8 7 6 5 6 6 5 8 9
7 6 5 8 11 14 17 20 18 20 23 24 23 21 21 20 18 17 16 13 10 9 8 8 8 7 6 6 5 7 8 9 9 8 7 7 6 5 7 6 5 4 4
3 7 9 11 13 14 16 18 19 20 22 23 23 22 22 21 20 19 16 14 12 11 10 8 7 7 7 7 7 8 9 8 8 7 8 8 8 7 7 7 5 4 3
4 8 11 14 15 18 15 18 22 23 26 27 26 23 22 22 22 20 18 16 13 9 7 8 8 8 9 9 8 9 8 9 8 8 8 8 8 7 7 8 8 7 6
5 6 8 10 13 12 11 19 22 27 28 25 24 22 23 23 21 20 18 14 10 7 8 10 10 11 11 11 9 10 10 10 10 10 11 9 8 7 7 9 10 9 7
5 6 6 8 10 8 11 18 23 22 21 21 21 21 21 21 20 19 16 13 11 8 8 11 12 12 12 13 11 11 12 9 11 12 12 11 10 9 8 9 7 9 8
4 5 6 9 12 6 5 11 12 13 17 18 20 20 20 20 19 18 17 15 12 10 12 13 15 15 14 14 14 12 13 13 13 12 11 11 11 12 10 9 10 9 13
4 5 5 9 13 12 4 2 9 13 17 18 18 18 19 18 16 15 15 14 13 13 15 14 16 17 15 14 15 16 15 14 14 14 12 11 11 13 14 12 10 11 13
4 7 8 9 10 11 12 9 9 12 15 14 15 16 16 16 15 14 14 15 14 14 14 15 16 16 16 16 15 16 18 17 16 15 14 11 12 14 14 13 13 14 15
4 8 8 10 10 11 12 10 8 7 10 11 12 13 13 13 13 14 13 12 13 12 12 13 15 14 15 13 11 12 15 16 15 15 16 15 17 18 18 18 18 18 18

GFSMW_925_spd_102.txt.gz
Wind_Speed
1 8 13 25 31 36 33 34 34 28 29 19 22 26 26 27 26 26 26 26 25 24 23 22 20 19 18 16 15 14 14 11 8 6 6 3 10 8 9 9 10 12 8
5 4 8 20 28 33 37 39 37 38 40 38 28 26 33 32 29 23 26 28 28 28 26 23 23 22 20 20 19 17 12 9 9 5 2 2 1 4 3 4 7 2 2
8 6 8 15 21 24 28 31 32 36 38 36 34 33 28 28 25 25 23 25 28 32 28 27 24 22 20 20 16 14 11 8 8 8 5 0 3 1 5 4 3 4 5
6 6 8 13 18 22 24 24 28 29 30 30 32 31 28 25 29 30 27 26 26 28 28 27 25 23 20 20 13 13 8 9 11 13 13 16 7 3 2 3 4 7 8
9 9 9 20 23 20 20 21 22 21 22 24 25 26 27 22 24 22 19 21 23 23 23 23 25 22 19 15 10 7 6 12 12 10 9 6 10 11 6 2 3 7 11
9 9 17 21 20 18 20 19 20 22 21 20 22 23 24 24 21 19 16 16 20 20 20 19 18 15 12 5 4 12 15 14 12 11 10 9 6 3 2 1 4 5 8
7 8 9 11 19 20 21 23 20 19 18 17 18 19 19 18 18 17 16 16 16 19 18 16 13 13 12 12 16 12 10 10 10 9 7 7 8 10 11 9 5 6 9
7 9 10 18 24 23 21 20 22 20 18 18 18 17 16 15 15 16 16 16 17 17 15 15 16 16 14 13 10 9 7 7 9 8 8 7 9 8 8 9 5 4 7
5 8 7 14 21 20 19 21 22 19 16 15 14 14 14 15 15 14 15 14 13 16 17 17 16 13 12 9 6 4 4 7 9 9 9 10 8 10 9 11 11 8 5
5 5 1 5 6 11 15 15 16 16 14 14 14 13 11 11 11 11 12 13 17 20 20 17 13 9 6 5 5 4 5 6 8 9 9 9 9 10 9 9 11 10 10
4 5 6 7 3 5 8 11 12 14 14 13 12 11 10 10 9 9 10 14 19 19 17 13 11 8 7 5 3 4 6 7 9 9 10 10 10 9 9 8 9 10 10
3 4 6 6 5 7 8 11 13 14 13 12 10 10 10 11 12 12 14 16 17 16 15 14 12 9 4 2 3 5 6 7 7 8 9 10 8 7 7 8 9 10 10
4 4 5 5 5 3 6 9 11 12 12 13 13 13 12 13 14 15 16 16 17 15 12 9 7 4 3 3 2 5 5 6 6 6 6 7 7 7 7 9 9 9 9
3 3 3 2 2 2 3 5 7 9 12 14 15 15 15 15 16 17 17 16 14 12 9 6 5 5 4 1 1 4 6 7 7 6 6 5 4 7 10 11 13 13 12
4 4 4 4 4 2 1 2 5 8 11 15 16 16 16 16 16 16 15 14 11 8 7 6 6 5 2 2 3 5 7 8 6 5 5 5 6 8 9 10 12 13 11
4 6 6 5 6 7 7 6 7 10 13 16 17 17 17 17 17 17 16 11 10 10 9 8 4 1 2 2 3 6 8 7 6 6 5 5 6 6 7 7 9 9 8
6 6 6 6 9 10 10 12 10 11 14 16 18 19 19 18 18 17 14 13 12 10 9 6 2 1 1 1 3 5 6 7 6 6 5 5 5 5 5 5 4 4 6
7 5 4 5 8 6 7 11 12 15 17 18 20 20 19 19 18 17 15 14 13 10 7 4 3 2 1 2 3 3 5 7 7 6 6 6 5 5 5 5 4 4 3
1 2 5 9 11 12 11 9 11 16 19 21 22 22 22 20 19 19 18 15 13 10 7 5 4 3 3 4 5 5 5 8 8 7 6 7 6 6 5 5 4 3 2
5 8 11 13 14 14 12 13 13 17 22 23 24 23 22 22 23 21 19 16 12 10 7 5 5 5 5 5 6 6 7 7 8 7 7 8 7 6 5 7 5 4 3
7 8 9 10 12 12 10 12 14 20 22 20 20 22 23 23 22 21 19 16 12 9 7 4 6 7 7 7 8 7 11 9 8 8 8 8 6 6 5 8 7 5 4
7 7 9 10 12 10 8 9 12 12 14 17 20 22 21 21 20 19 18 14 12 10 7 4 6 8 9 9 10 10 12 11 10 9 7 8 7 7 6 6 8 5 5
6 8 7 9 12 9 2 4 6 9 13 17 19 20 19 18 19 19 17 16 14 12 9 7 8 9 10 11 12 11 11 13 12 9 8 7 7 8 8 6 6 5 9
6 7 5 7 11 12 6 1 5 9 15 18 18 18 19 19 18 17 17 17 16 13 10 10 11 12 12 12 11 12 13 12 13 13 10 8 7 8 9 9 9 9 9
5 6 6 7 9 11 12 9 6 8 13 15 16 17 17 18 17 16 16 16 13 12 11 12 12 11 12 10 9 11 13 14 13 12 11 10 9 10 11 11 10 11 10
5 4 5 7 9 12 13 12 9 8 11 13 13 14 15 14 14 13 12 11 10 10 10 10 10 10 11 8 8 8 10 11 12 13 14 14 14 14 13 13 13 12 13

GFSMW_925_spd_105.txt.gz
Wind_Speed
1 11 16 27 27 19 19 19 19 16 14 20 20 18 19 20 23 25 24 26 26 24 24 23 20 19 19 18 17 16 14 13 8 4 3 5 6 7 6 2 3 7 4
3 5 15 21 27 26 26 24 32 35 25 20 14 15 15 19 25 26 26 29 27 26 26 26 24 23 23 21 19 17 12 11 9 4 0 2 4 6 5 5 3 4 2
7 7 9 18 23 29 32 32 32 29 27 24 23 14 14 22 21 24 27 30 32 32 28 27 26 25 26 25 21 19 15 5 1 6 3 2 3 2 5 4 4 6 5
4 5 8 12 19 29 34 39 37 32 27 38 29 31 25 20 22 21 16 36 24 27 26 25 24 25 24 23 17 15 9 4 5 11 12 14 10 3 2 5 6 7 9
8 8 7 16 20 20 23 28 29 34 39 37 33 38 41 36 37 28 35 37 22 24 23 23 24 24 25 23 20 15 8 11 13 15 10 8 8 8 6 4 3 7 10
8 8 13 9 13 14 18 19 19 24 34 33 31 32 35 31 29 27 26 26 23 21 21 20 20 21 23 21 20 19 17 17 18 16 8 6 4 3 4 3 4 5 6
9 7 8 8 12 17 16 18 20 22 23 23 23 24 23 22 19 17 16 16 14 15 16 16 16 16 18 20 18 18 16 15 16 11 7 7 7 7 6 7 9 6 7
6 5 8 13 17 18 18 19 20 21 20 19 20 20 17 16 15 14 13 14 14 14 14 15 14 17 19 17 15 14 13 10 9 7 6 5 6 7 6 7 6 4 6
3 7 9 14 18 22 22 19 18 18 16 18 16 15 14 15 15 13 12 13 13 14 16 17 18 19 18 16 14 11 10 9 7 6 4 5 6 6 6 7 8 5 3
4 1 3 9 15 20 19 14 14 16 17 16 15 14 12 12 11 11 12 14 14 16 20 22 22 20 17 15 12 11 8 6 4 3 4 5 6 6 7 8 8 8 9
3 3 3 3 7 7 10 12 13 17 17 17 14 12 11 10 10 10 11 13 16 21 22 21 19 17 15 13 11 9 7 5 3 4 5 5 6 7 7 7 8 7 9
4 3 5 9 9 8 10 12 13 13 13 13 12 12 11 11 11 11 13 14 18 20 20 18 17 15 13 10 7 6 4 3 3 3 5 5 6 7 7 6 6 7 10
4 4 5 6 9 10 10 11 11 12 13 13 13 13 12 11 12 13 15 18 20 20 19 17 16 14 11 8 6 5 3 1 1 2 4 4 4 5 5 6 6 8 8
4 3 5 4 9 8 7 9 11 12 13 14 13 13 14 15 16 18 19 20 20 21 20 17 14 11 9 7 5 3 2 2 0 2 3 3 3 3 5 7 8 10 10
7 5 4 4 6 6 6 5 7 10 12 14 15 16 17 18 20 20 21 20 19 18 16 14 12 10 9 7 5 4 1 1 1 2 3 3 3 4 5 6 8 9 10
7 5 3 3 4 2 2 4 5 8 11 14 15 16 18 21 22 22 21 20 18 15 13 13 11 10 8 7 5 4 2 4 1 1 2 3 4 4 4 6 7 8 7
6 6 5 3 3 4 5 4 4 7 12 15 18 20 20 21 23 23 23 20 17 15 14 12 11 9 8 7 5 4 4 6 3 2 3 4 4 3 3 4 4 3 5
4 4 3 3 2 1 3 3 6 10 12 15 18 21 23 22 21 20 20 18 17 16 15 13 10 9 8 7 6 4 3 4 2 3 4 5 4 3 4 4 4 4 3
3 3 5 7 6 6 5 7 7 11 15 18 21 24 24 22 22 23 21 19 19 18 15 12 11 10 8 7 6 2 1 1 1 3 4 4 4 4 4 4 4 3 2
5 5 7 8 10 9 7 8 11 12 19 22 22 21 23 25 26 24 23 21 19 18 14 12 10 9 8 6 6 5 3 3 1 3 4 4 5 4 4 6 5 5 4
5 6 7 7 9 11 9 11 12 17 18 17 18 21 23 24 22 23 22 20 18 16 13 11 9 9 8 7 6 6 6 4 3 4 5 5 4 5 5 7 7 5 4
8 9 8 10 11 12 9 9 12 13 12 14 18 21 22 21 21 22 20 19 17 15 13 10 7 8 8 6 7 7 7 8 6 6 5 5 7 7 6 7 6 5 6
7 9 7 8 12 13 8 6 6 6 10 16 19 20 20 20 21 22 22 20 17 15 13 11 8 5 7 8 9 8 8 9 11 7 5 4 6 7 8 8 7 6 9
5 6 6 7 10 12 9 5 1 5 10 16 19 21 22 20 20 21 21 20 19 16 13 11 8 7 7 8 8 9 10 10 11 11 9 7 6 7 8 10 10 10 9
4 5 6 7 9 11 13 10 6 5 9 13 16 18 19 20 19 18 19 19 17 15 13 10 9 9 8 7 7 8 10 11 12 12 11 11 9 10 11 11 12 11 10
3 5 6 8 9 11 13 13 9 6 9 12 12 14 16 16 16 16 13 13 11 11 10 8 8 7 8 6 7 7 7 8 10 13 14 14 13 13 12 12 12 12 13

GFSMW_925_spd_108.txt.gz
Wind_Speed
5 22 19 20 24 30 25 21 23 22 21 20 17 13 14 13 12 12 13 15 16 17 17 15 14 15 14 14 13 11 10 9 6 5 5 7 8 8 7 5 5 4 3
10 10 17 23 18 24 23 21 18 21 24 17 17 11 11 8 9 9 11 12 14 15 16 17 16 16 15 15 14 14 11 10 8 1 1 3 6 6 7 6 6 6 3
15 16 21 23 10 21 25 24 23 21 21 19 17 12 6 5 4 8 9 13 15 16 17 17 17 17 20 20 17 13 12 10 6 5 4 3 4 2 6 8 5 4 3
10 13 17 20 25 31 20 26 20 14 23 20 12 6 5 11 9 16 13 14 18 19 16 19 24 26 25 23 21 18 17 14 10 7 15 17 12 4 4 5 7 7 7
12 10 9 19 23 33 40 29 32 28 16 11 13 23 18 26 26 20 17 16 15 16 15 22 32 28 26 21 22 21 19 20 19 16 11 7 11 12 9 8 6 6 8
12 11 12 9 13 18 29 29 29 31 36 36 36 32 30 29 25 25 25 21 23 23 25 35 36 29 27 24 23 24 27 24 19 13 14 10 8 9 10 7 10 8 6
11 12 13 13 14 20 19 17 20 24 35 39 42 39 35 36 38 35 29 30 29 31 34 34 28 24 21 20 21 30 28 27 21 16 12 9 10 10 8 7 8 8 5
11 9 8 10 14 15 16 18 19 17 18 25 32 31 34 33 33 33 35 32 34 32 29 25 20 17 16 20 25 27 23 21 17 14 14 11 9 8 7 7 7 5 10
11 9 6 11 16 15 18 19 18 18 18 18 19 21 23 23 27 27 26 25 24 22 19 21 18 17 19 21 22 19 18 18 15 13 10 8 7 7 7 8 8 9 4
5 4 5 11 12 10 13 16 18 18 17 16 15 15 14 15 15 13 15 16 17 18 19 21 20 20 20 19 18 16 15 12 11 10 9 7 7 7 7 8 9 10 11
4 2 3 4 4 10 14 14 14 15 16 15 14 14 14 15 14 12 15 15 15 16 19 20 20 19 18 17 15 14 12 10 9 8 7 7 6 7 7 7 7 9 9
4 4 4 5 2 5 11 13 12 14 13 13 13 13 13 13 12 12 13 14 16 18 21 22 20 18 17 15 13 12 11 8 8 7 6 7 7 7 6 7 7 8 6
5 5 7 7 8 5 6 9 11 12 12 13 14 14 14 13 12 13 16 17 19 21 21 21 21 17 15 14 11 9 8 7 6 6 6 7 6 5 5 5 7 7 7
7 7 7 7 8 9 6 7 9 10 11 11 12 13 14 13 14 15 16 18 20 21 20 18 16 15 15 12 9 8 6 6 6 7 6 5 5 4 4 5 7 8 9
9 6 5 5 6 7 7 7 6 8 10 11 11 11 11 12 14 16 17 18 18 18 18 18 17 14 13 12 10 8 6 4 4 5 5 4 5 5 5 5 7 7 7
11 7 5 4 3 3 2 2 4 6 8 9 10 11 13 14 14 14 16 17 18 17 18 16 15 14 13 13 11 9 6 4 4 4 4 4 5 6 5 6 7 7 7
9 7 4 3 5 4 2 2 2 3 4 5 9 12 12 14 15 15 16 17 19 19 17 15 14 12 10 11 9 8 5 3 2 5 6 7 8 7 5 5 5 5 6
7 4 3 3 4 4 3 2 6 8 10 10 10 11 12 12 14 16 16 15 16 15 15 15 15 14 11 11 9 8 5 4 4 5 7 7 7 6 5 4 4 5 4
5 5 5 4 3 2 2 3 5 7 10 13 17 18 19 18 17 16 16 18 18 19 19 18 17 14 12 13 12 10 8 7 5 5 6 7 8 6 6 5 4 3 3
8 8 7 6 5 5 5 5 7 9 14 14 15 18 19 21 22 21 21 20 22 19 18 18 15 13 11 15 16 11 9 7 5 4 6 7 7 7 6 5 4 3 4
9 10 8 7 8 9 8 8 8 12 11 11 14 17 19 20 20 24 22 20 19 19 15 13 12 12 12 13 15 14 8 6 6 6 6 7 7 6 6 6 5 4 3
5 6 5 4 7 9 9 10 10 10 10 10 12 15 16 18 19 20 19 18 18 16 13 12 10 10 11 14 14 13 12 9 7 5 5 6 7 8 7 6 6 5 4
5 5 4 3 5 7 6 9 7 6 5 8 10 13 15 15 18 19 20 18 16 14 14 13 12 10 11 10 14 12 12 12 10 7 5 5 6 7 7 8 8 6 6
7 7 8 8 9 10 9 7 7 3 3 7 11 13 15 16 15 15 20 17 17 15 14 13 11 8 9 10 12 12 11 12 11 9 8 7 6 6 7 8 9 8 7
4 4 6 6 8 10 10 10 8 3 2 4 6 9 9 13 15 14 17 19 19 15 14 12 11 12 11 14 12 11 11 10 11 12 11 9 8 6 7 7 9 9 8
1 1 2 3 6 8 9 11 10 5 4 6 8 9 11 12 14 16 13 16 13 13 12 10 11 12 10 10 10 10 10 10 12 12 11 9 9 10 9 9 9 10 10

GFSMW_925_spd_111.txt.gz
Wind_Speed
16 19 19 20 19 17 13 27 31 28 25 24 21 19 19 17 14 14 15 16 15 14 14 12 12 11 10 10 10 9 9 8 6 5 6 7 9 8 9 7 6 3 3
15 15 16 12 14 17 16 6 23 30 27 25 22 18 18 16 14 14 13 12 12 13 15 14 12 10 11 11 12 12 9 10 9 4 2 1 4 8 7 7 5 4 4
16 9 11 13 8 11 11 9 5 20 21 22 21 20 17 15 12 13 13 14 13 14 14 14 12 9 10 12 11 13 13 10 9 11 5 2 4 3 7 7 7 6 6
14 15 12 20 30 24 13 14 16 16 16 19 22 28 17 15 11 10 8 10 10 13 14 16 15 18 13 12 14 18 16 14 12 11 15 11 1 1 2 3 7 7 7
8 17 19 22 25 28 31 31 29 22 20 21 17 16 15 14 14 14 8 6 6 10 11 16 13 13 15 15 18 18 20 19 21 16 5 9 7 8 6 4 3 6 8
12 10 15 19 23 21 23 27 30 28 26 22 22 19 18 20 16 13 9 11 17 17 18 16 16 16 13 18 28 28 29 27 27 25 13 8 5 7 6 5 9 8 5
14 13 11 10 14 19 27 28 32 35 36 37 34 27 25 23 18 15 15 12 25 29 35 26 27 24 20 26 31 30 28 25 28 24 18 13 11 9 7 5 5 4 3
11 12 12 13 16 19 19 26 28 28 29 31 36 34 28 21 13 22 19 31 37 27 29 33 31 29 27 26 29 27 29 28 28 23 14 12 11 10 7 6 5 4 9
6 8 11 15 18 20 21 23 23 31 36 40 39 43 39 31 31 37 38 37 31 31 34 32 24 24 23 22 22 25 26 23 16 12 13 12 9 8 7 8 8 7 2
2 6 5 5 9 13 17 21 22 21 20 21 22 26 29 30 34 31 30 31 29 30 29 24 22 22 18 19 21 19 17 16 12 13 12 11 8 6 7 7 8 10 10
5 4 4 6 6 6 8 11 15 17 17 18 16 18 16 20 22 25 22 24 24 24 24 23 23 21 20 19 19 16 16 14 14 11 8 8 6 5 7 6 8 10 11
7 7 7 6 5 7 9 10 13 15 15 16 16 15 16 19 21 18 21 20 20 21 23 23 23 22 20 18 17 17 16 14 10 9 9 7 8 8 7 7 9 10 10
10 10 9 7 4 5 8 12 10 10 13 16 16 15 15 16 17 16 17 18 19 19 21 21 21 21 20 18 15 14 14 12 9 9 7 6 7 6 7 7 7 6 8
11 10 9 8 8 7 9 9 9 10 10 11 14 15 15 15 15 14 15 17 17 18 21 21 21 21 19 17 15 14 12 10 8 7 7 8 7 7 8 8 7 7 9
12 11 9 8 11 11 9 9 9 11 11 12 10 9 10 11 12 13 13 14 16 17 21 22 20 18 17 17 16 13 11 9 7 6 5 5 7 8 7 5 5 7 7
12 10 9 9 9 10 8 7 7 7 8 9 10 9 9 8 10 13 14 15 16 18 19 18 18 17 15 16 14 13 11 10 8 6 5 5 5 6 7 7 8 10 6
10 9 9 9 10 11 8 7 5 6 6 8 9 10 11 11 12 12 15 16 17 18 18 18 18 16 13 17 15 13 10 8 6 6 7 7 7 7 5 6 6 7 7
9 10 9 11 11 10 9 6 3 2 3 5 8 11 14 16 17 18 17 17 17 17 17 16 15 15 13 16 15 13 9 7 6 6 6 7 6 7 7 5 6 8 6
8 9 8 9 11 11 11 8 4 2 4 6 8 10 12 14 16 17 19 19 19 18 17 16 16 14 12 14 13 12 8 5 5 5 4 6 8 9 8 6 8 5 6
11 10 9 8 5 6 9 10 11 10 9 7 7 10 13 15 16 17 18 18 19 19 16 14 14 14 12 15 14 12 8 7 5 4 4 8 9 10 8 6 6 7 6
11 11 11 9 7 7 7 7 8 10 12 11 8 10 12 15 16 18 19 18 17 17 14 14 13 13 11 14 15 15 8 5 6 5 7 10 10 10 8 8 8 7 5
11 11 9 9 9 10 9 9 8 7 8 9 10 10 11 13 17 18 18 16 14 14 12 12 12 13 14 13 15 13 9 6 6 9 10 8 10 12 10 8 8 9 6
8 8 8 8 9 10 10 11 9 9 7 7 10 12 12 12 14 17 17 15 13 13 13 14 14 14 14 12 12 12 11 11 10 11 12 12 11 11 10 10 10 8 6
5 6 7 6 6 8 9 10 10 8 5 5 7 9 12 12 11 10 14 14 14 15 15 16 14 14 13 11 11 16 15 16 18 16 14 12 9 8 6 8 10 10 8
5 4 5 4 5 7 7 9 10 8 3 2 5 8 10 14 14 12 14 15 16 16 16 17 17 16 15 20 22 20 19 19 21 17 15 13 11 8 7 8 9 10 11
5 4 4 5 6 7 9 11 12 10 5 1 3 6 8 10 14 13 13 16 16 18 15 15 17 18 15 15 17 17 17 16 14 16 14 14 13 10 9 10 10 11 11

GFSMW_925_spd_114.txt.gz
Wind_Speed
4 10 10 10 8 8 5 16 14 26 28 33 30 30 29 28 28 28 26 25 22 21 19 16 15 16 14 12 12 10 10 10 5 7 6 9 11 12 9 8 5 6 5
12 7 12 12 14 12 17 8 24 31 31 33 31 29 28 29 26 28 25 24 22 19 19 16 15 15 14 13 13 14 11 10 10 4 3 1 7 11 12 7 6 3 2
16 10 7 12 12 11 10 10 6 31 32 31 28 23 23 21 21 21 22 22 21 21 18 16 15 13 14 14 12 14 14 10 11 13 5 2 3 3 10 10 6 6 4
14 12 11 13 15 14 10 10 7 12 19 34 31 32 27 23 25 25 22 19 17 16 16 17 15 14 14 17 17 14 12 9 13 14 18 5 2 2 1 6 8 9 8
14 13 9 20 15 14 17 10 10 9 9 22 30 33 26 25 26 22 20 20 18 16 15 13 15 13 13 16 18 10 9 14 10 13 14 10 8 7 5 3 2 8 7
9 11 9 18 20 15 16 17 19 23 8 5 12 19 21 19 24 26 25 22 17 14 13 8 10 6 7 13 15 13 12 17 15 16 28 18 4 5 6 4 6 5 6
5 4 11 12 23 29 25 19 29 25 20 14 17 19 13 14 19 27 25 20 20 20 18 16 13 13 12 21 21 18 17 20 26 25 27 22 14 9 7 4 2 1 1
8 7 6 7 17 23 23 22 26 37 34 21 24 21 18 20 23 19 17 20 20 17 17 20 20 21 23 28 29 29 27 22 25 26 24 20 14 11 11 7 5 1 3
5 8 8 13 18 19 22 27 25 24 24 31 36 32 32 24 24 21 17 19 21 21 17 15 9 22 29 31 29 28 25 21 23 23 21 16 12 12 10 9 8 5 1
9 7 5 5 15 16 19 18 27 27 30 32 36 38 31 32 32 28 34 29 19 19 23 17 20 24 30 29 27 29 23 19 18 17 14 13 12 10 10 9 8 7 7
7 7 7 9 7 5 14 20 23 24 28 29 34 33 30 34 34 34 34 31 32 36 32 26 29 29 29 26 22 20 17 19 16 13 13 12 11 9 7 6 8 8 9
7 6 5 6 4 2 4 9 8 12 9 16 22 20 21 20 22 21 22 28 31 30 30 27 23 24 23 19 19 18 17 16 16 13 12 11 10 9 9 9 7 8 8
8 7 7 6 7 5 1 5 7 11 9 7 8 6 11 14 16 19 22 23 21 20 20 19 21 21 20 20 18 18 17 15 13 13 12 11 11 9 10 9 9 8 8
8 7 5 6 11 12 12 8 9 9 13 15 12 9 5 8 13 13 13 14 16 16 15 16 17 18 19 17 17 18 18 16 13 11 10 10 9 8 8 9 9 9 7
10 9 8 7 14 16 14 12 11 7 8 12 13 5 3 7 12 13 13 13 12 14 15 16 17 18 20 20 19 18 17 16 15 12 11 11 10 9 10 10 9 8 8
11 10 10 9 14 16 12 11 9 8 7 9 12 16 15 14 12 13 16 17 16 17 19 19 21 22 21 19 18 16 17 15 12 11 9 7 7 7 7 7 7 8 8
10 11 10 9 16 16 14 13 8 7 7 9 11 13 15 15 14 15 16 18 19 19 21 21 20 19 18 17 18 17 15 14 12 10 9 6 5 4 5 6 7 6 7
9 8 10 14 14 13 14 10 6 5 4 6 8 10 12 13 14 16 17 18 19 20 21 21 20 20 18 21 19 17 15 13 11 10 9 8 6 7 8 6 6 6 6
8 10 13 12 11 14 14 13 12 7 2 1 4 7 10 13 15 17 18 18 19 19 19 20 20 20 20 21 20 17 14 11 9 8 7 7 9 7 7 8 8 7 6
12 14 18 14 14 15 15 13 10 9 8 6 6 9 10 13 15 16 17 19 21 21 21 20 19 17 18 18 18 15 13 11 10 8 8 7 6 7 9 9 5 7 6
9 11 11 11 12 14 16 15 13 10 9 8 7 8 12 15 16 17 20 20 20 20 20 20 19 18 17 20 20 17 14 12 12 8 6 6 9 10 9 8 8 6 4
8 9 10 11 11 12 13 12 11 13 13 11 9 9 12 15 17 20 21 20 21 21 19 18 17 18 17 17 20 20 15 13 12 10 8 7 9 9 9 8 6 6 7
4 6 8 9 8 12 14 14 15 14 14 12 8 8 11 15 20 22 21 19 20 23 21 19 20 20 21 19 17 19 18 13 12 10 9 7 6 8 8 7 6 6 7
3 5 6 7 9 11 12 14 16 14 12 10 8 5 7 11 13 17 20 22 23 22 20 19 20 25 23 21 20 19 17 15 13 12 9 9 7 6 5 5 7 10 9
6 4 4 4 5 7 8 11 13 14 13 10 4 3 5 9 12 14 17 20 21 23 22 24 24 24 22 23 20 21 21 20 18 13 11 10 9 8 8 9 10 10 11
5 3 2 2 4 5 6 10 11 11 10 7 5 2 2 6 8 11 11 15 12 17 14 14 17 17 17 16 18 16 16 14 12 15 14 13 13 13 12 11 11 11 14

GFSMW_925_spd_117.txt.gz
Wind_Speed
9 20 14 9 12 11 17 24 18 20 30 34 35 35 32 36 34 33 30 31 31 30 29 26 25 23 21 20 19 15 16 12 9 11 11 13 9 9 9 9 7 5 3
14 12 15 16 16 14 10 10 21 23 29 32 35 34 36 35 36 35 33 31 31 31 30 26 25 24 21 19 18 17 14 12 11 5 2 2 1 10 11 9 7 6 4
16 13 12 15 15 17 16 14 21 27 35 39 34 33 33 33 32 32 33 32 31 31 28 25 23 25 21 19 18 19 16 12 12 9 3 2 1 2 5 8 8 7 5
9 9 11 12 19 19 15 8 18 32 33 36 29 30 29 28 28 33 34 35 33 30 29 24 21 20 20 18 16 16 14 12 10 5 5 3 3 2 1 2 5 7 6
18 12 9 14 17 19 14 9 16 32 31 35 31 30 31 32 32 34 35 33 32 30 28 27 24 21 18 17 15 12 8 9 9 9 6 9 6 7 3 2 4 8 7
13 8 12 14 18 20 20 12 16 23 25 28 31 36 35 28 30 31 30 28 28 27 26 26 24 21 19 17 15 14 9 6 14 13 16 13 7 8 5 2 5 6 7
11 8 5 7 11 19 18 18 21 21 17 25 33 28 33 30 32 35 34 30 26 24 24 21 22 22 19 15 15 17 15 12 15 20 19 22 19 15 12 9 5 5 4
5 5 6 11 16 14 15 18 19 16 20 16 29 26 20 25 28 25 23 25 29 27 25 25 23 24 21 17 18 21 15 14 16 29 29 25 23 22 15 10 7 2 3
5 4 5 4 11 21 22 22 21 21 22 25 19 15 14 13 18 19 19 20 21 22 21 20 20 20 20 24 19 17 13 9 19 27 20 18 18 15 12 10 10 7 3
10 10 7 4 9 15 12 19 22 30 27 28 31 23 24 24 25 23 21 21 21 22 19 15 18 16 18 22 19 14 12 12 20 21 15 17 17 13 12 12 12 12 10
9 7 6 9 6 1 13 18 20 22 26 26 25 27 29 31 30 28 29 32 28 23 18 16 16 15 15 15 20 17 20 22 21 17 18 16 15 15 12 12 11 10 11
7 7 7 11 13 10 6 7 13 18 26 29 30 32 35 35 32 34 33 34 35 29 25 23 21 22 27 27 30 26 23 24 25 22 18 17 15 12 11 11 11 10 9
10 8 10 8 14 16 11 12 8 8 15 25 25 22 17 26 29 29 31 37 31 29 31 34 31 26 27 24 20 19 19 20 19 18 18 18 15 13 12 12 11 8 8
12 12 11 9 16 20 19 16 14 11 7 9 12 13 10 7 8 11 15 14 14 14 13 15 17 18 19 20 20 19 19 18 18 18 16 14 13 13 12 10 8 7 7
12 10 10 9 16 18 18 16 13 10 8 8 14 14 12 7 7 6 7 10 12 13 14 15 16 19 21 22 22 22 22 22 19 15 15 13 11 10 10 10 10 9 9
10 10 8 9 13 18 17 14 12 9 5 5 5 6 8 11 8 7 6 9 11 13 15 17 18 20 20 19 20 21 21 19 18 17 14 12 12 10 9 8 8 7 8
7 8 8 9 14 18 17 14 11 9 7 5 4 4 5 4 4 8 9 9 11 12 15 16 19 20 19 19 18 18 18 18 17 15 15 14 11 10 9 8 7 7 7
6 7 11 14 12 14 15 13 12 9 6 4 2 1 1 4 7 7 10 13 14 15 16 17 18 18 18 19 19 18 17 17 16 15 14 12 10 9 9 8 7 6 5
6 7 11 11 13 17 15 11 12 10 7 5 4 3 4 6 8 11 13 14 16 17 18 18 19 20 20 20 20 21 19 17 15 14 12 11 10 9 11 10 9 6 6
8 10 11 10 12 15 14 12 12 10 10 8 7 7 8 10 14 16 16 17 18 18 18 19 19 19 21 22 22 20 19 18 17 14 13 11 10 11 10 10 10 9 6
8 9 10 10 11 13 14 14 12 14 13 12 10 7 10 13 14 15 17 18 17 17 17 17 17 18 19 21 22 20 19 20 19 16 15 13 11 11 10 10 10 8 6
8 9 9 9 10 13 14 14 15 15 15 14 13 11 9 12 15 17 18 18 18 19 19 19 18 18 18 19 22 20 18 17 19 17 14 12 12 12 11 11 9 7 7
7 8 8 7 7 11 12 14 17 18 15 13 11 11 9 9 12 16 17 17 18 19 21 21 22 21 20 20 22 23 18 17 18 16 13 12 11 11 11 10 9 10 8
7 7 7 7 8 9 9 12 14 16 15 15 12 7 5 7 9 13 16 18 20 21 21 19 21 24 25 23 23 23 23 17 15 14 14 13 11 10 9 11 11 13 11
6 7 7 6 7 9 9 11 13 14 14 11 11 9 7 7 9 11 14 17 20 22 23 25 23 23 24 31 27 26 26 25 22 18 15 14 13 12 12 10 11 12 12
6 7 6 6 6 7 9 11 11 11 11 11 9 9 9 7 6 10 10 12 15 15 18 21 22 23 23 22 24 25 24 25 23 22 20 18 16 16 15 14 12 14 13

GFSMW_925_spd_123.txt.gz
Wind_Speed
13 17 22 27 27 24 17 14 6 8 37 41 38 31 31 29 30 38 40 42 38 40 39 37 36 34 33 33 28 22 21 17 15 12 7 5 6 7 7 8 10 9 8
13 13 23 23 23 21 19 15 13 8 11 32 38 37 34 33 32 32 38 41 39 42 41 39 38 35 34 30 27 26 22 16 18 9 7 1 3 7 7 7 10 10 8
16 14 12 17 15 16 25 27 17 14 11 27 26 31 31 26 26 26 28 33 37 42 42 41 39 38 35 34 32 29 26 17 18 15 7 2 4 3 2 7 10 11 9
11 11 12 13 10 8 14 17 17 18 18 9 18 23 24 22 23 24 27 35 39 39 40 36 37 38 35 34 32 29 28 27 22 15 12 6 6 3 1 5 10 11 11
7 10 10 12 15 16 16 14 8 13 22 22 24 28 23 25 31 32 24 27 34 37 36 35 35 35 35 33 32 31 28 29 27 21 17 14 9 10 4 2 1 9 12
6 7 7 13 15 14 10 23 5 15 20 26 28 30 26 24 31 29 35 37 36 37 38 37 34 34 34 33 33 32 30 28 26 25 24 21 8 11 8 2 6 14 12
6 11 11 8 12 14 11 3 4 6 13 27 25 29 31 31 32 32 32 30 30 34 40 36 34 34 34 35 33 32 33 30 25 26 24 18 19 6 13 8 2 4 7
17 16 15 7 11 10 3 2 4 8 15 27 33 27 34 32 28 32 29 34 31 35 37 38 37 34 35 36 32 30 24 24 17 18 20 19 20 20 17 11 7 1 4
18 17 15 17 11 7 7 4 7 10 12 18 31 30 29 30 26 21 19 30 32 33 38 37 38 34 30 29 29 26 23 20 22 21 20 21 19 20 22 23 22 15 5
16 16 12 16 16 6 4 6 5 7 10 5 13 15 26 25 21 17 14 12 16 31 34 36 36 35 29 30 24 19 15 16 18 21 21 23 26 24 22 25 23 21 14
13 11 11 17 18 20 10 5 4 3 2 7 17 17 15 9 13 12 10 10 10 10 16 22 27 26 19 18 18 18 19 21 25 25 22 23 27 27 27 22 21 20 15
12 12 13 18 20 19 19 20 9 1 4 5 7 8 9 7 9 11 16 16 14 10 10 10 12 13 16 18 21 25 28 29 27 23 17 19 24 23 24 23 22 20 17
14 14 14 14 18 19 20 23 21 12 2 8 10 8 8 5 2 5 4 21 20 18 18 20 19 19 18 23 18 24 25 23 26 25 23 22 22 24 21 19 17 16 15
12 12 12 12 18 19 21 24 24 21 11 6 9 12 8 8 6 10 9 5 12 18 22 23 27 31 29 24 22 24 26 27 29 31 30 29 31 28 24 20 20 18 17
12 11 10 11 19 23 26 27 24 22 17 13 8 9 7 11 6 6 5 6 6 5 14 24 30 37 36 34 29 27 32 34 33 26 23 22 24 23 20 21 20 18 16
8 8 8 10 14 20 22 24 24 21 19 19 16 10 5 2 3 6 6 6 5 4 7 11 15 18 26 26 28 27 26 25 24 23 17 15 14 16 16 16 14 15 16
7 8 8 10 16 21 19 20 20 19 22 20 16 13 8 3 1 2 3 5 5 6 7 6 7 8 10 14 17 20 20 21 22 19 16 16 16 16 16 14 14 13 15
6 5 9 15 19 20 20 17 17 18 19 19 17 13 9 6 3 2 2 6 7 6 7 6 6 7 9 11 12 14 16 18 18 19 20 21 20 19 16 15 10 13 10
5 6 9 9 13 17 18 17 19 19 20 20 18 15 12 7 6 5 4 3 4 5 5 5 7 9 10 11 12 14 16 17 18 18 19 20 20 19 18 15 15 14 11
4 6 9 9 12 16 16 18 21 22 23 21 19 16 13 10 9 8 7 7 8 7 7 7 7 10 12 14 14 16 17 18 18 18 19 19 18 18 18 17 18 16 17
4 5 6 6 9 12 14 17 19 22 20 19 17 16 15 13 11 9 9 8 9 9 8 8 8 10 12 14 15 17 19 21 21 21 20 19 18 18 18 16 17 18 16
3 3 4 4 5 7 9 10 13 14 15 16 16 16 17 15 14 13 11 10 9 9 10 10 11 12 14 15 16 18 20 21 23 24 22 21 20 20 19 18 17 15 13
5 3 4 2 3 5 6 9 11 12 12 12 12 13 13 13 12 13 13 13 13 13 13 12 13 15 15 15 15 18 19 19 19 20 20 20 20 20 19 17 16 16 15
8 6 5 5 3 3 3 6 9 10 12 12 12 11 12 13 14 12 11 11 11 12 15 17 18 19 18 17 17 20 21 20 20 18 19 20 21 21 20 18 18 18 17
9 8 6 6 5 5 4 5 7 9 10 10 11 12 12 13 14 12 12 12 13 12 15 18 20 19 19 23 23 24 24 26 25 20 19 21 23 24 23 22 21 20 19
9 7 6 6 4 4 4 5 6 7 8 9 11 12 13 14 14 15 18 13 13 15 16 17 18 22 22 21 20 20 24 27 26 25 25 25 26 25 26 27 26 24 23